GFSSW_prec_cloud_003.txt.gz
Cloud_Cover
0 0 0 0 1 7 4 5 5 5 25 8 0 0 0 0 0 1 23 94 0 0 0 0 5 1 5 5 5 0 0 0 0 0 0 0 2 20 5 5 5 0 0 5 4
1 1 0 0 3 5 5 5 5 4 6 6 1 0 0 0 1 44 0 0 3 75 0 0 1 3 5 7 5 1 0 0 0 0 0 0 0 4 0 0 4 3 0 0 0
4 3 0 0 0 3 5 5 5 0 2 5 3 0 0 1 100 22 0 0 100 100 33 16 59 3 1 5 5 1 0 0 0 0 0 0 26 2 2 5 2 2 0 0 1
5 6 1 0 11 47 12 3 5 0 0 0 5 3 0 49 42 0 0 0 2 100 100 100 43 4 0 5 5 5 0 0 0 0 0 0 68 0 5 5 0 0 0 0 0
54 74 0 0 12 100 28 5 5 4 0 0 0 4 17 100 42 51 0 0 31 100 100 100 86 7 5 5 7 5 0 0 0 1 4 1 4 5 12 5 0 0 0 0 0
95 95 2 5 5 5 5 5 5 5 0 0 2 0 96 96 10 100 76 0 29 98 100 22 83 68 5 5 13 5 0 0 1 3 5 3 5 5 62 5 0 0 0 1 0
78 98 73 5 84 99 87 63 59 36 1 0 3 3 99 47 11 100 100 40 0 3 100 98 52 70 5 5 5 5 1 0 5 0 5 5 5 0 1 5 5 0 0 1 0
100 100 100 100 32 100 100 96 22 5 12 2 11 0 72 0 12 98 100 98 0 99 0 31 82 60 5 86 13 5 0 1 0 0 5 68 91 1 0 0 0 0 0 0 0
100 100 100 100 100 75 68 100 75 5 95 76 65 5 31 0 4 55 100 93 0 55 97 100 100 100 99 29 16 5 0 0 0 3 52 8 55 0 4 4 0 0 0 0 1
100 100 100 100 100 100 100 100 100 100 92 100 80 76 22 2 6 100 100 95 11 47 100 100 100 33 100 96 5 5 0 3 5 38 100 69 64 5 18 6 5 0 0 0 2
100 100 100 100 100 100 100 100 100 100 100 6 0 2 22 39 27 32 63 95 84 100 100 100 100 97 100 5 57 1 0 5 5 100 100 69 8 5 95 5 5 5 5 5 11
100 100 100 100 100 100 100 100 98 69 50 24 81 100 100 99 60 85 100 100 100 91 100 95 57 100 7 19 18 0 0 5 23 97 100 68 5 5 21 18 24 22 5 5 22
100 100 100 100 100 100 100 100 100 100 97 100 84 100 100 100 87 100 100 99 100 75 64 26 89 10 96 53 4 0 0 5 86 86 96 14 46 5 7 100 98 26 33 5 5
100 100 100 100 100 100 100 100 100 100 100 100 100 100 100 100 89 98 100 71 98 22 75 77 94 100 13 5 0 0 0 5 5 58 75 6 6 45 5 40 67 100 85 5 7
100 100 100 100 100 100 100 100 100 100 100 100 100 100 100 100 100 100 100 98 98 51 100 100 92 58 5 3 0 0 0 5 28 99 23 6 72 5 5 5 5 0 0 0 0
100 100 100 100 100 100 100 100 100 100 100 100 100 100 100 100 100 96 45 100 95 100 100 47 42 47 5 4 2 0 0 3 5 99 15 79 39 5 13 2 2 0 0 0 0
100 100 100 100 100 100 100 100 100 100 100 100 100 100 100 100 100 100 93 100 92 100 93 70 37 5 5 5 5 0 3 5 5 96 95 81 52 0 0 0 0 0 0 0 0
100 100 100 100 100 100 100 100 100 100 100 100 100 100 100 100 100 100 100 100 100 99 6 5 16 5 5 16 76 8 1 8 5 100 100 86 9 0 0 0 0 0 0 0 0
100 100 100 100 100 100 100 100 100 100 100 100 100 100 100 100 100 99 98 100 100 100 65 48 22 6 35 93 96 1 76 77 33 100 100 100 15 5 0 0 0 0 5 5 5
35 100 97 100 100 100 100 100 100 100 100 100 100 100 100 100 94 100 100 100 100 99 99 84 92 22 26 100 25 74 100 100 100 100 100 53 5 5 4 1 5 16 5 5 5
94 97 100 99 100 100 100 100 100 100 100 100 100 100 100 100 100 100 100 100 100 100 100 97 98 100 100 100 100 100 100 100 100 100 100 12 12 5 5 5 61 83 93 11 5
24 100 100 100 100 100 100 100 100 100 100 100 100 100 100 100 100 100 100 100 100 100 100 100 100 100 100 100 100 100 100 100 100 100 85 62 19 44 7 40 91 42 5 5 5
100 100 100 99 98 100 100 100 100 100 100 100 100 100 100 100 100 100 100 100 100 100 100 100 100 100 100 100 100 100 100 100 100 96 100 100 99 44 5 81 96 87 64 70 83
36 67 41 100 66 19 64 100 100 100 100 100 100 100 100 100 100 100 100 100 100 100 100 100 100 100 100 100 100 100 100 99 100 100 100 100 100 100 86 84 100 98 76 86 98
42 29 29 81 100 86 53 96 100 100 100 100 100 100 100 100 100 100 100 100 100 100 100 100 100 100 100 100 100 100 100 100 100 100 100 100 100 100 100 69 58 94 24 8 5
5 21 94 43 94 66 96 100 45 100 100 100 100 100 100 100 100 100 100 100 100 100 100 100 100 100 100 100 100 100 100 100 100 100 100 100 100 96 100 100 100 51 5 5 5
5 6 5 5 88 86 97 100 100 100 100 100 100 100 100 100 100 100 100 100 100 100 100 100 100 100 100 100 100 100 66 16 5 20 5 33 100 100 88 57 58 76 100 51 76

GFSSW_prec_cloud_006.txt.gz
Cloud_Cover
6 2 4 1 0 0 6 0 1 0 3 5 5 2 0 0 0 0 32 1 0 0 0 0 0 3 3 4 5 5 0 0 0 0 0 0 0 5 2 4 2 0 1 5 5
2 6 7 5 5 0 0 2 2 4 5 5 70 5 1 0 1 40 0 0 0 26 0 0 0 4 3 5 5 5 0 0 0 0 0 0 0 0 1 1 1 0 1 1 1
53 33 43 13 10 42 2 2 5 5 1 5 5 11 5 4 81 12 0 0 0 93 1 0 4 3 4 4 2 5 1 0 0 0 0 0 0 0 0 0 0 0 0 0 0
100 56 10 0 1 4 0 5 5 5 1 3 4 10 5 6 17 0 0 0 0 60 86 38 36 8 0 0 0 5 5 4 0 0 0 0 0 0 0 4 0 0 1 5 0
100 59 95 1 0 0 0 5 3 11 5 2 0 0 24 99 36 3 0 0 0 93 20 70 72 49 0 0 3 5 5 5 0 0 0 0 0 0 1 5 0 2 5 1 0
100 78 97 52 88 4 32 0 0 11 5 5 4 0 53 78 58 69 0 0 0 46 17 95 90 37 4 0 5 5 5 5 0 0 0 0 0 5 60 4 5 0 3 0 0
100 97 100 100 100 29 100 100 0 34 54 5 5 18 92 40 19 100 99 21 0 97 100 58 60 32 80 6 21 5 5 5 0 0 0 0 0 0 1 5 5 0 0 0 0
100 98 98 100 100 86 92 100 9 6 100 5 4 73 100 44 13 100 35 58 8 2 51 97 86 100 7 5 5 5 5 0 0 0 0 5 1 5 4 4 2 3 0 0 0
100 100 100 100 100 100 98 100 97 29 6 15 63 95 24 0 4 54 100 22 1 32 20 100 30 5 67 86 30 50 5 4 0 0 0 5 0 86 5 4 0 0 0 0 0
100 100 100 100 100 100 100 100 100 97 100 77 100 95 1 1 3 85 90 36 14 71 91 94 90 87 87 61 36 32 5 2 0 0 0 5 9 100 29 91 45 5 3 0 0
100 100 100 100 100 100 100 100 100 100 100 100 9 7 0 0 12 85 9 61 100 72 100 100 100 90 100 5 8 69 17 4 0 0 1 23 14 16 53 100 76 64 52 5 5
100 100 100 100 100 100 100 100 99 100 100 100 97 41 46 0 58 100 100 100 100 92 100 100 97 31 100 16 14 81 5 0 0 0 1 70 49 99 15 100 94 82 97 84 48
100 100 100 100 100 100 100 100 100 99 54 17 11 92 100 22 90 35 100 100 18 82 100 100 100 90 12 36 92 74 5 0 0 0 0 5 100 100 24 92 100 70 93 100 43
100 100 100 100 100 100 100 100 100 100 44 67 96 100 78 2 93 55 100 100 50 100 100 100 100 14 100 52 97 8 0 0 0 0 0 42 100 65 42 66 5 47 100 100 100
100 100 100 100 100 100 100 100 100 100 100 100 100 100 78 32 57 98 87 98 10 96 59 20 6 39 100 15 5 3 0 0 0 0 0 7 100 40 100 72 7 5 14 85 98
100 100 100 100 100 100 100 100 100 100 100 100 100 100 100 100 81 100 100 100 57 28 62 38 85 65 10 5 5 5 0 0 0 2 5 26 100 55 85 4 0 0 5 4 1
100 100 100 100 100 100 100 100 100 100 100 100 100 100 100 100 82 99 100 100 100 100 99 72 12 63 5 14 5 1 0 0 0 4 3 51 100 100 23 4 0 0 4 0 0
76 100 100 100 100 100 100 100 100 100 100 100 100 100 100 100 100 100 100 100 100 41 86 62 93 94 5 5 0 0 0 0 0 1 5 50 100 100 44 2 0 0 0 0 0
62 100 100 100 100 100 100 100 100 100 100 100 100 100 100 100 100 100 100 100 99 15 5 99 62 5 5 5 0 0 0 0 0 0 2 74 100 100 87 0 3 4 0 0 0
75 100 100 100 100 100 100 100 100 100 100 100 100 100 100 100 100 99 100 100 100 78 100 97 47 5 5 5 1 0 0 0 0 3 31 100 100 100 74 30 5 5 0 0 0
39 29 100 100 98 100 100 100 100 100 100 100 100 100 84 9 50 81 93 91 99 100 100 98 11 5 5 0 2 5 0 3 3 43 92 100 100 100 89 100 76 5 3 1 0
58 100 100 100 100 100 100 100 100 100 100 100 100 100 85 8 63 49 17 9 84 58 100 56 84 31 85 51 5 5 52 65 100 90 100 100 100 100 100 100 100 94 34 5 5
73 64 88 100 100 100 100 100 100 100 100 91 100 100 100 100 100 100 84 100 100 85 80 76 100 89 5 18 5 65 100 100 100 92 100 100 100 100 100 98 100 100 100 99 96
61 70 18 82 100 100 100 100 100 100 100 100 100 100 100 100 100 100 100 100 100 100 100 100 100 100 100 100 100 99 98 90 100 100 100 100 100 100 100 100 100 100 100 100 100
97 100 17 39 54 96 100 94 100 100 100 100 100 100 100 100 100 100 100 100 100 100 100 100 100 100 28 5 39 86 100 100 100 100 100 100 100 100 100 100 100 100 100 100 100
91 100 94 6 5 18 100 100 100 100 98 100 100 100 100 100 100 100 100 100 100 100 100 100 100 100 100 100 100 100 100 100 100 100 100 100 100 100 100 100 100 100 70 5 3
32 57 6 23 77 58 73 100 100 100 100 95 100 100 100 100 100 100 100 100 100 100 100 100 100 100 100 100 100 100 100 100 100 100 100 100 100 100 100 46 5 5 5 5 0

GFSSW_prec_cloud_009.txt.gz
Cloud_Cover
0 0 5 16 6 2 9 6 5 95 38 4 6 5 5 0 0 0 39 2 0 5 0 0 0 15 5 6 6 27 42 0 0 0 4 0 0 0 0 5 5 3 0 0 0
2 1 4 33 3 1 5 0 0 1 6 1 4 4 5 4 0 22 0 0 0 96 1 0 0 4 0 1 3 0 1 0 0 0 0 0 0 0 0 5 4 0 0 0 0
74 18 84 4 5 12 4 0 0 6 4 1 0 6 69 19 46 2 0 34 0 83 56 0 0 3 2 0 3 0 0 5 0 0 0 0 0 0 0 5 0 0 0 0 3
9 100 23 6 59 24 100 0 1 4 52 27 6 5 40 72 8 0 0 45 2 84 96 0 1 4 0 0 0 0 0 5 3 0 0 0 0 0 0 3 0 0 0 1 5
43 23 71 98 100 97 60 84 2 3 5 100 4 5 27 88 25 2 0 4 2 91 95 26 6 0 0 0 0 0 0 3 5 2 0 0 0 0 0 0 7 5 2 0 2
9 12 100 100 100 100 83 67 4 4 5 98 64 6 44 97 50 12 31 1 0 49 72 15 84 0 7 5 3 0 0 0 2 0 0 0 0 0 0 0 59 70 5 2 1
89 98 35 100 100 100 96 87 16 99 3 92 94 38 83 38 5 100 99 4 0 0 16 0 4 53 16 23 5 3 1 0 0 5 0 0 0 0 0 36 98 89 34 5 30
100 100 100 100 100 100 100 68 100 30 88 60 93 94 93 0 5 68 98 0 0 36 2 10 38 55 57 88 6 3 36 4 3 5 0 0 0 0 0 64 86 100 75 19 4
65 51 100 100 100 100 100 38 83 70 5 54 92 96 90 3 0 43 59 15 0 19 27 18 86 78 90 7 75 10 49 4 3 5 0 0 0 0 5 37 92 100 35 2 25
100 100 100 100 100 100 100 14 100 100 90 96 100 92 33 0 1 86 100 32 4 9 100 96 96 22 84 28 74 20 60 2 4 3 0 0 0 0 8 5 31 64 98 99 31
100 100 100 100 100 100 88 100 100 100 37 24 39 98 4 0 0 100 100 36 5 96 100 100 100 57 1 88 2 62 5 5 5 4 0 0 0 0 69 41 67 100 100 93 51
100 100 100 100 100 100 100 99 100 100 100 86 100 89 93 0 2 100 100 13 44 74 100 100 60 16 29 3 91 92 5 5 5 4 0 0 0 5 100 97 77 54 44 10 8
100 100 100 100 100 100 100 100 100 100 100 98 100 95 100 0 0 22 73 8 5 60 100 88 100 77 63 77 34 23 5 5 4 0 0 0 0 0 66 95 21 19 26 97 100
100 100 100 100 100 100 100 100 100 100 100 100 45 69 62 8 6 60 100 64 8 3 85 98 28 74 100 100 88 99 53 68 5 0 0 0 0 0 42 100 6 76 100 83 100
100 100 100 100 100 100 100 100 100 100 100 72 57 42 93 16 2 79 100 59 12 0 100 100 99 48 100 15 25 7 82 22 5 0 0 0 4 5 31 28 5 6 100 82 8
100 100 100 100 100 100 100 100 100 100 100 81 23 34 66 10 31 100 100 100 64 100 100 10 10 76 22 100 64 95 76 5 2 2 3 2 4 0 88 11 5 5 99 100 60
100 100 100 100 100 100 100 100 100 100 100 100 99 66 41 54 94 100 100 100 76 96 44 95 70 91 100 100 81 24 65 18 1 3 1 3 8 2 94 5 4 0 2 4 2
100 100 100 100 100 100 100 100 100 100 100 100 100 100 39 98 65 84 99 100 91 52 24 100 100 30 100 98 26 5 5 5 0 0 0 0 5 0 100 9 5 5 0 0 0
100 95 100 100 100 100 100 100 100 100 100 100 100 100 100 94 62 100 100 100 100 8 15 100 10 37 5 5 5 5 5 1 0 3 4 0 0 0 100 20 5 0 5 1 0
100 92 98 100 100 100 100 100 100 100 100 100 100 100 100 100 100 100 100 100 74 40 32 68 22 56 42 11 9 5 5 0 2 2 5 0 0 0 85 60 5 1 5 5 2
34 94 100 100 100 100 100 100 100 100 100 76 100 100 100 100 100 100 100 100 78 96 100 5 5 23 48 51 5 5 2 0 0 0 0 0 0 3 24 90 25 5 5 5 5
42 90 100 100 100 100 100 100 100 100 100 82 100 100 100 100 100 100 58 56 83 78 97 46 90 37 5 20 5 5 1 0 0 0 0 0 3 0 10 100 19 100 81 5 48
36 100 100 100 100 100 100 100 100 100 100 100 99 60 100 61 100 76 94 19 48 70 98 24 16 100 89 85 8 5 2 1 2 2 5 62 65 0 4 89 100 100 99 54 100
7 88 100 100 94 100 100 100 100 100 100 100 100 100 85 100 69 17 51 74 23 99 100 93 87 64 32 53 27 5 78 72 17 5 98 22 6 0 5 94 100 100 100 100 100
5 41 100 100 100 100 95 100 100 100 100 100 100 100 100 100 100 83 93 72 72 99 68 87 90 98 82 9 3 5 6 11 5 94 14 34 4 0 47 100 100 100 100 100 100
21 12 54 50 100 100 100 99 99 100 100 100 100 100 100 100 100 100 100 100 100 100 100 96 100 84 100 100 5 5 5 44 100 34 5 17 94 97 100 100 100 100 100 100 100
72 35 11 45 71 100 100 100 97 98 100 100 100 100 100 100 100 90 100 100 100 100 100 100 95 99 98 59 42 4 6 7 14 22 100 100 100 100 100 96 99 98 100 100 95

GFSSW_prec_cloud_012.txt.gz
Cloud_Cover
0 1 0 3 3 12 1 1 23 85 34 72 7 5 30 5 5 1 42 0 3 5 10 0 4 24 100 100 26 52 100 100 100 46 56 98 100 89 39 5 5 5 18 1 0
5 1 5 5 0 0 4 4 57 5 5 56 40 74 7 11 41 63 0 0 19 4 2 8 0 4 72 93 99 69 12 48 100 100 100 5 27 8 4 0 0 5 97 54 0
0 5 5 5 3 100 9 7 100 92 5 4 0 0 3 37 63 12 0 0 52 28 57 54 4 20 2 33 75 46 54 5 3 63 73 7 1 0 0 0 0 5 5 5 0
5 5 1 2 17 37 45 100 100 91 99 5 12 0 7 60 76 30 0 0 3 2 43 52 37 20 0 1 0 0 2 5 5 5 5 37 1 0 0 0 0 3 0 0 0
5 39 15 93 57 5 74 100 100 100 18 5 5 5 15 100 31 5 3 5 0 0 100 100 27 14 0 0 0 0 0 0 0 2 3 0 0 0 0 0 0 0 0 0 11
6 10 45 46 9 100 100 100 100 100 84 2 3 5 5 88 1 5 50 15 5 0 88 100 58 0 12 0 0 0 0 0 0 0 0 0 0 0 0 0 0 0 0 4 13
68 97 100 100 69 52 93 98 100 100 26 3 19 14 17 7 5 1 5 82 24 13 38 53 5 69 49 38 1 5 1 0 0 0 1 1 0 0 0 0 0 0 0 5 5
100 100 100 100 13 28 100 100 100 100 18 69 60 100 16 10 52 0 5 98 5 2 86 59 54 76 100 100 68 17 16 3 0 0 0 0 0 0 0 0 0 0 5 5 35
100 100 100 100 92 100 100 100 100 100 65 93 98 100 8 94 54 1 70 100 31 5 100 92 92 80 90 100 93 82 10 5 0 0 0 0 0 0 0 0 0 0 0 27 100
100 100 100 100 100 100 100 100 100 90 96 100 71 100 7 93 100 0 89 100 100 7 65 89 72 12 100 100 30 5 5 5 0 2 0 0 0 0 0 0 0 0 3 99 100
100 100 100 100 100 100 100 100 100 100 100 100 93 5 98 53 83 3 100 100 100 30 100 62 100 100 4 0 2 55 4 5 0 5 0 0 0 0 0 0 0 5 18 100 100
100 100 100 100 100 100 100 100 100 100 100 100 93 100 100 100 66 42 100 100 91 6 100 100 98 34 4 3 72 1 41 6 3 5 0 0 0 0 0 0 0 4 5 97 100
100 100 100 100 100 100 100 100 100 100 100 100 68 100 100 100 21 83 99 96 87 92 100 100 63 61 19 5 5 5 8 19 2 5 0 0 0 0 0 0 5 1 3 100 100
100 100 100 100 100 100 100 100 100 100 100 100 99 47 76 100 23 95 100 80 98 26 86 100 100 99 69 14 48 42 7 95 5 5 0 0 0 0 0 0 5 5 5 85 100
6 100 100 100 100 100 100 100 100 100 100 100 23 78 64 69 2 79 100 100 100 24 78 98 100 100 100 32 6 14 94 92 100 77 4 0 0 0 0 0 5 5 5 22 100
13 100 100 100 100 100 100 100 100 100 100 100 15 16 74 18 63 84 61 100 100 100 90 100 100 100 99 99 34 98 95 100 100 85 4 0 0 0 0 0 4 3 5 4 99
83 94 100 100 100 100 100 100 100 100 100 100 56 43 5 4 84 78 27 78 100 67 52 100 55 100 70 97 100 100 100 91 79 6 0 0 0 0 0 0 0 4 5 5 94
54 21 99 100 100 100 100 100 100 100 100 100 15 6 5 4 68 100 100 100 100 8 2 83 89 100 97 33 86 100 100 56 6 2 0 0 1 0 0 0 0 0 5 4 20
21 100 100 100 100 100 100 100 100 100 100 100 54 27 89 5 42 70 92 100 100 9 12 10 91 26 100 91 85 96 32 41 5 5 1 0 0 0 0 0 0 0 0 5 5
100 92 92 100 100 100 100 100 100 100 100 100 77 32 6 76 100 100 100 100 100 92 5 5 5 40 100 43 100 88 81 30 5 5 0 0 0 0 0 0 0 0 0 10 29
91 11 100 100 100 100 100 100 100 100 70 100 10 38 34 80 88 77 98 100 100 100 96 18 66 84 100 20 52 94 42 27 25 6 0 0 0 0 0 0 0 0 0 4 95
61 21 100 100 100 100 100 100 100 100 89 100 99 100 10 63 100 91 100 100 90 27 70 64 13 100 49 45 76 98 5 5 5 2 0 0 0 0 0 0 0 0 0 5 6
28 100 100 100 100 100 100 100 100 100 100 100 100 84 50 13 43 64 99 100 100 100 86 46 60 36 90 67 5 5 5 5 26 4 0 0 0 0 0 0 0 1 5 5 15
37 57 100 100 100 100 100 100 100 100 100 99 78 100 100 94 91 100 100 100 97 90 87 100 65 5 3 8 14 5 3 5 5 0 0 0 0 0 0 12 57 5 5 24 5
12 99 95 98 100 100 100 100 100 100 100 98 97 88 78 26 97 82 78 96 100 100 100 86 96 95 94 14 18 61 90 86 50 5 0 0 0 0 0 97 85 5 62 74 61
65 47 82 100 100 100 100 100 100 100 100 100 97 90 80 74 74 100 100 92 83 65 84 98 86 92 88 78 81 5 7 5 5 5 0 0 0 0 18 99 44 100 99 60 100
86 100 96 100 100 100 100 100 100 100 100 100 100 86 100 100 88 100 96 98 99 96 100 100 100 88 91 99 66 5 5 5 5 35 2 1 6 94 55 67 75 100 100 100 100

GFSSW_prec_cloud_015.txt.gz
Cloud_Cover
0 0 0 0 3 5 5 4 5 13 98 32 12 52 95 33 7 19 66 0 0 0 9 8 0 0 0 3 66 100 100 100 100 6 12 29 40 11 5 15 5 5 5 44 25
0 0 0 0 0 0 2 8 11 12 1 0 4 8 5 23 98 92 1 0 0 0 10 64 90 1 0 0 7 42 100 93 17 6 86 97 14 23 5 5 5 7 57 34 10
1 12 0 0 0 0 3 5 5 7 71 87 93 93 5 23 98 35 0 0 0 0 0 100 57 88 0 0 3 8 100 68 43 7 95 98 98 82 5 6 60 6 19 5 5
0 4 0 0 0 11 43 2 25 9 16 100 100 63 3 19 25 1 0 0 1 4 0 50 70 100 39 0 0 0 5 20 99 10 4 4 64 93 100 98 98 46 35 3 0
4 1 3 2 8 49 1 2 21 97 92 83 72 18 10 87 24 2 7 1 0 97 0 44 98 94 90 0 2 0 0 5 19 42 5 12 5 5 3 2 1 0 4 2 0
5 6 5 5 39 5 3 5 83 65 100 100 65 92 87 89 0 4 3 20 18 99 22 44 66 100 100 43 0 0 1 1 4 5 5 37 30 4 1 5 2 0 0 0 0
5 16 5 97 86 5 5 37 99 100 100 100 55 94 50 7 5 5 5 52 88 10 13 2 45 100 100 100 4 0 6 0 5 5 12 4 0 0 0 0 0 0 0 0 0
5 8 100 100 100 88 82 94 100 100 100 100 97 30 93 100 96 100 14 20 100 37 8 5 68 100 100 98 97 32 94 2 0 0 0 0 1 1 0 0 0 0 0 0 0
5 9 86 100 100 100 100 100 100 100 100 100 78 33 75 100 90 100 100 100 100 98 96 96 100 100 100 100 84 98 5 1 0 0 0 0 0 0 0 0 0 0 0 0 2
7 10 80 100 100 100 100 100 100 100 100 100 93 76 72 100 95 100 100 100 100 100 100 100 100 100 68 100 100 69 13 39 0 2 0 0 0 0 0 0 0 0 0 0 0
6 91 98 100 100 100 100 100 100 100 100 100 92 100 73 100 7 100 100 100 100 100 97 100 100 100 29 100 19 9 92 2 0 4 0 0 0 0 0 0 0 0 0 0 8
6 93 100 100 100 100 100 100 100 100 100 100 95 100 29 29 64 100 100 100 100 100 100 100 100 100 88 48 6 67 99 5 1 5 5 0 0 0 0 0 0 0 0 4 26
17 75 97 100 100 100 100 100 100 100 100 100 100 100 92 100 86 100 100 100 100 100 91 100 89 100 83 6 76 67 0 3 3 5 5 0 0 0 0 0 0 0 0 5 5
100 100 62 100 100 100 100 100 100 100 100 100 100 100 10 100 94 100 100 100 100 100 98 100 100 100 100 73 4 0 5 3 5 7 5 4 1 0 0 0 0 0 5 5 5
100 100 69 100 100 100 100 100 100 100 100 100 100 100 57 100 100 92 73 100 100 100 100 100 100 91 95 88 3 24 7 33 86 64 73 3 4 0 0 0 4 0 2 5 5
100 100 100 92 100 100 100 100 100 100 100 100 100 71 96 97 100 100 80 100 100 100 100 100 100 98 99 91 10 14 99 47 30 88 5 0 0 0 0 0 0 0 4 5 67
100 99 85 81 100 100 100 100 100 100 100 100 75 76 70 100 100 92 100 100 100 100 100 100 100 100 100 85 100 70 33 90 94 90 5 0 0 0 0 0 0 0 0 2 5
98 100 82 67 100 100 100 100 100 100 100 100 10 65 76 72 100 73 100 100 100 88 100 100 100 100 100 100 100 100 80 100 87 5 5 0 0 0 0 0 0 0 0 0 0
94 100 100 72 100 100 100 100 100 100 100 100 50 100 32 43 97 81 61 100 100 68 99 74 85 98 64 100 94 100 99 95 21 3 5 0 0 0 0 0 0 0 0 0 0
100 100 100 100 100 100 100 100 100 100 100 100 94 26 15 5 89 88 46 89 100 99 96 18 70 32 100 100 100 40 92 100 53 5 5 0 0 0 0 0 0 0 0 0 0
98 100 98 100 100 100 100 100 100 100 100 99 72 5 0 4 94 90 56 100 100 100 21 5 5 5 87 100 100 100 54 100 70 6 5 1 0 0 0 0 0 0 0 0 0
100 100 100 100 100 100 100 100 100 100 100 100 80 2 1 2 100 100 58 99 91 87 6 5 0 14 5 43 43 25 66 30 5 5 4 0 0 0 0 0 0 0 0 0 0
100 100 100 100 100 100 100 100 100 100 100 100 100 16 8 97 100 52 49 92 84 92 49 14 5 36 54 28 5 5 8 45 23 5 5 5 1 0 0 0 0 0 0 0 0
100 100 100 100 100 100 100 100 100 100 100 100 97 90 5 83 93 83 92 100 95 100 97 100 94 33 75 53 82 10 41 14 46 34 5 2 0 0 0 0 0 0 0 0 2
100 100 94 100 100 100 100 100 100 100 100 100 96 61 5 13 59 100 100 100 93 94 80 79 92 100 100 100 36 67 2 1 6 2 5 30 13 0 0 0 0 0 0 3 5
100 100 39 95 100 100 100 100 100 100 100 99 100 100 94 5 98 100 100 100 100 98 52 55 95 93 77 92 5 5 5 5 5 84 36 5 0 0 0 0 0 0 5 5 5
100 100 97 100 100 100 100 100 100 100 100 94 100 87 100 52 86 99 97 100 100 100 97 86 63 69 76 100 68 5 10 4 18 48 56 5 2 0 0 0 3 0 8 54 100

GFSSW_prec_cloud_021.txt.gz
Cloud_Cover
0 7 1 0 0 0 0 0 0 74 96 99 7 5 91 96 100 66 10 0 0 0 0 0 0 1 2 0 0 0 3 20 100 100 100 100 100 100 100 100 100 74 18 40 5
0 5 3 0 0 0 0 0 0 0 0 3 26 100 99 82 69 100 2 3 3 0 0 0 0 0 100 38 1 0 0 2 6 85 100 100 100 100 100 100 100 44 5 5 26
0 5 13 0 1 0 0 0 0 0 0 0 0 17 87 18 67 22 1 0 4 0 0 0 0 24 78 31 18 4 0 3 4 5 100 100 100 100 48 100 98 74 95 100 100
1 5 5 1 3 0 0 0 0 0 0 0 0 0 0 2 7 22 2 0 7 23 0 0 0 8 75 40 47 95 4 2 15 7 27 100 100 100 77 70 8 100 100 100 57
5 0 7 5 5 2 5 0 0 0 0 0 0 0 5 14 90 97 100 63 1 0 2 3 1 0 0 2 69 100 16 25 5 9 0 45 100 100 100 26 53 100 100 34 5
36 5 5 6 5 6 5 5 0 0 0 0 1 0 8 78 19 14 99 69 100 90 98 8 10 1 14 1 86 88 47 2 38 4 0 0 23 100 100 100 100 100 99 7 5
91 5 5 5 8 5 32 5 5 5 5 4 8 8 97 100 62 5 48 6 76 14 73 29 88 53 54 97 62 99 100 87 40 31 3 4 28 100 16 100 100 100 83 38 5
100 94 82 20 5 5 5 34 7 5 5 11 5 42 100 87 100 100 84 86 5 4 3 40 43 74 89 96 100 66 100 80 100 13 4 4 15 100 64 100 100 100 100 88 5
100 100 85 98 5 18 100 100 85 25 77 99 9 60 87 97 2 5 6 6 5 14 5 7 98 89 18 97 90 100 44 51 74 8 2 9 13 6 21 100 100 100 100 86 7
100 91 6 98 6 10 100 100 100 100 100 100 99 93 31 65 22 5 5 4 69 93 19 6 66 100 60 100 88 93 91 98 23 10 7 5 4 5 81 100 100 100 82 69 71
100 44 6 100 9 33 100 100 100 100 100 83 100 100 27 5 45 32 85 100 86 84 100 39 85 100 3 74 23 84 100 42 48 5 76 10 9 59 84 74 56 28 29 6 5
84 88 100 100 41 97 100 100 100 100 100 82 100 89 80 37 59 100 100 72 98 100 100 100 100 31 1 27 95 45 100 28 73 81 28 4 4 76 66 84 67 59 8 5 0
99 92 100 84 95 30 98 100 100 100 100 100 98 79 100 100 80 100 47 100 100 100 81 94 19 12 50 88 100 100 96 41 100 100 5 5 4 83 68 5 25 5 5 0 0
100 100 98 87 100 48 100 100 100 100 100 73 100 100 100 100 100 100 100 100 96 78 100 98 100 98 90 93 82 93 98 80 100 46 38 72 3 4 63 5 5 5 5 0 0
100 100 89 15 100 100 96 100 100 100 100 89 100 100 100 100 100 100 99 93 99 100 62 95 100 100 100 99 100 97 100 100 100 83 100 76 51 5 63 5 5 5 5 4 5
100 100 87 95 100 100 96 100 100 100 100 100 100 100 100 100 99 61 76 59 92 100 100 100 100 100 33 100 100 84 100 100 100 100 80 5 35 0 10 10 5 96 6 5 5
100 100 100 100 100 100 100 100 100 100 100 100 100 100 100 100 58 93 100 100 100 100 100 100 100 100 100 100 100 100 100 100 100 84 5 5 43 5 17 36 5 11 5 5 2
100 100 100 100 100 100 100 100 100 100 100 100 100 100 100 100 80 100 100 100 100 100 100 100 100 100 100 100 100 100 39 72 40 44 5 5 1 0 50 6 5 5 8 5 3
100 100 100 100 100 100 100 100 100 100 100 100 100 100 100 100 100 100 100 100 100 100 100 100 92 100 100 100 100 100 92 100 51 5 74 4 1 0 5 5 5 5 5 5 5
100 100 100 100 100 100 100 100 100 100 100 100 100 100 100 91 100 100 72 100 99 100 100 100 100 100 100 100 100 40 91 100 5 38 54 16 29 6 0 2 5 5 3 0 2
100 100 100 100 100 100 100 100 100 100 100 100 100 99 100 100 98 98 90 100 100 100 100 100 100 100 100 100 100 99 84 96 45 7 95 65 36 2 0 0 5 0 0 0 0
100 100 100 100 100 100 100 100 100 100 100 100 100 94 85 80 99 100 100 100 100 100 100 100 100 100 100 100 100 65 100 96 46 27 3 7 19 0 0 0 0 0 0 0 0
100 100 100 100 100 100 100 100 100 100 100 100 100 77 21 98 89 95 96 100 100 100 100 100 100 100 100 100 100 100 37 5 10 53 5 5 68 0 0 0 0 0 0 0 0
100 100 100 100 100 100 100 100 100 100 100 100 84 71 65 7 39 54 70 83 93 100 100 100 100 100 100 100 95 100 68 56 36 71 10 45 80 5 0 3 1 0 0 0 0
100 100 100 100 100 100 100 100 100 100 100 100 97 89 14 6 5 36 53 99 91 100 70 86 100 100 100 100 100 100 99 98 72 74 5 5 7 6 51 9 0 5 4 0 0
100 100 100 100 100 100 100 100 100 100 100 100 100 91 25 18 92 14 100 98 36 74 89 83 99 100 100 100 100 68 56 5 33 6 6 38 5 56 5 5 5 3 5 0 0
100 100 100 100 100 100 100 100 100 100 100 100 100 100 53 67 85 100 86 100 100 100 100 78 67 100 97 29 5 3 5 5 76 22 24 11 93 11 1 1 2 2 5 1 0

GFSSW_prec_cloud_024.txt.gz
Cloud_Cover
5 4 0 0 0 0 0 0 0 0 6 100 99 100 86 20 28 48 14 0 0 0 0 0 0 0 2 17 0 0 0 0 2 82 100 100 100 78 88 96 100 100 94 63 99
5 21 1 2 4 0 0 0 0 0 0 9 17 1 95 61 38 99 2 2 3 0 0 0 0 0 0 10 27 0 0 0 0 1 64 100 100 100 100 100 100 100 84 5 65
54 100 8 5 5 4 1 0 0 0 0 0 0 0 0 99 52 6 0 0 3 2 2 0 0 0 0 0 57 0 0 0 0 0 6 95 100 100 100 100 100 98 10 97 100
45 80 6 5 15 5 10 4 3 0 0 0 0 0 0 0 2 0 0 0 0 32 16 0 0 0 35 29 78 72 0 0 0 2 42 23 97 100 100 100 100 77 70 8 100
65 100 100 56 7 6 5 3 5 4 15 0 0 0 0 4 0 0 0 0 0 0 3 18 2 3 7 1 0 57 46 1 2 0 6 85 39 100 100 100 100 92 100 81 100
63 14 36 78 13 12 5 3 5 5 2 0 1 2 0 22 0 0 3 0 0 36 16 13 6 2 9 45 67 55 97 21 64 20 3 28 1 0 87 100 100 100 100 96 24
99 85 5 11 5 83 5 5 16 100 6 4 85 7 76 67 2 0 32 4 5 5 2 43 30 100 83 24 82 6 88 84 5 21 49 35 0 0 0 0 8 100 100 19 81
100 99 5 16 100 46 5 29 9 100 8 5 5 41 100 73 66 40 3 5 5 5 45 70 89 99 100 100 49 96 71 86 0 10 5 73 2 0 0 0 0 95 100 100 100
100 100 96 86 94 76 90 97 98 50 93 32 5 7 25 100 100 71 5 5 5 5 5 5 33 49 78 100 95 20 29 4 5 5 14 5 2 0 0 0 6 100 98 82 100
100 100 100 100 96 48 98 100 98 66 100 100 45 93 6 41 35 100 68 43 15 56 85 82 86 16 5 98 57 15 25 3 5 0 33 5 10 0 0 0 6 78 100 94 100
100 100 100 100 82 19 75 56 91 95 100 97 100 65 55 18 5 16 6 5 39 75 100 100 100 82 97 30 5 5 20 90 5 34 39 5 1 0 0 0 55 100 100 97 100
100 100 100 100 95 100 97 100 98 46 100 100 87 100 88 97 47 30 8 32 63 91 99 81 66 79 73 13 23 59 41 51 42 87 48 2 4 2 5 0 97 98 28 79 100
100 100 100 98 100 72 88 54 67 100 100 100 73 93 99 100 86 99 84 67 100 100 83 99 6 73 36 94 100 100 65 4 18 9 100 74 17 16 0 19 98 16 5 18 16
100 100 100 99 100 73 100 100 98 100 100 63 97 100 96 100 100 100 100 100 100 99 100 94 80 100 99 42 93 88 1 31 83 95 79 69 4 0 0 5 2 54 5 76 5
100 100 100 100 100 80 100 100 100 100 100 82 100 65 98 100 93 88 86 100 100 100 100 99 100 96 96 86 18 14 1 62 100 100 64 78 68 0 0 66 61 42 25 55 10
100 100 100 100 100 100 100 89 100 100 67 72 86 79 88 100 98 100 100 100 100 100 100 27 100 100 99 100 21 4 91 93 64 100 99 54 41 0 0 80 1 5 5 21 83
100 100 100 100 100 100 100 100 100 100 64 94 100 89 100 100 100 96 57 57 80 100 100 100 93 100 100 63 60 100 100 100 100 100 91 0 16 0 0 5 5 5 5 5 50
100 100 100 100 100 100 100 100 100 69 100 100 100 100 100 100 100 26 95 100 99 100 100 100 100 100 98 73 99 100 100 100 76 100 54 6 12 0 1 86 10 5 5 5 24
100 100 100 100 100 100 100 100 68 100 99 100 100 100 100 97 66 31 92 100 100 75 100 100 100 100 100 100 100 100 100 100 99 87 66 6 4 0 4 5 40 5 5 28 7
100 100 100 100 100 100 100 100 97 100 100 100 100 99 100 99 72 100 98 100 100 100 82 100 100 100 100 100 100 100 100 99 80 54 21 76 10 0 0 5 5 42 5 8 5
100 100 100 100 100 100 100 100 100 100 100 100 100 100 100 92 94 100 89 85 100 100 100 100 100 100 100 100 100 100 100 46 32 44 83 94 76 3 3 5 5 5 5 5 5
100 100 100 100 100 100 100 100 100 100 100 100 100 100 100 100 100 72 100 100 100 100 100 100 100 100 100 100 100 100 100 83 97 80 100 100 4 0 0 0 3 5 5 5 5
100 100 100 100 100 100 100 100 100 100 100 100 100 100 99 60 100 100 100 100 100 100 100 100 100 100 100 100 100 100 100 100 89 98 100 95 64 5 0 0 1 4 5 3 0
100 100 100 100 100 100 100 100 100 100 100 100 100 100 100 30 88 100 100 100 100 100 100 100 100 100 100 100 100 100 100 38 68 100 100 38 5 5 0 0 0 0 2 1 4
100 100 100 100 100 100 100 100 100 100 100 100 100 100 34 80 44 100 100 100 100 100 100 100 100 100 100 100 99 100 100 95 5 22 5 35 5 5 5 4 0 0 5 5 5
100 100 100 100 100 100 100 100 100 100 100 100 100 93 73 94 5 6 100 100 100 100 100 100 100 100 100 100 100 100 100 45 5 5 5 5 5 80 12 5 2 5 3 1 0
100 100 100 100 100 100 100 100 100 100 100 100 100 100 70 13 66 100 100 87 100 100 100 100 98 97 100 100 100 100 100 99 100 40 40 46 84 61 20 14 5 5 1 3 0

GFSSW_prec_cloud_027.txt.gz
Cloud_Cover
100 100 98 5 1 0 2 12 0 0 0 29 90 100 100 100 69 14 7 0 0 0 0 0 0 0 0 0 0 0 0 0 0 0 0 0 7 100 81 100 100 100 8 5 80
100 100 100 18 5 5 16 74 0 0 0 0 0 26 97 98 100 56 0 0 0 0 0 0 0 0 0 0 0 0 0 0 0 0 0 0 3 54 100 100 100 100 39 5 69
100 100 100 16 17 5 25 100 5 2 3 0 0 0 0 42 29 0 0 0 0 8 0 0 0 0 0 0 0 0 0 0 0 0 0 0 5 5 89 100 100 100 94 6 94
100 100 100 100 71 38 84 100 10 5 4 0 0 0 0 0 44 0 0 0 0 1 0 0 0 0 0 0 0 36 0 0 0 0 0 0 5 4 43 27 96 41 99 60 7
100 100 100 100 100 100 53 100 98 59 40 4 2 2 2 2 16 0 0 0 0 0 0 17 0 5 0 0 0 0 0 0 0 0 0 0 1 0 0 8 5 5 84 25 29
100 100 100 100 100 100 60 70 72 82 5 5 5 5 2 54 0 0 0 0 0 0 0 0 2 1 17 0 18 1 1 0 0 0 0 0 2 1 0 0 4 5 78 78 12
100 100 100 100 100 100 100 96 100 100 18 5 5 68 47 3 0 0 0 0 0 0 0 11 35 35 53 5 3 6 7 4 0 0 0 0 1 5 0 0 0 0 100 100 98
100 100 100 100 100 100 100 100 100 48 32 8 12 12 90 6 0 0 0 0 0 1 3 2 16 6 68 8 2 5 5 5 3 4 4 98 1 0 0 0 0 0 94 100 100
100 100 100 100 100 100 100 100 100 87 98 100 41 100 100 82 5 0 0 0 0 5 5 5 6 29 4 30 29 6 44 17 3 5 5 48 3 0 0 0 0 0 4 80 88
100 100 100 100 100 100 100 100 100 98 98 100 100 100 100 96 5 5 2 1 0 2 57 68 83 34 12 43 89 60 65 46 5 2 8 5 5 0 0 0 0 0 0 0 0
100 100 100 100 99 100 100 100 100 100 100 84 77 100 100 78 17 5 5 5 5 8 55 8 21 43 32 5 34 7 5 63 4 5 3 2 5 0 0 0 0 0 0 0 4
58 100 100 83 17 49 90 100 100 100 90 100 81 100 100 98 100 15 47 5 42 73 76 20 71 92 71 7 5 6 8 6 2 5 22 3 0 0 0 0 0 0 0 0 13
100 100 100 92 89 70 87 100 62 100 100 100 100 100 100 89 100 47 65 72 45 96 99 34 5 95 85 89 8 31 90 5 5 18 5 5 5 0 0 0 0 0 0 0 5
100 100 100 100 33 50 100 69 100 100 100 88 100 100 100 100 100 97 100 100 100 69 100 73 51 51 97 45 12 5 37 56 24 95 99 98 86 0 0 0 0 0 0 0 25
100 100 100 100 53 81 71 92 100 100 79 88 100 100 100 100 100 93 92 100 100 99 100 84 99 100 100 85 100 100 100 100 76 51 100 80 100 6 0 0 0 0 0 4 91
100 100 100 100 100 80 85 53 77 64 100 100 100 64 84 100 100 100 93 100 100 100 100 96 100 100 100 100 100 100 99 68 61 55 100 100 100 21 0 0 0 0 0 4 48
100 100 100 100 100 95 98 40 97 84 100 82 86 93 100 85 92 79 100 100 100 100 86 100 100 96 98 89 98 100 100 91 91 97 60 14 94 66 0 0 0 0 0 23 6
100 100 100 100 100 100 100 92 95 100 100 91 86 100 100 91 84 25 84 100 90 86 87 75 64 78 85 55 100 14 60 85 43 2 47 100 100 2 0 0 0 0 0 67 24
100 100 100 100 100 100 100 100 100 64 96 100 100 100 100 100 99 46 43 33 59 11 90 100 100 100 100 100 97 14 98 8 80 100 100 100 100 9 0 0 0 0 0 46 12
100 100 100 100 100 100 100 99 100 100 100 100 100 100 100 100 74 83 5 2 6 70 100 100 100 100 100 100 100 98 17 100 100 100 100 100 100 0 0 0 0 2 5 15 5
100 100 100 100 100 100 100 100 100 100 100 100 100 100 100 100 21 5 12 96 100 100 100 100 100 100 100 100 100 100 100 100 100 100 100 100 62 0 3 5 1 0 0 5 14
100 100 100 100 100 100 100 100 100 100 100 100 100 100 100 100 50 99 100 100 100 100 100 100 100 100 100 100 100 100 100 100 100 100 100 90 69 0 5 5 2 0 0 5 5
100 100 100 100 100 100 100 100 100 100 100 100 100 100 100 78 99 95 100 100 100 100 100 100 100 100 100 100 100 100 100 100 100 100 100 100 84 87 22 2 0 2 5 5 5
100 100 100 100 100 100 100 100 100 100 100 100 100 100 100 93 95 83 96 100 100 100 100 100 100 100 100 100 100 100 100 100 100 100 100 100 100 76 5 5 5 0 3 5 5
100 100 100 100 100 100 100 100 100 100 100 100 100 100 100 83 6 8 45 100 100 100 100 100 100 100 100 100 100 100 100 100 100 100 100 100 100 100 18 2 0 0 0 2 5
100 100 100 100 100 100 100 100 100 100 100 100 100 100 100 76 5 100 100 100 100 100 100 100 100 100 100 100 100 100 87 100 100 100 100 100 100 100 14 4 0 0 3 5 5
100 100 100 100 100 100 100 100 100 100 100 100 100 100 100 89 19 59 95 99 100 100 100 100 100 100 100 100 100 100 100 100 100 100 100 67 80 5 5 4 4 5 5 5 1

GFSSW_prec_cloud_030.txt.gz
Cloud_Cover
4 7 4 100 100 100 100 8 5 0 0 30 100 100 100 100 38 66 13 0 0 0 0 0 0 0 0 0 0 0 3 2 0 0 0 0 0 0 0 0 45 100 90 71 58
100 100 20 96 100 100 100 98 8 3 3 64 5 69 100 100 100 43 0 7 0 0 0 0 0 0 0 0 0 0 27 0 0 0 0 1 3 0 0 0 0 52 100 88 8
100 100 100 100 100 100 100 100 97 5 5 10 66 80 27 5 6 0 0 0 0 20 0 0 0 0 0 0 0 0 27 0 0 0 0 0 0 0 0 0 0 0 48 99 99
100 100 100 100 100 100 100 100 100 5 26 90 98 100 14 5 0 0 0 0 0 30 9 0 0 0 0 0 0 0 0 0 0 0 0 0 0 0 0 0 0 0 0 36 99
100 100 100 100 100 100 100 100 100 96 61 100 100 100 80 24 22 6 0 0 0 0 0 11 0 0 2 0 0 0 0 0 0 0 0 0 0 0 0 0 0 0 0 0 26
100 100 100 100 100 100 100 100 100 100 100 100 100 100 100 80 12 11 5 2 0 0 0 0 0 0 0 2 0 0 0 0 0 0 0 0 0 0 0 0 0 0 0 0 13
100 100 100 100 100 100 100 100 100 100 100 100 100 100 100 35 24 5 5 5 1 0 0 0 3 0 1 4 3 0 0 0 0 0 0 0 0 0 0 0 0 0 0 0 0
100 100 100 100 100 100 100 100 100 100 100 100 100 100 100 100 68 14 5 5 3 5 2 0 0 20 80 6 4 9 2 3 0 0 0 16 3 0 0 0 0 0 0 0 0
82 100 100 100 100 100 100 100 100 100 100 100 100 100 100 100 92 5 5 80 34 4 0 27 58 7 12 57 43 6 21 5 5 0 0 0 0 0 0 0 0 0 0 0 0
15 49 100 100 100 100 100 100 100 100 100 100 100 100 100 100 100 60 50 37 97 5 1 0 65 100 26 29 39 20 5 5 4 2 0 0 0 0 0 0 0 0 0 0 0
25 7 100 100 100 100 100 100 100 100 100 100 100 100 100 100 100 100 76 69 15 5 5 3 23 13 10 3 5 5 5 5 5 5 4 4 5 5 5 0 0 0 0 0 0
61 8 98 100 100 100 100 100 100 100 100 100 100 100 100 100 100 100 11 43 36 8 5 42 98 22 0 0 0 7 12 14 5 5 50 25 2 0 0 0 0 0 0 0 0
97 70 30 99 100 100 98 21 32 73 98 100 99 99 100 100 100 100 90 17 36 90 22 55 11 9 17 12 6 5 47 33 20 5 3 97 8 0 0 0 0 0 0 0 0
100 86 100 100 100 56 100 5 10 97 100 100 100 92 100 100 100 100 100 100 96 35 58 100 93 100 99 9 74 8 67 48 7 74 36 48 45 0 0 0 0 0 0 1 0
100 100 98 100 100 23 5 5 78 100 5 100 100 86 100 100 100 100 82 100 100 70 45 72 31 98 56 55 100 50 100 84 74 100 89 7 91 6 0 0 0 0 0 0 0
100 100 100 100 76 90 66 89 95 94 42 82 89 75 79 100 100 100 100 100 100 100 100 99 100 68 96 100 100 73 100 100 100 100 92 1 19 0 0 0 0 0 0 0 0
100 100 100 99 100 99 90 100 84 84 100 85 56 40 11 97 100 100 100 100 100 100 99 89 100 100 100 100 100 100 100 100 100 100 36 4 3 0 0 0 0 0 0 0 0
100 100 100 100 93 100 98 100 86 100 100 55 95 99 86 100 100 100 100 100 93 77 98 69 28 100 35 79 100 100 100 100 100 75 4 95 10 0 2 0 0 0 0 0 0
100 100 100 100 100 98 100 99 55 100 100 94 100 100 100 97 100 100 100 25 9 89 80 16 44 12 58 6 35 17 98 100 100 100 100 67 0 52 88 0 0 0 0 0 0
100 100 100 100 100 100 100 52 68 100 36 87 65 100 100 100 100 100 27 5 5 5 5 48 83 100 100 100 89 88 72 96 100 83 69 3 1 5 24 0 0 0 0 0 0
100 100 100 100 100 100 100 100 100 90 5 84 79 100 100 100 100 90 44 10 43 52 100 100 100 100 100 100 100 100 92 98 5 3 36 51 7 11 68 4 4 0 8 4 0
100 100 100 100 100 100 100 100 81 5 95 99 100 100 100 100 100 100 32 98 100 100 100 100 100 100 100 100 100 100 76 37 99 98 100 100 100 100 99 100 100 100 100 73 0
100 100 100 100 100 100 100 100 49 99 98 100 100 100 100 100 100 67 100 100 100 100 100 100 100 100 100 100 100 100 100 100 100 100 100 100 100 100 100 84 41 100 100 5 0
100 100 100 100 100 91 99 98 100 100 100 100 100 100 100 100 100 88 100 100 100 100 100 100 100 100 100 100 100 100 100 100 100 100 100 100 100 100 72 76 99 100 79 4 2
100 100 100 100 100 100 100 100 100 100 100 100 100 100 100 100 100 93 100 100 100 100 100 100 100 100 100 100 100 100 100 100 100 100 100 100 100 100 100 100 100 99 5 5 5
100 100 94 100 100 100 100 100 100 100 100 100 100 100 100 100 15 10 100 97 100 100 100 100 100 100 100 100 100 100 100 100 100 100 100 100 100 100 100 100 100 99 6 5 5
100 100 69 75 100 100 100 100 100 100 100 100 100 100 100 100 54 5 71 100 100 100 100 100 100 100 100 100 100 100 100 100 100 100 100 100 100 100 100 100 100 26 5 5 6

GFSSW_prec_cloud_033.txt.gz
Cloud_Cover
0 2 5 3 4 5 7 91 100 100 100 100 24 99 100 100 77 100 100 0 0 0 0 0 0 0 0 0 0 0 0 3 0 0 0 0 0 0 0 0 0 0 4 91 100
82 1 5 5 5 5 25 50 80 100 100 100 82 82 97 100 96 100 3 0 0 0 0 0 0 0 0 0 0 0 31 0 0 0 0 0 0 0 0 0 0 0 0 0 52
100 49 5 1 11 3 15 83 99 84 100 100 100 5 86 37 72 17 1 0 0 6 0 0 0 0 0 0 0 0 20 0 0 0 0 0 0 0 0 0 0 0 0 0 0
100 100 100 66 6 7 56 100 66 100 100 100 100 10 9 100 100 30 19 5 0 54 53 3 0 0 0 0 0 0 0 0 0 0 0 0 0 0 0 0 0 0 0 0 0
100 100 100 100 93 94 100 100 100 100 100 100 100 92 56 88 97 100 24 5 6 18 38 50 0 0 0 0 0 0 0 0 0 0 0 0 0 0 0 0 0 0 0 0 0
100 100 100 100 100 100 100 100 100 100 100 100 100 100 100 78 95 99 95 100 99 31 4 12 0 0 2 0 0 0 0 0 0 0 0 0 0 0 0 0 0 0 0 0 0
100 100 100 100 100 100 100 100 100 100 100 100 100 100 100 100 88 100 100 100 100 98 5 1 5 4 52 0 3 2 1 0 0 0 0 0 0 0 0 0 0 0 0 0 0
100 100 99 100 100 100 100 100 100 100 100 100 100 100 100 100 100 100 100 100 100 100 40 5 44 63 99 75 11 38 9 1 0 0 0 0 0 0 0 0 0 0 0 0 0
100 99 87 77 100 100 100 100 100 100 100 100 100 100 100 84 86 100 100 100 100 100 99 10 91 9 76 69 88 5 8 4 3 0 0 0 0 0 0 0 0 0 0 0 0
100 96 100 100 90 100 100 100 100 100 100 100 100 100 100 100 100 100 100 100 100 100 100 49 48 36 97 99 37 5 54 78 5 0 0 0 0 0 0 0 0 0 0 0 0
100 100 100 94 100 100 100 96 100 100 100 100 100 100 100 100 100 100 100 100 100 100 100 10 15 26 5 5 5 4 7 36 5 5 4 0 3 0 0 0 0 0 0 0 0
100 100 100 74 86 100 100 60 93 100 100 100 100 100 100 100 100 100 100 100 98 93 100 47 33 5 12 5 5 6 89 54 5 5 5 3 0 0 0 0 0 0 0 0 0
100 100 100 100 68 100 100 56 5 62 39 64 81 100 100 99 100 100 68 23 72 40 23 25 6 19 18 5 10 5 30 54 10 4 0 3 0 0 0 0 0 0 0 0 0
100 96 100 100 100 100 100 7 5 57 91 98 69 90 100 94 73 100 100 52 76 20 24 94 72 22 5 5 34 100 8 5 5 26 43 4 15 0 0 0 0 0 0 0 0
56 100 100 100 100 100 100 85 7 85 60 60 100 82 100 100 84 24 62 99 100 100 74 70 100 50 73 6 58 70 50 84 42 6 10 4 52 0 0 0 0 0 0 0 0
14 98 100 100 100 98 100 90 51 69 80 94 99 100 100 100 100 44 76 100 100 100 100 100 100 90 6 5 5 50 100 100 100 100 97 5 17 0 2 3 0 0 0 0 0
34 100 100 100 100 100 100 85 100 99 88 96 98 100 100 100 100 100 76 100 100 100 100 100 100 100 78 11 5 38 100 100 100 100 50 46 15 0 49 1 4 0 0 0 0
100 100 100 100 100 100 100 64 86 80 96 100 96 94 100 82 100 100 100 100 100 100 100 82 42 98 85 53 15 11 80 100 100 100 55 46 7 0 100 81 49 3 0 0 0
100 100 100 100 100 100 100 97 80 99 100 100 98 100 99 37 100 100 100 100 99 86 84 94 56 0 4 5 27 98 100 71 100 100 100 58 1 0 14 100 98 5 4 0 0
100 100 100 100 100 100 100 53 100 100 100 96 27 100 100 100 93 100 62 96 81 65 28 48 72 35 100 100 100 100 100 100 100 98 100 8 2 0 19 100 41 5 5 0 0
100 100 100 100 100 100 100 95 100 100 100 12 80 100 100 100 88 65 96 73 100 100 100 100 100 100 100 100 100 100 100 100 100 91 93 76 2 90 99 100 27 5 4 0 0
100 100 100 100 100 100 100 100 100 100 100 33 68 100 94 88 100 100 100 100 100 56 78 61 100 100 100 100 100 100 100 100 100 100 42 48 88 100 100 100 76 95 26 4 0
100 100 100 100 100 100 100 42 87 96 91 63 83 83 99 100 100 100 100 97 95 82 63 100 100 100 100 100 100 100 100 100 100 100 5 17 100 100 100 99 26 100 100 59 57
100 100 100 100 100 100 100 100 80 96 22 54 96 94 100 100 100 100 100 35 98 100 100 100 100 100 100 100 100 100 100 100 100 37 5 60 62 99 68 3 5 77 100 100 92
100 100 100 100 100 100 100 24 95 99 80 98 100 100 100 100 99 100 99 66 100 100 100 100 100 100 100 100 100 100 100 100 100 100 100 100 100 100 100 96 84 57 100 100 52
100 100 100 100 100 100 100 61 100 80 98 100 100 100 100 100 100 100 100 100 51 100 100 100 100 100 100 100 100 100 100 100 100 100 100 100 100 100 100 91 100 100 100 100 100
100 100 100 100 100 100 100 100 98 68 100 98 98 100 100 100 100 100 100 100 100 100 100 100 100 100 100 100 100 100 100 100 100 100 100 100 100 100 100 100 100 100 100 100 100

GFSSW_prec_cloud_036.txt.gz
Cloud_Cover
100 43 94 99 100 58 10 16 5 24 100 100 100 100 100 100 94 100 84 4 0 0 0 0 0 0 0 0 0 0 0 2 0 0 0 0 0 0 0 0 0 0 0 0 5
95 100 32 5 27 5 23 9 38 55 12 91 100 100 100 100 100 100 6 4 0 0 0 0 0 0 0 0 0 0 30 0 0 0 0 0 0 0 0 0 0 0 0 0 0
64 98 99 36 5 5 5 5 42 96 91 24 18 99 100 100 100 87 98 6 4 38 23 0 0 0 0 0 0 0 11 0 0 0 0 0 0 0 0 0 0 0 0 0 0
100 50 95 100 100 93 6 64 5 41 100 100 100 100 100 100 100 100 49 100 87 5 61 54 0 0 0 0 0 0 0 0 0 0 0 0 0 0 0 0 0 0 0 0 0
100 100 100 100 100 100 99 32 42 70 86 98 100 100 95 100 100 100 100 97 100 39 30 92 37 0 0 0 0 0 0 0 0 0 0 0 0 0 0 0 0 0 0 0 0
100 100 100 100 100 100 97 24 6 7 52 17 95 100 100 100 100 100 100 52 80 84 64 92 19 4 1 0 0 7 0 0 0 0 0 0 0 0 0 0 0 0 0 0 0
100 100 100 100 100 100 100 96 28 8 4 6 34 87 100 100 100 100 100 83 35 79 92 96 98 100 98 9 13 6 0 0 0 0 0 0 0 0 0 0 0 0 0 0 0
100 100 100 100 100 100 100 100 100 100 68 90 100 100 100 100 100 100 100 100 6 45 7 24 100 100 22 52 54 90 84 30 0 0 0 0 0 0 0 0 0 0 0 0 0
100 100 100 100 100 100 100 100 100 100 100 100 100 100 100 100 100 100 82 100 83 24 12 24 96 100 88 44 37 75 11 26 4 0 0 0 0 0 0 0 0 0 0 0 0
100 100 100 100 100 100 100 100 100 100 100 100 100 100 100 100 100 100 100 100 100 100 100 97 94 78 100 100 100 16 44 5 4 0 0 0 0 0 0 0 0 0 0 0 0
46 100 100 100 100 98 99 100 100 100 100 100 100 100 100 100 100 100 100 100 100 100 100 100 94 100 100 100 99 24 39 72 66 5 7 4 0 0 0 0 0 0 0 0 0
5 91 100 100 100 100 100 100 100 100 100 100 100 100 100 100 100 100 100 100 100 99 100 100 100 100 100 74 5 5 72 66 8 2 0 0 0 0 0 0 0 0 0 0 0
41 6 100 100 100 100 100 100 82 100 100 100 98 100 100 100 99 98 42 68 82 100 100 100 93 99 57 58 24 5 50 52 19 2 0 2 0 0 0 0 0 0 0 0 0
100 50 100 100 100 100 100 100 100 100 76 100 100 98 57 100 100 100 100 100 100 46 10 37 79 6 5 28 9 97 12 6 31 53 69 3 15 0 0 0 0 0 0 0 0
100 99 96 100 100 100 100 100 100 99 71 45 72 98 100 99 100 100 44 97 80 61 26 30 5 10 74 8 79 53 6 8 52 64 72 36 57 0 0 0 0 0 0 0 0
100 95 15 100 100 100 100 100 100 55 64 74 98 99 100 100 100 93 100 92 100 100 100 83 73 76 34 5 28 70 88 98 91 100 98 5 31 0 0 0 0 2 0 0 0
91 53 79 94 100 100 100 100 100 96 31 73 100 100 100 100 100 100 100 100 88 100 100 100 84 99 100 98 53 86 100 99 100 100 34 36 64 0 0 0 1 1 5 5 5
60 6 46 100 100 100 99 100 99 51 100 100 100 100 100 100 100 100 100 100 99 100 98 99 11 92 98 82 22 31 40 46 71 23 5 5 38 0 0 0 38 5 57 65 12
27 80 11 93 100 100 100 100 15 100 100 100 100 100 100 91 81 71 100 100 100 100 100 83 65 3 7 58 58 88 99 53 94 7 100 8 2 0 0 0 3 80 2 57 31
40 85 100 100 100 100 100 100 74 100 100 100 100 100 100 100 100 100 100 100 96 55 99 87 66 66 96 98 73 69 100 100 100 100 100 10 4 0 0 0 5 100 6 27 8
76 100 100 100 100 100 100 100 100 100 100 100 98 99 100 100 100 100 100 100 78 1 81 70 99 100 93 82 98 100 100 100 100 100 100 43 51 68 1 2 92 100 62 4 22
100 100 100 100 100 100 100 100 100 100 100 100 89 73 98 100 100 100 100 33 24 5 100 100 100 100 100 81 100 100 100 100 100 100 100 100 12 61 98 57 100 100 100 8 5
100 100 100 100 100 100 100 71 100 100 100 98 58 73 91 100 100 100 100 94 10 50 100 100 100 93 84 100 100 100 100 100 100 100 93 34 35 100 100 100 100 100 100 66 57
100 100 100 100 100 100 100 100 85 100 100 73 89 98 97 100 100 100 99 78 100 100 100 100 100 100 78 97 100 100 100 100 100 100 57 66 95 100 100 100 100 100 100 100 8
100 100 100 100 100 100 100 100 93 22 100 41 52 59 99 100 100 100 95 100 100 100 100 100 100 99 100 100 100 100 100 100 100 100 94 25 99 100 100 100 100 100 79 99 88
100 100 100 100 100 100 100 100 96 6 93 81 53 87 100 100 100 100 100 100 100 100 100 100 100 100 100 100 100 100 100 100 100 100 100 13 39 63 89 100 100 46 92 100 100
100 100 100 100 100 100 100 92 85 14 40 5 56 100 100 98 100 100 100 100 100 100 100 100 100 100 100 100 100 100 100 100 100 100 90 64 100 100 100 60 34 66 100 100 100

GFSSW_prec_cloud_039.txt.gz
Cloud_Cover
100 100 100 100 100 39 5 6 5 0 2 60 100 100 100 100 100 100 100 38 10 83 40 5 5 5 5 0 0 0 0 0 0 0 0 0 0 0 0 0 0 0 0 0 0
79 82 100 100 100 100 59 36 56 5 5 4 5 100 100 100 100 100 100 100 80 38 33 25 6 8 9 5 4 0 12 0 0 0 0 0 0 0 0 0 0 0 0 0 0
100 100 97 93 100 59 98 58 14 19 5 5 5 6 100 100 100 100 100 100 100 95 84 83 5 5 14 73 4 0 14 0 0 0 0 0 0 0 0 0 0 0 0 0 0
78 99 100 100 10 92 11 10 1 15 79 50 69 34 32 100 100 100 100 100 100 100 100 71 8 3 0 5 0 0 0 0 0 0 0 0 0 0 0 0 0 0 0 0 0
100 98 100 100 87 86 76 12 6 5 35 47 81 100 63 66 65 100 100 100 100 100 100 99 90 14 5 0 0 0 0 0 0 0 0 0 0 0 0 0 0 0 0 0 0
100 98 100 84 100 100 73 100 45 22 5 6 72 100 96 87 57 98 54 52 100 100 100 100 73 70 48 3 0 0 0 0 0 0 0 0 0 0 0 0 0 0 0 0 0
100 100 100 94 100 100 100 100 100 100 41 14 31 100 100 100 100 93 80 86 79 96 100 100 100 68 76 23 26 0 10 2 5 0 0 0 0 0 0 0 0 0 0 0 0
100 100 100 100 100 90 100 100 100 100 80 78 47 100 100 100 99 100 98 100 90 73 100 100 100 68 66 14 57 68 37 51 8 0 0 0 0 0 0 0 0 0 0 0 0
78 87 100 100 100 100 100 100 100 100 100 100 78 100 96 100 98 100 100 100 100 98 100 100 47 25 73 70 14 23 43 100 93 18 2 0 0 0 0 0 0 0 0 0 0
70 6 90 100 100 100 100 100 100 98 59 100 100 96 25 72 94 100 100 100 100 100 100 90 53 20 95 63 14 17 96 100 100 100 73 3 0 0 0 0 0 0 0 0 0
44 50 0 100 100 100 100 100 100 100 100 100 100 71 48 67 100 100 100 100 100 100 100 100 62 90 95 48 70 60 19 87 57 94 100 50 0 0 0 0 0 0 0 0 0
100 90 8 92 100 100 100 100 100 100 100 100 100 100 100 100 100 100 100 100 100 100 100 100 98 82 100 100 100 43 27 36 7 7 2 2 0 0 0 0 0 0 0 0 0
100 93 39 2 100 100 100 100 100 100 100 100 100 100 100 100 100 100 100 100 100 100 100 100 100 100 100 100 81 86 80 96 37 8 5 5 0 0 0 0 0 0 0 0 0
99 72 86 100 66 100 100 100 100 100 93 100 100 100 100 100 100 100 100 100 100 100 100 100 100 74 70 92 100 100 56 5 5 84 94 4 4 0 0 0 0 0 0 0 0
100 100 96 100 95 100 100 100 100 100 82 96 100 100 100 100 100 100 100 58 53 99 100 100 100 100 100 99 33 59 6 5 6 77 81 85 100 0 0 0 4 0 0 0 0
97 92 22 62 86 100 100 100 100 100 58 95 99 100 100 100 100 100 100 100 100 100 99 100 100 95 43 25 12 68 28 78 96 100 88 4 59 0 0 5 34 5 0 0 0
94 86 100 98 94 100 100 100 100 78 14 100 100 100 100 100 100 100 100 99 99 99 93 99 67 94 97 93 100 100 100 86 75 99 38 0 15 0 0 1 2 49 0 0 0
97 100 100 51 100 100 100 100 98 100 90 100 100 100 100 100 100 100 100 100 100 100 97 98 100 25 26 43 74 100 100 40 26 48 5 4 4 0 0 0 0 40 22 0 0
65 98 100 2 100 100 100 100 100 100 100 100 100 100 100 100 100 100 100 100 98 93 88 99 89 32 5 5 38 61 96 11 35 17 83 3 0 0 0 0 0 1 99 8 0
79 15 73 5 100 100 100 100 100 100 100 100 100 100 100 100 81 90 68 96 66 98 100 89 100 22 5 13 10 10 61 99 100 100 100 19 31 83 2 12 0 1 17 97 1
100 65 99 89 100 100 100 100 100 100 100 100 100 100 100 97 99 100 100 100 100 100 73 100 100 45 96 63 96 100 100 100 100 100 100 100 84 93 6 72 3 1 4 80 1
100 100 97 100 100 100 100 100 100 100 100 100 100 100 100 100 100 100 100 100 100 100 75 91 99 76 17 100 100 86 87 100 100 100 100 100 20 100 86 28 5 78 37 28 4
100 100 100 100 100 100 100 100 100 100 100 100 100 100 100 100 100 100 100 100 100 56 100 48 92 78 100 96 98 92 100 100 100 100 100 100 100 100 12 98 100 100 100 26 6
100 100 100 100 100 100 100 100 100 100 100 100 100 100 100 100 100 100 100 100 94 72 91 88 89 100 99 99 100 100 100 100 100 100 99 79 52 46 83 100 100 100 100 76 7
100 100 100 100 100 100 96 100 100 100 100 100 100 100 100 100 100 100 100 100 37 84 66 100 100 100 100 87 100 100 100 100 100 76 100 97 75 92 100 100 100 100 100 100 84
100 100 100 100 100 100 100 100 99 90 69 93 87 94 100 100 100 100 100 99 43 30 69 100 100 93 100 100 100 100 100 100 100 100 100 50 45 100 100 100 100 100 100 100 100
100 100 100 100 100 100 100 100 98 100 68 69 100 100 100 100 100 100 100 89 54 76 85 100 100 100 88 100 100 99 100 100 100 100 100 100 94 100 100 100 100 100 100 100 100

GFSSW_prec_cloud_042.txt.gz
Cloud_Cover
100 99 100 100 100 100 100 100 18 89 8 1 0 83 100 100 100 100 100 100 100 100 100 100 97 50 37 31 6 3 0 5 2 0 0 0 0 0 0 0 0 0 0 0 0
98 41 100 100 100 100 100 100 100 100 100 90 5 1 80 100 100 100 100 100 100 100 100 72 5 5 26 5 28 5 5 3 0 0 0 0 0 0 0 0 0 0 0 0 0
100 94 98 100 100 80 100 100 100 99 100 100 85 5 12 97 100 100 100 100 100 100 100 23 17 5 97 20 33 21 14 0 0 0 0 0 0 0 0 0 0 0 0 0 0
98 100 96 99 100 100 100 100 100 100 100 100 100 76 5 8 85 100 100 100 100 100 100 100 100 7 21 61 81 77 5 5 5 2 1 0 0 0 0 0 0 0 0 0 0
100 100 100 82 97 99 100 98 100 91 100 99 20 14 78 6 10 87 100 100 100 100 100 100 100 98 82 99 94 79 36 25 5 0 0 0 0 0 0 0 0 0 0 0 0
100 99 97 100 96 100 92 100 100 100 100 62 6 5 12 95 7 62 67 100 100 100 100 100 100 100 100 79 97 92 17 5 5 0 0 0 0 0 0 0 0 0 0 0 0
100 100 99 100 100 100 99 99 100 100 100 100 65 5 3 5 85 94 89 83 100 100 100 100 100 100 100 100 25 44 45 5 5 5 0 0 0 0 0 0 0 0 0 0 0
100 87 20 80 100 100 100 100 100 100 95 52 30 70 12 2 80 100 100 92 68 100 100 100 100 100 100 100 100 26 58 20 5 5 4 0 3 0 0 0 0 0 0 0 0
76 10 29 5 71 100 100 100 100 100 99 100 100 100 100 100 60 100 100 100 97 95 100 100 100 100 100 100 100 40 30 41 58 5 5 1 1 5 5 3 0 0 0 0 0
92 8 15 66 5 100 100 100 100 100 100 100 100 100 100 100 35 84 100 100 100 100 100 99 59 63 40 8 7 5 10 29 8 34 5 5 9 100 58 8 4 0 0 0 0
16 51 98 87 6 46 100 100 100 100 100 100 100 100 100 100 98 76 70 100 100 100 100 81 96 99 5 5 5 23 19 7 64 51 5 5 5 99 100 100 100 17 4 0 0
4 96 100 100 18 68 100 100 100 100 100 100 100 100 100 100 100 100 100 100 100 100 100 100 100 95 72 32 22 27 16 6 5 20 5 6 6 5 88 92 90 89 35 5 0
12 100 100 100 40 9 100 100 100 100 100 100 100 100 95 36 40 94 100 100 100 100 100 100 100 100 100 100 80 50 16 46 24 5 5 5 7 5 5 57 94 95 57 4 5
95 35 99 100 56 65 100 100 100 100 100 100 100 98 58 84 85 70 86 97 100 100 100 100 100 100 100 100 100 100 100 32 24 74 39 48 1 5 5 83 75 9 5 0 0
95 85 68 100 45 32 100 100 100 100 100 100 100 96 93 50 99 100 100 100 100 100 100 100 100 100 100 100 100 97 66 54 100 100 99 34 94 0 12 41 6 3 0 0 0
99 100 37 84 84 100 100 100 100 100 82 96 100 100 100 99 100 100 100 100 100 100 100 100 100 100 90 82 24 75 56 77 98 99 79 5 33 0 25 4 1 0 0 0 0
100 100 100 79 100 100 100 100 100 100 66 100 100 100 100 100 100 100 100 100 100 100 100 100 91 50 40 92 63 99 98 81 76 99 5 0 2 0 5 0 0 0 0 0 0
100 94 100 41 65 99 100 100 100 93 74 100 100 100 100 100 100 100 100 100 100 100 100 64 59 60 97 91 83 100 100 16 5 8 5 2 1 0 0 0 0 0 0 0 0
100 100 100 26 48 96 100 100 100 74 100 100 100 100 100 100 100 100 100 100 100 100 98 100 100 100 15 45 51 98 93 47 96 83 55 1 0 0 1 4 4 0 0 0 0
100 86 38 2 46 100 100 100 100 96 100 100 100 100 100 100 100 100 100 100 98 86 95 100 98 13 9 24 9 93 58 88 99 84 68 5 4 4 98 100 69 5 0 0 0
100 96 87 7 95 100 100 100 100 100 100 100 100 100 100 100 94 100 100 98 90 58 91 98 71 100 37 33 24 98 100 84 99 87 99 87 7 100 23 100 100 47 16 0 0
100 100 26 92 100 100 100 100 100 100 100 100 100 74 68 96 73 22 10 8 22 43 80 88 100 86 42 99 22 8 64 95 100 94 100 100 41 60 93 100 9 6 5 90 4
100 100 100 100 100 100 100 100 100 100 100 100 100 100 100 100 100 96 53 75 99 100 100 81 81 100 16 43 30 77 100 100 100 100 100 100 63 100 57 100 85 88 64 99 74
100 100 100 100 100 100 100 100 100 100 100 96 100 100 100 100 100 96 80 100 100 87 91 95 100 71 9 74 97 90 100 100 100 100 99 80 100 97 99 99 85 47 62 63 96
100 100 100 100 100 100 99 100 94 100 100 100 100 100 100 100 100 94 100 100 100 100 100 97 99 88 76 96 98 97 92 100 100 100 100 100 100 98 100 100 100 100 100 100 90
100 100 100 100 100 97 76 100 95 99 94 97 100 100 100 100 100 100 100 100 100 100 100 99 100 85 100 84 46 100 100 100 100 100 100 100 100 100 99 100 100 100 100 100 100
100 100 100 100 100 100 94 100 71 69 71 100 100 100 100 100 100 100 100 100 100 100 100 100 100 100 84 65 69 96 100 100 100 100 100 100 88 100 100 100 100 100 100 100 100

GFSSW_prec_cloud_045.txt.gz
Cloud_Cover
100 99 98 100 100 100 100 100 98 100 100 100 28 2 17 97 100 100 100 100 100 100 100 100 100 100 100 100 52 30 6 11 5 4 0 0 0 0 2 0 0 0 0 0 0
99 100 100 98 100 100 100 100 100 100 100 100 100 85 3 18 100 100 100 100 100 100 100 100 100 100 100 100 94 42 7 59 5 0 1 3 0 0 0 1 2 0 0 0 0
99 76 100 100 100 100 100 100 100 100 100 100 100 100 94 61 86 100 100 100 100 100 100 100 100 100 100 100 100 98 92 32 5 2 0 1 0 2 28 0 0 0 0 0 0
93 100 45 100 100 94 100 100 100 100 100 100 100 100 100 98 21 54 100 100 100 100 100 100 100 100 100 100 96 100 98 5 7 5 5 4 0 4 0 0 0 0 0 0 0
0 58 99 9 100 100 98 100 100 100 100 100 100 100 100 97 72 9 5 100 100 100 100 100 100 100 100 100 100 100 37 30 6 5 0 4 5 2 0 0 0 0 0 0 0
26 99 100 70 18 100 100 85 100 100 100 100 100 100 100 100 100 100 7 4 100 100 100 100 100 100 100 100 100 66 53 58 33 12 5 5 4 5 4 0 0 0 0 0 0
5 8 12 5 4 30 100 100 99 100 100 100 100 79 100 100 100 100 99 5 4 100 100 100 100 100 100 100 100 100 94 5 18 25 9 14 35 90 5 4 0 0 0 0 0
0 4 7 5 5 4 89 100 96 100 100 100 100 100 86 100 100 100 100 98 5 17 100 100 100 100 100 100 100 100 100 93 5 36 63 96 69 4 0 0 0 0 0 0 0
22 4 18 0 37 5 14 62 100 100 97 100 100 100 100 100 100 100 34 99 53 34 62 100 100 100 100 100 100 100 100 100 96 5 32 8 8 5 5 0 0 0 0 0 0
5 5 1 0 19 20 5 31 70 100 100 100 100 100 100 100 100 99 38 41 100 95 82 72 100 100 100 100 100 100 100 100 100 96 11 5 41 71 2 1 4 0 0 2 0
5 5 0 3 100 84 21 78 100 100 100 100 100 100 100 100 100 76 99 5 65 100 100 100 96 100 100 100 100 100 100 100 100 100 100 82 5 5 13 5 5 0 1 5 5
29 5 28 49 13 48 68 100 100 100 100 100 100 100 100 100 96 26 32 44 28 47 99 100 100 100 45 83 100 100 100 100 99 86 24 5 5 5 94 88 49 49 5 5 30
24 5 33 100 88 93 39 100 100 100 100 100 100 100 100 100 100 100 100 100 87 74 100 100 100 100 100 50 55 93 73 11 5 5 5 5 9 15 89 100 92 28 34 5 5
16 21 99 100 12 69 51 62 100 100 100 100 100 100 100 100 100 100 100 100 100 100 100 100 100 100 100 100 84 70 54 7 5 27 5 10 6 98 100 100 73 13 8 5 5
5 76 97 94 85 15 26 100 100 100 100 81 100 71 100 100 100 100 100 100 100 100 100 100 100 100 100 100 100 100 100 87 62 100 85 5 46 95 93 100 100 85 97 9 1
100 94 89 92 89 35 29 100 100 100 100 100 100 100 100 100 100 100 100 99 100 100 100 100 100 100 100 100 100 100 100 100 100 100 88 19 38 58 95 88 1 1 5 0 0
100 100 87 88 100 77 28 100 100 100 100 100 100 100 100 100 100 100 100 100 100 100 100 100 100 100 100 100 100 100 100 100 96 100 49 30 17 33 11 3 0 0 0 0 0
100 100 100 100 56 44 99 100 100 100 100 85 100 100 100 100 100 100 99 100 100 100 100 100 100 100 100 100 100 100 100 100 81 60 80 3 3 22 1 26 0 0 0 0 0
100 98 100 100 85 89 100 100 100 100 99 100 100 100 100 100 100 100 98 100 100 100 100 98 75 86 97 97 98 98 85 41 96 48 5 4 5 4 2 1 0 0 0 0 0
100 88 100 94 91 100 100 100 100 100 100 91 100 100 100 100 100 100 100 99 100 98 93 100 92 71 65 79 20 78 76 83 97 81 13 4 4 5 71 78 66 2 50 65 100
100 99 100 91 100 100 100 100 100 100 100 100 100 100 100 100 100 100 100 100 100 96 98 92 100 100 100 45 15 50 91 79 82 96 69 41 5 88 83 10 43 5 5 5 4
100 99 97 91 100 100 100 100 100 100 100 99 100 100 98 100 100 100 100 76 59 96 100 100 99 91 60 5 66 89 60 54 100 70 100 92 6 100 97 100 10 5 7 5 95
100 100 89 100 100 100 100 100 100 100 100 70 100 98 60 66 98 100 100 96 75 78 100 95 77 84 81 73 100 68 26 97 99 100 98 100 20 100 100 100 85 79 65 4 94
100 100 100 100 100 100 100 100 100 100 100 77 100 92 55 91 72 89 100 88 54 59 46 60 100 50 25 96 91 90 44 80 100 100 70 85 49 5 93 99 100 100 100 99 5
100 100 100 99 100 100 100 100 100 100 100 91 100 69 62 79 63 68 95 76 90 97 82 99 97 100 100 92 62 70 96 100 100 100 100 99 100 97 100 100 100 100 100 100 100
100 100 100 100 100 100 100 100 100 100 100 29 97 88 6 40 78 78 82 100 100 100 100 100 100 100 100 65 62 83 91 98 100 100 100 100 100 100 100 100 100 100 100 100 100
100 100 100 100 100 100 94 100 100 71 95 67 100 100 100 100 99 94 82 58 100 100 100 100 100 100 57 13 5 37 27 88 100 100 100 100 97 100 100 100 100 100 100 100 100

GFSSW_prec_cloud_048.txt.gz
Cloud_Cover
5 91 100 100 100 98 100 100 100 100 100 100 100 100 12 2 100 100 100 100 100 100 100 100 100 100 100 100 100 40 6 22 100 6 5 0 0 4 0 0 0 0 0 0 1
0 0 47 100 100 100 81 100 100 100 100 100 100 100 100 24 54 100 100 100 100 100 100 100 100 100 92 100 84 52 34 97 58 5 5 0 0 0 0 1 0 0 0 0 0
2 0 5 98 100 100 100 100 100 100 100 100 100 100 100 100 37 12 100 100 100 100 98 100 100 100 100 100 67 47 93 98 8 37 5 5 0 0 0 5 2 0 0 0 0
5 5 4 0 27 86 100 100 55 100 100 100 100 100 100 100 100 86 5 100 100 100 100 100 100 100 100 100 100 58 97 100 100 51 79 32 0 0 0 0 0 0 0 0 0
5 5 5 3 94 81 100 100 100 84 100 100 100 100 100 100 100 100 56 5 100 100 100 100 100 100 100 100 100 100 100 100 100 100 100 8 4 2 1 0 0 0 0 2 0
0 3 8 5 5 34 61 98 100 87 100 100 100 100 100 100 100 100 100 33 2 99 100 100 100 100 100 100 100 100 100 100 100 100 100 54 5 5 5 0 0 3 4 0 0
22 0 0 4 4 3 49 18 100 100 100 100 100 100 90 100 100 100 100 100 84 15 100 100 100 100 100 100 100 100 100 100 100 100 100 72 5 5 5 2 4 0 4 1 0
100 68 15 0 2 4 2 12 29 100 99 100 100 100 100 100 100 100 100 100 100 100 44 99 100 100 100 100 100 100 100 100 100 100 100 32 67 5 10 5 5 5 5 5 0
5 37 77 12 2 2 0 3 2 100 86 100 100 99 80 100 100 100 100 100 100 100 100 100 100 100 100 100 100 100 100 100 100 100 100 35 79 5 5 5 5 7 8 7 5
94 5 38 5 0 1 5 5 5 43 100 100 100 100 37 100 100 100 100 100 100 100 100 100 38 100 100 100 100 100 100 100 100 100 100 24 61 100 5 5 4 5 5 1 2
57 71 10 5 70 5 26 35 18 98 100 100 100 94 100 100 100 100 100 100 100 100 100 100 100 49 100 100 100 100 100 100 100 100 100 94 46 99 15 5 5 5 5 5 5
92 8 5 15 92 79 77 65 93 100 98 100 100 100 99 100 100 100 100 96 100 100 100 100 100 100 18 98 100 100 100 100 100 100 100 100 100 100 100 16 6 46 67 9 5
5 5 5 62 98 67 67 21 100 100 100 100 100 100 100 100 100 100 100 100 100 100 100 97 100 100 100 89 73 100 100 100 100 100 100 100 79 78 87 100 100 99 38 5 1
87 5 9 83 100 96 97 80 100 100 100 100 100 100 95 58 100 100 100 71 100 100 100 100 98 100 100 100 100 87 60 100 100 100 100 100 99 95 9 99 89 5 5 4 0
12 76 100 96 86 89 88 83 61 100 100 100 100 100 100 100 100 100 100 100 100 100 58 44 34 19 49 100 100 100 100 59 5 5 9 5 5 74 91 10 9 5 5 4 2
94 100 99 100 97 90 42 90 100 100 100 100 100 100 16 84 100 100 100 100 100 98 100 49 39 11 5 7 99 100 100 100 91 28 91 5 4 5 100 95 7 2 2 4 5
63 83 100 100 100 100 91 100 100 100 100 100 100 100 85 100 100 100 100 100 100 100 100 100 100 100 100 100 100 100 100 100 100 100 77 50 35 8 100 2 5 64 51 8 15
9 97 98 92 95 77 100 100 100 100 100 100 100 100 100 100 100 100 100 100 100 100 100 100 100 100 100 100 100 100 100 100 100 99 99 15 30 100 100 100 33 5 5 5 2
98 100 100 100 100 52 84 100 100 100 100 100 100 100 100 100 100 100 100 100 100 100 100 100 100 100 100 100 100 100 99 100 93 74 43 100 100 100 96 79 58 3 2 0 0
100 100 100 14 42 88 100 100 100 100 100 100 100 100 92 100 100 100 100 100 100 100 100 100 100 100 100 100 100 96 85 100 100 67 100 62 90 80 89 53 3 5 58 44 5
100 100 91 6 12 100 100 100 100 100 100 100 97 100 100 100 100 100 100 95 87 100 100 100 74 100 93 59 98 100 100 98 77 85 78 90 61 1 3 30 70 92 28 30 7
100 100 85 5 88 100 100 100 100 100 100 88 87 61 39 99 98 100 71 98 60 93 100 100 100 100 27 46 11 80 27 25 36 16 34 40 16 6 40 43 12 28 35 5 5
100 100 86 98 100 100 100 100 100 100 100 100 100 93 94 100 89 98 44 60 92 78 97 99 100 95 100 62 93 12 50 57 75 79 51 98 13 78 10 44 96 100 90 95 100
100 77 100 100 100 100 100 100 100 100 100 100 84 100 80 100 95 99 98 95 93 97 100 96 100 12 58 86 85 59 66 61 96 99 87 81 9 36 78 96 13 52 99 97 100
100 100 100 100 100 100 100 100 100 100 100 90 100 100 100 100 100 100 100 100 87 74 60 73 29 8 71 100 100 28 10 28 79 78 100 100 100 100 82 100 45 23 100 100 100
100 100 100 100 100 100 100 100 100 100 99 72 94 100 100 100 100 100 100 100 100 96 83 69 75 49 93 98 9 7 61 48 100 100 100 100 100 85 100 100 100 100 100 100 100
93 100 100 100 96 100 100 100 98 99 92 96 100 100 100 100 100 100 100 100 97 69 100 72 87 100 100 14 56 55 9 18 33 99 100 100 97 91 100 100 100 100 100 100 100

GFSSW_prec_cloud_051.txt.gz
Cloud_Cover
4 2 0 0 41 100 100 77 99 100 100 100 100 100 100 72 5 16 100 100 100 100 100 100 100 100 100 97 93 33 2 5 96 100 100 42 1 0 0 2 0 2 0 0 1
6 4 5 1 14 92 100 100 92 66 100 100 100 100 100 100 38 21 37 100 100 100 100 100 100 100 100 100 9 5 5 72 100 100 100 16 1 0 0 11 0 0 0 0 0
30 5 5 5 5 3 55 100 100 78 97 100 100 100 100 100 99 100 5 48 100 100 100 100 100 100 100 100 90 93 97 100 100 100 95 24 3 0 0 5 5 0 0 0 0
81 10 5 5 5 5 38 100 59 100 86 100 100 100 100 100 100 100 100 26 97 100 100 100 100 100 100 100 100 98 86 100 100 100 50 66 11 5 5 5 5 0 0 0 0
5 9 4 3 7 7 15 76 100 100 100 76 100 100 100 100 100 100 100 100 91 100 100 100 100 100 100 100 100 100 86 79 100 100 66 100 42 5 6 5 4 0 0 0 0
79 94 28 5 0 3 5 5 5 12 100 52 98 100 100 100 100 100 100 100 100 40 100 100 100 100 100 100 100 100 86 100 100 100 100 100 46 11 95 6 2 2 2 0 0
40 87 100 100 5 3 70 5 14 3 82 100 100 100 100 100 100 100 100 100 100 100 100 100 100 100 100 100 100 98 100 100 100 100 72 71 13 84 100 34 6 5 5 4 3
68 96 85 98 100 14 1 2 2 1 9 100 100 100 100 100 100 100 100 100 100 100 100 98 100 100 100 100 100 100 100 100 100 100 100 34 95 100 100 100 49 22 12 6 5
85 98 96 92 91 52 0 2 10 0 0 100 100 100 100 100 100 100 100 100 100 100 100 100 100 100 100 100 100 100 100 100 100 100 100 62 99 100 63 100 100 79 7 32 16
99 62 6 72 54 7 5 5 0 5 1 85 100 100 100 92 100 100 100 100 100 100 100 100 92 97 100 100 100 100 100 100 100 100 100 65 99 100 100 100 100 96 14 28 9
99 30 26 5 5 11 37 13 47 85 100 48 100 29 100 100 100 100 100 100 100 100 100 87 100 70 88 100 100 100 100 100 100 100 100 100 100 100 100 100 100 100 78 89 46
20 5 5 5 84 9 84 38 9 89 83 76 100 100 100 100 100 100 100 100 100 100 100 100 100 100 100 51 94 100 100 100 100 100 100 100 100 100 100 100 100 99 34 11 5
5 5 5 83 7 83 98 100 85 99 100 100 100 100 100 100 100 100 100 100 100 100 100 100 100 100 100 100 96 89 100 100 100 100 100 100 100 100 100 100 100 95 92 46 24
5 22 48 58 92 46 34 100 100 21 100 100 100 100 100 94 87 12 99 100 100 100 100 100 100 100 100 53 26 38 93 100 100 100 100 100 100 100 100 100 100 100 100 100 100
5 5 67 84 73 100 55 100 77 99 99 100 100 100 100 96 99 91 94 100 100 100 100 100 100 100 100 100 92 100 100 100 76 100 100 100 57 100 100 100 100 100 100 100 100
5 10 100 91 100 100 59 100 94 99 100 100 100 100 100 96 97 51 100 100 100 100 100 100 100 100 100 100 100 100 91 45 68 38 100 100 100 100 100 100 100 87 56 43 5
5 94 100 100 99 93 14 94 94 100 100 100 100 98 99 100 100 97 100 98 100 100 100 100 100 100 100 100 100 72 100 100 98 99 96 79 98 100 100 100 98 39 5 5 4
49 46 100 100 100 51 30 99 100 100 100 100 100 94 98 100 93 100 100 100 100 100 100 100 66 100 100 100 100 93 6 12 30 66 36 20 98 100 66 4 12 100 96 91 85
19 84 91 92 100 86 100 100 100 100 100 100 100 100 100 76 97 100 100 100 100 100 100 100 93 51 52 11 8 5 32 53 77 5 16 6 57 100 100 100 95 56 38 17 22
97 52 46 40 100 98 100 100 100 100 100 100 100 99 100 99 90 96 100 100 100 100 100 100 100 98 43 89 96 84 58 100 91 55 98 99 100 100 100 71 38 6 5 10 16
87 75 96 92 100 100 100 100 100 100 100 100 95 100 100 100 100 100 100 100 100 100 100 100 100 98 100 54 99 100 100 100 100 100 100 100 100 97 69 6 5 12 13 8 24
100 99 100 100 100 100 100 100 100 100 100 100 99 76 100 95 100 100 97 90 78 100 100 100 100 100 78 100 100 100 100 96 100 95 72 84 100 98 76 90 6 5 0 0 5
100 93 100 100 100 100 100 100 100 100 100 58 73 91 88 96 50 99 89 97 96 100 100 98 100 99 100 100 94 83 52 70 69 98 32 49 40 36 63 16 5 73 5 3 5
37 91 100 100 100 100 100 100 100 100 100 100 100 97 100 98 91 100 100 100 100 100 95 81 67 82 96 72 98 55 33 31 97 72 95 16 35 5 25 94 34 5 7 5 7
46 100 100 100 100 100 100 100 100 100 93 95 97 97 100 100 96 98 100 100 100 100 100 100 79 22 36 64 75 10 14 64 98 52 82 7 39 12 100 95 98 99 97 96 100
100 100 100 100 100 99 100 100 100 100 88 95 92 100 100 100 100 100 100 100 100 100 99 93 53 53 6 46 75 45 95 90 34 51 97 98 77 100 100 100 100 100 100 100 100
100 72 100 100 100 100 100 100 78 38 100 100 98 99 100 100 100 100 100 100 100 100 100 99 99 92 98 100 100 93 15 19 26 20 100 100 84 100 100 100 100 100 100 100 100

GFSSW_prec_cloud_054.txt.gz
Cloud_Cover
100 100 60 5 5 5 3 46 100 100 94 100 100 100 100 100 100 12 100 100 100 100 100 100 100 100 99 100 100 99 5 6 100 100 100 67 4 0 0 4 5 5 4 5 5
100 100 33 57 69 14 6 98 100 100 100 92 100 100 100 100 100 100 28 100 100 100 100 100 100 100 100 100 100 84 7 88 100 100 100 15 0 0 0 3 5 5 0 0 0
8 11 6 77 3 100 80 74 100 100 96 100 100 100 100 100 100 100 89 26 100 100 100 100 100 100 100 97 95 99 82 100 100 100 100 5 1 0 0 0 6 5 0 0 0
12 7 5 5 5 4 4 14 100 27 100 66 98 100 100 100 100 100 100 100 9 100 100 100 100 100 100 100 100 100 100 100 100 100 100 90 5 5 0 2 5 15 0 0 0
8 47 79 33 61 7 5 3 10 13 37 100 100 100 100 100 100 100 100 100 98 27 100 100 100 100 100 100 100 100 100 100 100 100 61 92 90 7 25 18 5 5 1 0 1
69 5 27 87 100 54 5 3 3 10 0 13 100 100 100 100 100 100 100 100 100 100 73 100 100 100 100 100 100 100 100 100 100 100 98 100 100 100 83 42 5 5 5 0 5
18 17 99 100 85 97 73 5 9 5 0 0 100 100 100 66 100 100 100 100 100 100 100 98 100 100 100 100 100 100 100 100 100 100 100 100 100 100 90 5 18 18 76 5 4
78 85 100 82 5 73 99 35 0 3 0 0 57 100 100 54 100 100 100 100 100 100 100 100 97 100 100 100 100 100 100 100 100 100 100 72 100 100 100 76 95 37 11 5 42
78 94 100 99 90 85 79 56 0 0 0 3 43 100 100 67 100 100 100 100 100 100 100 100 100 100 100 100 100 100 100 100 100 100 100 89 100 100 100 100 100 100 34 5 9
16 90 96 52 6 5 11 63 93 5 0 0 11 100 100 46 95 100 100 100 100 100 100 100 100 100 100 100 100 100 100 100 100 100 100 100 100 100 100 100 100 100 100 78 21
53 5 3 0 0 5 11 23 45 16 80 4 50 66 80 87 51 100 100 100 100 100 100 100 100 100 85 100 100 100 100 100 100 100 100 100 100 100 100 100 100 100 100 100 100
3 0 2 5 28 5 50 12 73 96 83 10 100 100 100 99 100 100 100 100 100 100 100 100 100 100 100 100 100 100 100 100 100 100 100 100 100 100 100 100 100 100 100 100 100
4 8 5 5 5 6 33 100 100 89 92 22 77 100 100 100 100 100 100 100 100 100 100 100 100 100 100 100 100 100 100 100 100 100 100 100 100 100 100 100 100 100 100 100 100
92 7 5 5 89 21 93 99 100 100 100 42 100 100 100 79 100 100 92 100 100 100 100 100 100 100 100 100 100 100 100 100 100 100 100 100 100 100 100 100 100 100 100 100 100
5 21 96 37 99 100 100 83 100 100 93 100 83 100 100 99 23 95 100 100 100 100 100 100 100 100 100 100 53 87 100 100 100 100 100 100 100 100 100 100 100 100 100 100 100
11 100 100 100 100 100 84 94 100 77 95 100 100 100 100 100 96 100 100 100 100 100 100 100 100 100 90 100 100 100 88 98 100 100 100 100 100 100 100 100 100 100 100 100 100
97 100 100 97 93 100 30 94 91 99 100 100 100 100 100 98 57 100 100 100 100 100 100 100 100 100 100 90 100 100 98 86 19 64 13 79 100 100 100 100 100 100 100 100 84
93 99 90 100 97 71 52 90 100 100 100 100 100 100 100 84 100 100 100 100 100 100 100 100 100 100 100 100 100 100 100 100 82 62 11 12 30 93 100 100 100 100 94 82 81
66 32 68 70 100 50 97 100 100 100 100 100 100 100 100 100 100 100 100 100 100 100 100 100 100 100 100 100 100 100 100 100 100 62 37 87 100 72 5 6 87 100 100 100 100
51 71 100 100 87 100 100 100 100 100 100 100 100 73 100 100 100 100 100 96 100 100 100 100 100 100 100 96 100 100 100 100 100 100 95 22 94 24 12 5 5 5 10 28 46
6 41 85 54 100 100 100 100 99 100 100 100 17 91 100 100 100 100 100 100 100 100 100 100 100 100 100 100 100 100 81 77 70 89 100 99 16 12 49 5 5 5 5 5 54
5 63 73 100 100 100 100 100 100 100 100 90 11 95 100 100 100 100 100 100 100 100 100 100 100 100 100 100 100 100 24 9 5 62 49 66 100 100 45 68 98 99 98 66 10
99 85 95 100 100 100 100 100 100 100 62 70 48 56 55 45 97 70 80 100 100 100 100 100 100 100 100 100 100 38 9 81 46 99 36 91 99 97 92 98 88 96 30 5 5
11 46 98 83 96 100 100 100 100 71 100 91 94 100 100 64 95 100 99 100 100 100 100 100 100 100 100 100 100 68 87 100 100 84 90 44 99 82 56 80 100 100 100 100 100
86 98 100 98 96 100 100 100 100 92 100 100 98 76 100 100 100 100 100 100 100 100 100 100 100 100 100 100 98 99 98 100 50 93 90 5 47 5 69 100 100 100 83 100 88
94 100 100 100 100 100 100 100 100 80 100 100 100 100 100 100 100 100 100 100 100 100 100 100 100 100 100 100 54 59 100 11 5 99 70 54 15 100 100 100 100 100 100 100 100
100 100 93 28 85 100 72 53 48 100 100 100 100 100 100 100 100 100 100 100 100 100 81 85 73 92 100 100 96 14 52 98 27 31 92 99 92 100 96 100 100 100 100 100 100

GFSSW_prec_cloud_057.txt.gz
Cloud_Cover
82 98 99 100 6 5 98 78 4 0 56 100 100 100 100 100 100 100 98 100 100 100 100 100 100 100 100 100 100 100 6 52 100 100 100 92 18 5 5 13 5 5 5 3 7
88 16 24 29 16 63 12 100 83 93 100 6 100 100 100 99 100 100 100 98 100 100 100 100 100 100 100 100 100 99 29 99 100 100 100 5 3 0 5 5 5 6 51 8 65
38 14 100 82 5 5 29 8 39 94 11 0 96 100 88 100 100 100 100 100 100 77 100 100 100 100 100 100 100 100 94 100 100 100 100 10 5 0 4 6 5 5 7 5 14
5 7 97 98 98 21 45 80 5 42 100 0 51 100 100 100 100 100 100 100 100 100 100 100 100 100 100 100 100 100 100 100 100 100 100 24 5 0 1 5 5 10 5 5 0
5 56 67 20 76 98 69 47 84 5 68 16 2 100 100 100 93 100 100 100 100 100 85 100 100 100 100 100 100 100 100 100 100 100 100 81 7 5 5 34 5 5 5 5 0
94 100 100 98 86 97 98 99 19 47 64 46 11 96 100 100 48 90 100 100 100 100 100 92 100 100 100 100 100 100 100 100 100 100 100 100 88 5 91 5 0 2 5 5 2
100 100 63 90 99 100 69 71 76 5 18 2 98 100 100 97 38 6 100 100 100 100 100 100 100 100 100 100 100 100 100 100 100 100 100 100 100 98 100 18 5 0 0 4 6
9 89 5 55 77 32 52 17 89 19 29 3 23 62 100 100 100 11 100 100 100 100 100 100 100 100 100 100 100 100 100 100 100 100 100 100 100 100 100 75 58 5 5 25 100
42 51 5 7 0 2 0 4 5 5 75 19 24 29 100 43 4 92 100 100 100 100 100 100 100 100 100 100 100 100 100 100 100 100 100 100 100 100 100 100 42 11 81 100 100
41 5 2 4 0 5 5 5 5 21 68 12 34 36 86 9 86 31 99 100 100 100 100 100 100 100 100 100 100 100 100 100 100 100 100 100 100 100 100 100 100 100 100 100 100
50 2 0 4 5 22 5 28 82 4 65 14 24 1 30 37 91 100 100 100 100 100 100 100 100 100 100 100 100 100 100 100 100 100 100 100 100 100 100 100 100 100 100 100 100
19 51 38 35 99 72 68 100 90 99 98 11 16 38 100 100 88 100 90 100 100 100 100 100 100 100 100 100 100 98 100 100 100 100 100 100 100 100 100 100 100 100 100 100 100
46 94 100 100 100 100 84 99 78 100 100 60 4 4 100 100 100 98 100 100 100 100 100 100 100 100 100 100 100 100 98 100 100 100 100 100 100 100 100 100 100 100 100 100 100
5 74 100 100 100 100 100 55 38 99 100 61 58 8 100 100 100 100 100 100 100 100 100 100 100 100 100 100 100 100 100 100 100 100 100 100 100 100 100 100 100 100 100 100 100
97 100 100 100 100 100 100 100 92 98 99 78 35 100 100 100 97 100 100 100 100 100 100 100 100 100 98 100 56 92 100 100 72 100 100 100 100 100 100 100 100 100 100 100 100
100 100 100 100 89 72 100 79 100 88 100 94 64 86 100 100 100 100 100 100 100 100 100 100 100 100 100 100 100 100 100 100 100 48 76 100 100 100 100 100 100 100 100 100 100
100 73 71 100 72 98 69 95 22 98 68 98 72 100 100 99 93 97 100 100 100 100 100 100 100 100 100 100 100 100 100 29 28 56 27 100 100 100 100 100 100 100 100 100 100
6 10 14 99 94 40 9 74 100 100 100 100 100 100 100 93 100 100 100 100 100 100 100 100 100 100 100 100 100 98 13 5 96 100 100 98 89 100 100 100 100 69 85 100 100
6 59 100 100 100 100 100 100 100 100 100 100 100 100 100 100 100 100 100 100 100 100 100 70 100 100 100 100 100 100 100 100 100 100 60 94 90 6 89 100 100 100 77 79 100
9 66 86 98 90 96 100 100 100 100 100 100 98 79 81 100 100 100 100 100 74 83 100 95 70 100 100 100 100 100 100 100 100 100 100 100 96 69 9 5 43 75 79 98 93
9 98 100 100 51 90 99 100 100 100 100 50 7 21 46 99 100 100 100 100 100 97 100 100 99 100 100 100 100 100 100 100 87 84 100 100 100 78 56 5 5 5 5 4 4
1 5 20 26 71 85 100 100 100 100 99 98 99 99 100 100 100 100 100 98 90 100 100 100 100 100 100 100 100 100 100 100 100 100 100 100 100 97 11 5 5 5 5 5 5
5 54 100 100 80 96 100 100 100 91 100 88 100 100 99 80 97 100 100 100 100 100 100 100 100 100 100 100 100 100 100 100 100 100 100 100 88 82 10 24 37 98 100 100 77
14 72 26 5 96 100 100 100 90 62 62 67 98 100 98 100 100 100 100 100 100 100 100 100 100 100 100 100 100 100 96 45 99 66 62 39 5 75 86 12 43 100 73 45 75
36 84 100 87 97 100 100 92 39 54 100 100 100 100 100 100 100 100 100 100 100 100 100 100 100 100 100 100 100 100 100 100 80 63 35 16 5 30 90 99 92 99 70 100 96
91 91 99 100 100 100 82 98 100 100 100 99 99 99 100 100 100 100 99 100 100 100 100 100 100 100 100 100 100 100 100 100 100 100 5 52 80 100 96 100 100 100 63 100 90
100 100 99 13 8 14 82 8 7 98 100 100 100 100 100 100 100 100 100 100 100 100 100 100 100 100 100 100 100 100 100 100 96 100 68 74 99 100 97 100 100 100 95 65 100

GFSSW_prec_cloud_060.txt.gz
Cloud_Cover
7 98 90 44 15 44 44 28 82 100 62 2 0 62 94 100 84 100 100 100 100 100 100 100 100 100 100 100 100 64 5 4 100 100 100 100 27 0 7 39 12 11 7 32 44
51 4 5 100 57 99 100 81 48 13 76 73 0 69 100 60 100 98 100 100 100 100 100 100 100 100 100 100 100 100 21 88 100 100 100 100 8 5 5 79 92 5 55 19 95
100 90 61 96 94 86 94 100 97 99 46 35 96 65 100 100 100 100 100 100 100 100 100 100 100 100 100 100 100 100 100 100 100 100 100 100 12 5 5 84 100 53 93 25 99
100 100 100 100 99 99 61 45 15 64 80 25 5 2 98 100 58 5 100 100 100 100 100 100 100 100 100 100 100 100 100 100 100 100 100 99 5 5 30 100 100 100 100 99 43
99 94 100 80 82 88 61 12 36 92 100 91 27 1 37 100 54 11 99 100 100 100 100 100 100 100 100 100 100 100 100 100 100 100 100 100 22 5 16 62 78 100 100 100 97
100 93 13 5 48 5 41 97 100 71 54 90 90 62 79 100 20 90 13 100 100 100 100 100 100 100 100 100 100 100 100 100 100 100 100 100 100 16 66 18 5 37 52 59 84
100 74 4 5 4 13 1 0 14 57 92 100 99 81 77 89 14 9 11 100 100 100 100 100 100 100 100 100 100 100 100 100 100 100 100 100 100 100 100 15 5 5 26 60 53
100 87 67 14 36 4 5 3 0 0 0 3 100 78 100 0 7 57 16 37 100 100 100 100 100 100 100 100 100 100 100 100 100 100 100 100 100 100 100 100 75 15 8 61 74
99 47 93 28 5 3 4 5 14 4 32 31 93 100 81 1 17 79 81 23 100 100 100 100 100 100 100 100 100 100 100 100 100 100 100 100 100 100 100 100 100 71 87 99 100
98 61 53 20 55 43 96 65 7 61 36 15 100 99 8 1 5 100 94 4 96 100 100 100 100 100 100 97 100 100 100 100 100 100 100 47 100 100 100 100 100 100 100 100 100
90 90 86 100 100 100 100 100 100 51 7 27 5 1 40 1 15 100 93 9 64 100 100 100 100 100 100 100 100 100 100 100 100 100 100 100 90 100 100 100 100 100 100 100 100
46 100 100 100 100 100 100 100 94 86 100 28 5 5 86 100 98 48 100 71 94 100 100 100 100 100 100 100 100 100 100 100 100 100 100 100 100 100 100 100 100 100 83 99 100
24 94 96 100 100 100 64 95 78 72 100 76 3 48 100 100 100 100 100 32 85 100 100 100 100 100 100 100 100 100 100 100 100 100 100 100 100 100 100 100 100 100 70 68 100
24 100 100 100 98 98 100 100 99 100 100 55 55 100 100 100 100 99 100 83 92 100 100 100 100 100 100 100 100 100 100 100 100 100 100 100 100 100 100 100 100 100 90 60 100
100 98 44 14 92 100 100 100 100 100 99 69 100 100 100 100 92 100 100 99 100 100 100 100 100 100 100 100 100 100 100 100 100 99 100 100 100 100 100 100 100 100 100 99 32
8 5 5 6 5 53 86 94 100 98 96 89 98 100 100 100 100 100 83 99 100 100 100 100 100 100 100 100 100 100 100 98 100 72 91 100 100 100 100 100 100 100 100 100 100
5 92 53 5 41 52 5 95 99 100 92 100 100 100 99 100 100 100 100 95 100 100 100 88 100 100 100 100 100 85 100 86 40 98 100 96 100 100 100 100 100 100 100 100 100
5 5 21 99 99 99 100 100 100 96 100 100 100 100 100 100 100 100 100 100 100 100 100 100 100 100 100 100 100 99 91 94 100 64 25 99 75 73 100 100 100 100 100 100 100
0 14 66 85 100 100 82 100 100 100 100 100 100 100 100 100 98 100 98 100 100 100 100 95 96 100 100 100 100 100 100 72 94 100 83 100 100 100 100 100 100 100 94 100 100
0 5 75 41 90 100 96 100 100 100 100 100 100 62 100 89 98 100 100 100 100 100 100 73 98 100 100 100 100 100 100 99 97 100 100 100 100 99 80 5 5 12 77 95 29
0 5 5 7 85 99 100 100 100 100 100 74 15 89 100 33 100 100 100 100 100 100 96 92 100 100 100 100 100 100 100 100 100 100 100 100 99 67 11 49 99 26 68 17 5
0 7 63 5 94 100 100 100 100 100 96 19 46 95 88 100 100 100 100 100 100 100 100 100 100 100 100 100 100 100 100 100 100 100 100 100 89 54 6 55 100 91 5 5 5
18 14 71 5 100 100 100 100 92 16 5 10 54 74 12 26 52 98 100 100 100 100 100 100 100 100 100 100 100 100 100 100 100 100 100 100 100 32 15 58 7 9 74 47 5
23 40 93 100 96 100 100 33 5 5 5 6 86 26 27 68 100 100 100 100 100 100 100 100 100 100 100 100 100 100 100 100 100 100 100 88 82 55 97 6 5 49 99 52 34
28 72 100 86 96 76 63 42 5 18 5 5 18 94 100 100 100 100 52 83 98 100 100 100 100 100 100 100 100 100 100 100 100 100 100 100 64 59 53 21 29 89 100 23 11
88 98 100 96 96 8 36 55 5 52 96 70 88 58 98 100 100 100 38 44 82 100 100 100 100 100 100 100 100 100 100 100 100 100 96 67 52 100 100 99 100 100 100 22 6
97 98 100 18 89 13 66 53 90 43 77 100 100 100 96 100 100 100 100 100 100 100 100 100 100 100 100 100 100 100 100 100 85 71 5 5 81 100 100 100 100 97 100 99 92

GFSSW_prec_cloud_063.txt.gz
Cloud_Cover
100 92 99 26 100 100 96 100 100 92 17 14 5 0 26 68 100 100 100 54 100 100 100 100 100 100 100 100 100 9 56 37 100 100 100 99 11 0 3 5 5 7 26 5 1
94 100 100 100 100 100 100 100 98 61 5 47 5 5 28 51 100 46 100 4 64 100 100 89 100 98 100 100 100 77 5 98 100 100 100 100 62 5 0 5 5 15 28 6 90
100 100 100 100 100 100 100 100 56 90 96 82 99 7 5 63 96 6 0 1 29 86 100 100 95 90 100 100 100 100 100 100 100 100 100 100 96 17 3 5 65 5 63 26 100
93 100 100 100 100 100 100 98 21 46 70 47 14 64 28 62 54 0 5 54 59 100 100 100 100 99 100 100 100 100 100 100 100 100 100 100 92 42 5 5 12 95 73 17 69
98 51 78 100 100 98 25 14 15 65 32 62 64 87 96 18 47 5 67 98 62 98 100 100 100 98 100 100 100 100 100 100 100 100 100 100 100 18 58 6 5 88 100 40 99
66 100 100 100 83 72 52 4 33 4 2 1 30 100 100 69 1 6 100 100 99 9 100 100 100 100 98 100 100 100 100 100 100 100 100 100 100 40 100 14 25 80 100 100 100
83 12 64 36 100 100 100 10 5 2 0 0 5 56 96 9 0 3 99 46 46 53 100 100 100 100 100 100 100 100 100 100 100 100 100 100 100 100 97 79 78 100 100 100 100
42 51 33 65 58 8 96 93 100 58 5 0 41 91 34 0 2 4 42 87 9 5 100 100 100 100 100 100 100 100 100 100 100 100 100 100 100 100 99 64 97 100 100 100 100
5 7 91 46 23 96 100 100 100 100 100 5 100 100 45 4 0 40 5 25 7 2 100 100 100 100 100 99 100 100 100 100 100 100 100 100 100 100 100 100 100 100 100 100 100
7 16 24 100 100 96 100 100 100 100 100 67 53 86 6 4 11 100 94 93 51 19 100 100 100 100 100 100 64 100 100 100 100 100 100 100 100 100 100 100 100 100 100 100 100
5 5 5 94 100 87 54 99 97 64 100 12 29 5 5 2 7 96 100 100 77 100 100 100 100 100 100 100 91 100 100 100 100 100 100 100 100 100 100 100 100 100 100 100 100
36 46 100 98 100 100 86 92 26 100 64 66 76 5 4 49 91 100 100 100 96 100 100 100 100 100 100 100 100 100 100 100 100 100 100 100 96 100 100 100 100 100 96 12 27
98 100 100 25 100 87 100 100 100 98 91 46 86 5 54 69 100 98 100 100 98 100 100 100 100 100 100 99 100 100 100 100 100 100 100 100 100 100 100 100 100 100 98 100 100
100 65 5 5 15 88 100 100 100 100 100 95 45 64 100 100 100 100 100 90 99 100 100 100 100 100 100 100 100 100 100 100 100 100 100 100 100 100 100 100 57 95 86 80 92
63 5 6 5 97 100 97 100 100 100 97 88 59 97 100 100 100 96 100 99 5 67 100 100 100 100 100 100 100 100 100 100 100 100 100 100 100 100 100 100 99 100 98 93 87
63 4 16 91 100 90 92 99 99 78 90 82 83 100 100 100 100 100 100 65 7 71 100 100 100 100 100 100 100 100 100 100 95 100 100 100 100 100 100 100 100 100 100 100 98
2 6 13 94 100 100 100 94 100 98 74 48 90 100 100 100 100 100 98 98 89 100 100 100 100 100 100 100 100 100 100 100 100 41 100 100 100 100 100 100 100 100 100 100 100
0 5 8 100 100 98 100 55 79 98 98 99 82 100 100 100 100 96 100 100 100 100 100 100 100 100 100 100 100 100 94 97 98 98 90 100 100 100 100 100 100 100 100 100 100
2 5 5 80 98 100 100 100 100 100 100 100 100 100 100 100 94 99 100 100 100 100 100 100 100 100 100 100 98 100 100 100 96 99 100 100 98 100 97 81 30 93 100 100 100
4 6 5 14 39 79 81 100 100 100 100 93 100 100 100 100 100 35 80 100 100 100 100 99 100 100 100 100 100 75 99 97 94 100 100 100 100 47 15 6 52 5 7 91 100
1 88 5 5 23 100 98 100 100 100 100 91 51 65 62 73 89 56 94 92 100 100 100 100 96 100 80 95 100 100 100 80 31 100 100 99 82 70 86 72 21 44 93 35 15
0 23 5 5 71 100 100 100 97 100 59 34 10 97 100 100 100 100 100 100 100 100 100 44 53 98 100 100 100 100 100 100 100 99 100 100 100 100 100 93 87 99 89 7 0
28 73 5 5 96 100 68 56 66 5 35 5 5 19 5 32 68 97 100 100 100 49 93 81 100 100 97 100 100 100 100 100 100 79 99 98 92 64 80 100 100 12 5 4 5
22 88 9 5 83 89 84 5 5 5 5 5 5 6 48 95 72 98 100 100 97 86 58 86 100 100 100 100 100 100 100 100 100 100 100 100 100 10 100 100 72 5 5 5 5
22 63 92 94 17 88 6 5 5 32 5 5 16 96 100 100 91 100 72 72 83 100 100 100 100 100 100 100 100 100 100 100 100 100 99 100 100 100 100 100 97 90 22 89 83
31 98 87 98 15 7 5 5 17 5 5 5 5 85 100 100 100 98 79 94 100 97 99 100 100 100 100 100 100 100 100 100 100 100 100 99 99 100 100 100 100 100 100 100 100
56 100 99 6 5 73 100 98 69 5 14 5 10 32 60 62 99 82 47 92 100 100 100 100 100 100 100 100 100 100 100 100 100 100 100 100 74 100 100 100 100 100 100 100 66

GFSSW_prec_cloud_066.txt.gz
Cloud_Cover
38 51 90 100 100 100 100 100 94 100 95 99 31 5 4 0 4 90 76 76 17 0 51 5 54 100 100 100 100 97 40 100 100 100 100 90 6 5 24 12 0 0 0 0 0
94 100 100 100 100 100 100 100 99 100 100 100 100 100 79 23 9 0 18 0 3 0 14 35 60 98 100 100 100 88 6 100 100 100 100 100 86 5 0 44 35 4 0 0 5
75 98 100 100 100 100 100 99 90 100 100 100 100 99 79 31 53 4 5 5 5 31 13 5 84 87 100 100 100 100 38 100 100 100 100 100 81 5 4 3 18 90 100 61 5
99 100 100 100 100 100 100 100 100 100 100 84 87 73 100 73 10 13 20 8 4 38 74 7 77 99 93 99 100 100 100 100 100 100 100 100 100 51 5 5 5 94 100 85 22
100 99 97 38 93 98 5 81 96 77 97 40 84 6 14 71 39 98 93 98 98 100 47 4 99 100 100 100 100 100 100 100 100 100 100 100 100 23 5 5 13 48 96 45 11
7 44 5 5 5 5 7 100 100 44 66 19 38 1 16 90 0 71 100 100 100 100 100 1 40 100 100 100 100 100 100 100 100 100 100 100 100 100 34 5 5 28 95 100 90
5 4 61 53 99 46 5 7 6 95 100 96 84 14 33 0 0 6 100 100 100 98 47 1 43 100 100 100 85 100 100 100 100 100 100 100 100 100 100 27 5 21 100 100 100
64 67 73 5 85 48 5 95 100 100 100 26 94 36 36 4 5 54 100 100 100 100 100 2 58 100 100 100 100 100 100 100 100 100 100 100 100 100 100 32 99 100 54 100 100
37 5 5 3 5 5 5 14 78 100 100 75 94 94 20 24 5 99 95 100 100 100 18 1 89 100 100 100 100 99 100 100 100 100 100 100 100 100 100 100 90 99 100 100 100
46 82 53 74 95 100 54 5 52 21 32 39 96 53 4 8 5 5 76 100 100 100 88 55 93 100 100 100 94 96 100 100 100 100 100 100 100 100 100 100 100 86 100 100 100
44 100 98 30 70 100 100 31 90 73 42 67 24 28 5 5 4 3 100 100 99 100 100 13 98 100 100 98 100 100 87 100 100 100 100 100 100 100 100 100 100 100 100 100 100
87 24 5 62 98 13 66 100 100 100 92 100 80 66 8 12 8 13 98 100 100 100 88 63 96 100 100 100 90 100 100 100 100 100 100 95 100 100 100 100 100 100 100 100 100
100 98 55 100 100 82 82 100 100 100 100 96 8 20 10 4 35 100 100 100 98 99 59 42 100 100 100 100 100 100 98 100 100 100 100 100 100 100 100 100 100 100 100 99 100
100 6 100 100 100 99 100 100 100 100 97 88 82 74 8 92 100 100 100 100 99 100 90 100 100 100 100 100 100 100 100 70 100 100 100 100 100 100 100 100 100 100 100 100 82
100 8 100 99 100 93 92 100 99 92 100 100 93 49 42 100 100 100 100 98 100 100 100 100 100 100 100 100 100 100 100 100 100 100 100 100 100 100 100 92 100 100 100 100 100
100 5 98 100 44 82 57 99 98 89 100 99 66 100 100 97 100 100 100 90 72 100 100 100 100 100 100 100 100 100 100 100 100 100 100 100 100 100 100 100 78 98 100 100 100
99 6 7 86 100 82 100 100 96 89 62 49 100 100 100 100 100 100 100 42 65 100 100 100 100 100 100 100 100 100 100 100 100 100 100 100 100 100 100 100 100 72 92 100 100
29 5 69 56 100 100 100 67 50 100 100 99 100 100 100 100 100 100 98 47 100 100 98 100 100 100 100 100 100 100 95 96 100 59 100 100 100 100 100 100 100 100 100 100 100
5 5 5 8 88 70 98 33 100 100 98 100 100 100 100 100 100 56 100 100 100 100 100 100 100 100 100 100 100 100 100 93 100 90 100 64 100 100 100 100 100 100 100 100 100
4 5 5 5 7 80 72 78 100 100 100 98 100 95 100 67 52 53 84 40 100 100 100 100 100 100 100 100 100 100 100 100 100 100 100 100 91 100 100 100 100 100 100 100 100
0 2 5 5 6 70 100 100 100 100 98 100 90 91 55 31 53 5 22 50 100 100 100 100 89 96 100 100 100 100 99 98 96 100 100 100 96 100 100 100 100 100 100 100 100
0 49 1 1 67 94 100 100 99 88 99 34 7 8 5 16 5 5 16 100 100 100 97 100 100 99 100 100 100 100 99 63 95 100 100 100 100 100 100 100 95 98 100 100 100
0 3 3 0 91 97 18 10 18 5 5 5 5 5 5 6 68 23 99 100 94 71 63 57 95 99 100 100 100 100 100 100 100 97 97 86 100 100 100 96 99 96 24 3 11
1 44 5 5 51 100 94 61 5 5 5 5 5 27 9 7 40 74 100 100 99 100 35 7 7 64 46 87 100 100 100 100 100 62 54 84 100 100 100 100 100 100 82 100 100
20 83 56 77 7 43 73 20 0 8 5 5 5 5 97 100 100 100 100 71 5 38 78 77 99 100 80 33 91 100 100 100 100 100 100 79 98 100 100 100 100 100 100 100 34
100 97 96 11 5 17 39 80 37 11 5 5 5 32 72 100 100 100 100 100 100 30 58 61 39 74 100 100 100 100 100 100 100 94 8 27 40 99 100 91 99 70 100 100 99
66 90 96 8 6 90 100 100 49 13 6 5 5 5 5 5 11 41 56 100 100 100 100 96 67 100 100 100 100 100 100 100 100 100 100 100 100 100 100 100 100 100 100 100 100

GFSSW_prec_cloud_069.txt.gz
Cloud_Cover
17 14 34 86 100 100 100 100 100 100 100 100 100 86 100 11 83 83 3 27 4 5 0 0 19 53 45 100 100 100 95 47 18 59 100 100 49 5 5 3 0 1 0 14 32
96 100 47 99 100 99 100 99 100 100 100 100 100 100 98 95 46 66 32 20 17 16 10 2 0 73 69 73 100 100 100 100 100 100 100 100 46 66 4 5 5 0 0 0 5
100 100 97 15 51 100 100 100 80 94 100 98 100 100 100 87 88 62 100 100 53 20 8 0 33 19 100 89 100 100 100 100 100 100 100 100 100 100 5 4 5 5 0 0 0
100 60 26 94 5 6 38 70 5 5 52 58 53 100 100 100 100 100 98 100 53 10 20 32 3 24 39 72 92 100 100 100 100 100 100 100 100 100 87 5 2 3 15 18 0
46 48 23 2 5 30 66 19 5 30 44 67 98 100 98 82 100 95 100 100 100 50 91 99 4 54 79 32 96 100 100 100 100 100 100 100 100 100 79 3 3 5 5 5 6
6 100 18 5 71 5 5 5 5 5 21 47 94 16 50 100 100 100 100 100 100 96 81 100 12 3 89 99 98 100 100 100 100 100 100 100 100 100 94 5 5 20 5 5 5
9 8 48 5 5 4 5 5 5 99 62 4 3 73 64 14 92 83 98 100 100 100 90 93 99 11 95 97 100 100 100 100 100 100 100 100 100 100 100 23 7 12 92 37 5
5 5 5 5 5 9 19 4 5 51 100 100 100 98 62 10 1 0 3 99 100 100 100 100 97 91 96 85 100 100 100 100 100 100 100 100 100 100 100 100 93 6 65 100 100
5 6 23 53 99 100 100 100 92 62 100 67 87 99 100 100 33 0 0 51 100 96 100 77 100 8 74 97 100 100 60 100 100 100 100 100 100 100 100 100 99 34 45 87 100
5 19 88 100 100 100 100 100 95 19 46 26 98 94 76 91 4 1 4 93 100 100 100 62 100 74 76 81 100 98 10 76 100 100 100 100 100 100 100 100 100 24 29 100 100
8 83 87 100 100 100 100 100 100 100 100 65 42 46 19 29 2 2 4 100 100 100 100 100 95 50 38 70 70 100 100 100 100 100 100 100 100 100 100 100 100 93 72 100 100
56 9 98 100 100 100 99 100 68 100 100 100 100 100 29 36 5 3 99 100 100 100 100 100 18 54 70 100 100 100 99 96 98 100 100 100 100 100 100 100 100 100 77 100 100
100 39 100 85 87 76 100 97 100 97 97 100 76 56 85 32 34 14 100 100 100 100 77 5 37 86 73 100 100 99 94 100 88 20 100 100 100 100 100 100 100 100 100 100 100
100 68 100 16 52 95 89 100 100 54 99 82 88 96 52 33 35 31 95 100 100 100 95 86 64 51 100 100 100 100 96 100 86 66 100 100 100 100 100 100 100 100 100 100 100
100 100 97 5 26 83 42 79 91 100 99 100 100 40 95 91 100 100 100 100 85 97 99 100 32 100 100 100 100 100 99 92 75 100 78 100 100 100 100 100 100 100 100 100 100
100 100 36 64 100 73 98 66 77 100 86 83 100 98 100 100 100 100 100 100 100 100 94 100 100 100 100 100 100 100 100 99 100 100 100 89 100 100 100 100 100 100 100 100 100
96 61 33 83 99 42 100 100 83 97 99 96 100 100 100 100 100 100 100 100 100 100 100 100 100 100 100 100 100 100 100 100 100 100 95 97 100 100 100 100 100 100 100 100 100
20 5 8 31 11 85 93 100 34 46 79 74 100 100 100 100 100 100 100 100 100 100 99 100 100 100 100 100 100 100 100 100 100 53 100 100 67 100 100 100 100 100 100 85 100
0 5 91 59 25 96 100 39 100 100 99 100 99 100 100 100 76 69 100 100 100 100 100 100 100 100 100 100 100 100 100 100 100 100 45 48 72 100 100 100 100 100 100 100 93
0 3 8 5 99 100 44 94 95 100 97 100 99 76 100 97 91 87 100 100 100 97 100 100 100 100 100 100 100 100 99 91 100 100 56 5 10 98 100 100 100 100 100 100 100
0 26 5 5 70 41 91 100 100 83 84 100 81 81 68 96 92 25 20 100 100 78 100 100 100 100 100 100 100 99 100 98 92 100 100 85 86 53 100 100 100 100 100 100 100
16 68 1 0 65 82 92 28 10 49 47 48 100 97 86 41 31 12 76 100 100 100 100 44 82 100 91 100 99 97 100 100 100 100 100 100 93 49 22 100 100 100 100 100 100
0 1 3 7 86 100 50 41 5 9 5 6 49 60 32 5 22 5 16 100 100 100 94 46 16 96 92 86 96 92 100 91 91 100 100 100 100 93 95 100 100 100 100 100 100
43 73 3 43 96 100 99 42 9 2 4 5 5 5 5 5 5 5 5 74 100 98 31 5 16 10 100 100 100 100 98 84 85 65 100 100 100 100 100 100 100 100 100 100 100
47 90 100 81 45 98 100 100 27 8 3 5 5 5 14 33 8 20 97 81 36 26 6 5 46 5 6 94 100 100 100 100 100 96 53 98 100 100 100 100 100 94 57 99 100
100 99 100 97 59 100 59 100 100 42 15 5 5 5 5 17 94 100 100 100 100 100 100 48 6 5 99 100 100 100 100 100 100 100 96 99 92 94 98 100 100 100 100 100 100
89 88 100 15 94 96 56 87 91 97 13 3 5 5 5 46 94 29 18 22 69 61 97 100 100 100 99 52 57 70 100 85 72 96 100 100 100 97 94 99 100 100 100 100 100

GFSSW_prec_cloud_072.txt.gz
Cloud_Cover
42 52 16 5 57 8 74 96 74 89 100 100 100 100 100 100 100 94 32 10 96 5 0 33 0 0 40 59 100 100 100 96 40 37 100 100 100 93 69 5 4 1 0 38 10
24 73 5 89 5 5 4 3 98 94 77 100 100 100 100 100 100 100 99 20 100 100 4 1 15 0 42 46 100 100 100 86 100 100 100 100 100 100 74 21 5 5 0 61 19
100 46 19 11 6 28 32 5 6 21 5 68 100 100 100 100 100 100 100 67 100 8 9 0 52 0 51 4 99 100 100 100 100 100 100 100 86 100 94 47 11 32 0 0 5
23 18 5 81 25 5 5 34 5 5 5 5 97 100 100 98 94 100 100 100 100 53 42 30 16 76 28 55 80 100 100 100 100 100 100 100 100 24 100 100 97 96 0 0 0
83 6 6 5 5 4 4 1 2 5 5 2 5 30 63 91 87 100 100 100 100 72 83 42 3 95 16 29 34 99 100 100 100 71 100 100 100 100 100 100 15 3 0 7 0
97 5 5 5 5 4 5 11 5 36 5 1 12 81 100 97 54 100 100 100 100 100 26 98 6 3 100 54 63 78 100 100 99 99 100 100 100 100 100 96 7 5 5 26 1
25 25 0 5 5 20 100 100 89 52 0 3 50 96 85 93 97 69 100 100 100 100 79 100 73 39 100 20 100 62 100 95 92 100 100 100 100 100 100 79 5 26 19 5 5
28 8 60 96 18 51 100 100 100 100 5 5 20 100 99 11 2 8 61 100 100 100 100 100 100 44 72 100 94 46 60 97 92 64 100 100 100 100 100 100 100 100 100 56 5
5 39 100 72 5 10 78 100 100 100 26 19 71 99 100 100 19 16 6 97 100 100 100 100 100 79 100 73 70 10 99 88 53 64 100 100 100 100 100 99 86 98 98 87 100
9 19 90 5 5 5 85 82 25 69 70 17 16 41 100 100 66 5 35 50 100 100 100 100 100 100 96 89 52 13 28 10 89 5 54 100 100 100 100 100 100 100 100 97 100
64 100 96 6 5 5 76 66 56 54 100 100 100 58 72 77 51 5 5 74 100 100 100 100 100 100 97 100 39 10 40 60 100 59 66 100 100 100 100 100 100 100 100 100 100
11 91 39 5 5 65 5 77 100 91 100 83 97 100 27 98 39 5 11 34 100 100 100 100 100 100 100 100 85 73 100 86 100 100 44 89 100 100 100 100 100 100 100 100 100
47 12 6 5 5 62 60 91 86 58 48 44 36 80 98 100 5 9 19 43 40 100 100 100 100 100 100 100 90 19 5 34 100 68 100 18 100 100 100 100 100 100 100 100 100
80 33 5 5 5 5 56 99 68 83 98 100 100 49 46 26 30 40 9 49 92 47 100 100 100 100 100 100 100 5 91 96 100 83 26 79 87 100 100 100 100 100 100 100 100
98 97 8 5 5 20 23 26 96 90 49 61 41 13 63 71 83 100 100 100 100 100 100 100 100 100 98 100 85 42 96 52 100 76 94 100 69 100 100 100 100 100 100 100 100
100 100 5 5 91 7 7 71 62 94 99 100 100 100 100 99 100 100 100 100 100 100 98 94 96 100 68 82 100 100 86 100 98 100 73 100 10 4 100 100 100 100 100 100 100
1 14 0 0 8 5 35 32 90 86 100 96 100 100 100 100 100 100 100 100 100 100 100 100 100 100 100 100 100 100 100 100 100 100 20 100 52 0 84 100 100 100 100 100 100
0 0 0 18 3 44 100 98 31 79 100 100 99 100 100 80 86 100 100 100 100 100 100 100 100 100 100 100 100 100 100 100 99 65 12 20 60 0 17 100 100 100 100 100 100
0 0 8 2 0 66 100 92 100 94 97 100 100 100 100 100 100 100 100 100 100 100 30 88 99 100 100 100 100 100 100 100 96 96 63 17 21 8 0 100 100 100 100 100 100
2 0 0 0 0 18 42 83 100 86 99 100 83 6 87 100 100 100 100 100 100 100 98 44 100 100 100 100 100 100 100 100 100 100 100 96 23 5 5 67 100 100 100 100 100
3 32 1 0 0 36 68 87 93 97 57 66 5 86 81 98 100 100 100 69 100 100 100 100 100 100 100 100 100 100 100 99 99 100 100 91 15 4 27 99 100 100 100 100 100
4 43 2 0 67 98 93 29 55 54 58 98 95 41 82 25 20 83 100 100 100 100 100 100 100 100 100 68 100 100 100 96 98 100 100 100 100 70 83 67 100 100 100 100 100
1 5 3 0 67 69 29 30 5 8 17 21 58 11 5 5 90 100 100 100 96 100 100 100 100 100 100 100 98 100 48 89 100 100 100 100 100 100 100 94 100 100 100 100 100
85 94 3 99 87 64 92 98 63 4 5 5 5 5 5 5 4 86 100 100 100 72 100 98 87 99 70 100 91 100 31 82 98 100 100 100 100 100 92 22 84 100 100 100 100
86 96 100 95 13 100 100 100 100 19 5 2 7 5 5 21 5 5 67 100 100 100 100 49 5 12 20 6 96 98 95 84 100 88 100 100 100 100 100 100 100 100 100 100 100
89 76 93 49 100 99 67 100 100 100 8 41 29 5 5 5 3 5 2 86 100 100 100 24 5 30 100 100 100 100 89 50 78 90 100 100 100 100 100 100 100 100 91 100 100
88 100 97 14 84 100 97 95 59 100 47 6 5 24 8 6 19 5 5 23 46 56 98 68 59 46 5 63 100 100 100 100 100 7 64 100 100 100 100 100 100 100 100 100 100

GFSSW_prec_cloud_075.txt.gz
Cloud_Cover
5 13 18 5 1 5 1 0 3 0 4 28 78 100 100 100 100 100 100 100 95 8 3 4 0 0 77 73 50 5 30 100 100 98 100 100 100 100 100 96 88 3 0 0 0
6 25 5 1 5 5 5 5 5 3 2 21 3 5 80 100 100 100 100 100 100 100 14 15 14 0 94 70 11 6 12 100 100 100 100 100 100 100 96 100 77 5 0 1 4
4 5 7 4 1 4 5 0 5 4 1 4 0 1 5 95 92 100 100 100 100 100 98 11 6 0 31 12 74 53 1 100 100 100 100 100 100 100 100 100 100 5 5 5 6
9 7 53 5 5 5 5 2 2 0 13 2 5 5 5 19 42 100 100 100 100 100 100 49 33 86 1 76 17 34 0 99 100 100 100 100 100 100 100 61 88 90 5 5 5
83 51 26 38 5 8 29 27 40 52 25 49 26 1 5 23 30 87 100 100 100 100 100 100 26 66 0 2 14 6 5 50 100 100 100 100 100 100 99 99 100 64 5 5 5
100 5 7 4 7 50 99 100 100 100 100 70 88 26 5 90 59 49 100 100 100 100 100 94 92 36 78 3 0 0 3 100 100 83 100 100 100 100 100 100 100 99 5 5 5
65 5 63 100 41 97 97 100 100 100 100 100 39 11 5 95 90 100 100 100 100 100 100 100 100 100 12 10 4 5 2 100 100 100 100 100 100 100 100 100 100 98 5 4 37
100 53 89 14 96 34 6 6 96 100 100 100 44 100 100 19 98 100 62 100 100 100 100 100 100 94 99 37 21 52 65 96 100 100 100 100 100 100 100 100 100 87 88 14 77
99 100 100 100 72 5 5 91 18 63 100 97 100 100 100 81 36 19 6 20 100 100 100 100 100 100 100 96 23 18 84 24 100 100 100 100 100 100 100 97 92 100 100 95 94
98 95 100 9 5 5 1 5 6 7 72 52 89 6 90 100 100 93 7 84 100 100 100 100 100 100 100 89 43 5 41 68 44 100 100 100 100 100 100 100 87 100 100 94 71
100 89 36 5 5 4 1 16 20 34 92 100 76 94 16 100 83 55 85 16 100 100 100 100 100 100 99 99 100 5 6 5 5 98 100 100 100 100 100 100 100 100 100 100 100
90 98 67 5 5 5 3 40 98 83 65 10 56 25 42 6 71 13 61 58 88 100 100 100 100 100 100 100 100 28 52 4 0 27 67 100 100 100 100 100 100 100 100 100 100
100 100 62 5 5 4 1 91 100 72 68 21 6 25 36 26 5 0 31 70 5 100 100 100 100 100 100 100 100 96 33 5 5 25 94 75 84 100 100 100 100 100 100 100 100
100 100 98 0 3 5 3 2 52 100 76 100 62 30 59 5 5 5 5 4 43 100 100 100 100 100 100 100 100 100 100 94 99 25 44 60 23 10 60 100 100 100 100 100 100
100 100 30 0 4 4 6 8 5 64 100 100 82 80 8 21 27 5 1 12 100 100 100 100 100 100 100 100 100 100 100 94 59 96 98 83 51 0 17 100 100 100 100 100 100
100 26 3 0 19 3 5 5 71 71 100 100 100 100 100 100 100 86 37 100 100 100 96 100 100 100 100 100 100 100 100 100 99 100 99 5 5 0 2 0 100 100 100 100 100
58 45 4 0 0 6 79 5 22 68 78 100 100 100 100 100 100 100 100 100 97 100 100 100 100 100 100 100 100 100 100 98 100 100 60 55 5 0 1 0 82 100 100 99 99
0 9 6 4 0 53 92 18 43 94 100 79 100 98 100 100 100 100 100 100 100 100 100 100 100 100 100 100 100 100 100 91 48 54 30 26 4 0 1 2 6 100 100 100 67
0 0 36 0 1 0 34 26 96 99 100 100 81 100 100 100 100 100 100 100 100 100 100 86 100 100 100 100 100 100 100 100 100 60 90 10 3 0 5 5 0 72 100 100 100
0 0 13 1 5 21 9 43 66 15 92 95 100 94 100 98 100 100 100 100 100 100 100 100 100 100 100 100 100 100 94 100 100 100 84 44 5 1 35 64 10 5 99 100 100
3 0 4 5 5 8 78 38 54 5 15 75 77 92 100 100 100 100 100 100 100 100 100 100 100 100 100 100 100 100 100 69 86 100 75 17 28 100 100 100 98 43 2 100 100
3 0 0 4 67 71 68 96 14 5 6 61 46 37 8 56 97 87 77 100 100 100 100 100 100 100 91 96 91 99 100 100 100 70 99 96 100 96 85 100 100 100 95 96 100
4 0 4 44 33 96 55 57 47 5 5 5 6 31 67 100 89 99 100 100 100 100 100 100 100 61 100 69 73 71 87 92 96 89 88 92 100 100 100 100 100 100 100 100 100
1 21 5 11 83 100 100 92 100 57 6 5 5 5 8 96 100 100 100 100 100 100 100 100 100 100 100 45 21 9 100 100 100 83 43 100 100 100 100 100 55 100 100 100 100
1 74 69 75 46 100 98 100 100 63 47 9 94 5 5 5 18 82 56 100 100 100 100 100 100 19 74 93 5 40 89 96 80 35 89 100 100 100 100 100 100 100 100 100 100
10 30 40 37 100 98 100 97 100 100 30 45 25 5 5 5 5 30 76 100 100 98 100 82 100 100 100 99 32 62 62 98 97 100 100 100 100 100 100 100 100 100 100 100 100
4 23 76 4 16 99 99 100 100 100 92 99 5 5 6 5 1 4 5 14 28 58 6 17 68 29 63 89 100 73 68 70 100 99 100 100 100 100 100 100 100 100 100 100 100

GFSSW_prec_cloud_078.txt.gz
Cloud_Cover
2 4 5 1 0 0 5 5 1 0 0 0 3 6 14 46 97 99 97 100 100 100 99 100 60 6 0 0 100 39 3 32 3 89 100 100 100 100 86 68 39 5 4 0 0
85 6 46 28 4 0 2 4 5 0 0 0 0 0 2 6 46 100 100 100 100 88 100 96 100 50 0 0 98 99 90 0 0 97 100 100 100 100 39 99 21 47 4 0 0
44 57 7 5 5 3 5 5 17 26 4 8 4 5 5 4 4 100 100 100 100 99 100 99 100 28 0 76 67 100 0 0 0 97 100 100 100 100 100 74 100 78 4 5 0
100 100 16 14 5 4 47 60 70 100 100 98 99 72 5 0 10 4 100 100 100 100 100 100 100 80 0 91 75 52 0 0 0 91 100 100 100 100 100 100 100 100 18 2 0
100 71 10 5 37 5 31 11 63 45 100 100 100 100 38 3 2 68 100 100 100 100 100 100 100 99 5 94 66 83 26 0 33 5 99 100 100 100 100 100 90 100 97 6 0
98 66 27 27 76 20 5 5 5 25 100 100 100 100 74 46 2 5 29 100 100 100 100 100 100 100 98 9 72 38 30 3 99 8 100 100 100 100 100 100 100 88 100 70 5
92 79 98 100 14 6 4 5 5 46 100 100 100 100 100 96 12 6 19 100 100 100 100 100 100 100 100 64 8 31 7 100 72 84 100 100 100 100 100 100 100 99 99 100 100
100 100 99 9 19 2 0 2 12 2 100 100 100 100 34 5 10 70 6 90 100 100 100 100 100 100 100 71 72 16 85 62 88 96 100 100 100 100 100 100 100 100 100 100 100
100 100 99 52 14 1 1 4 2 4 60 100 97 98 89 30 5 72 40 100 100 100 100 100 100 100 100 100 58 5 12 6 47 38 100 100 100 100 100 100 100 100 100 92 100
99 90 86 89 5 1 5 5 5 18 12 10 47 69 16 31 5 7 5 100 100 100 100 100 100 100 100 100 33 24 59 5 5 4 100 100 100 100 100 100 100 100 56 35 100
100 32 96 63 5 0 2 2 40 18 7 5 41 33 5 95 11 100 6 100 100 100 100 100 100 100 91 100 100 99 73 5 5 21 79 100 100 100 100 100 100 100 100 38 100
100 94 94 100 4 0 0 3 23 4 13 77 2 5 5 9 80 13 96 85 100 100 100 100 94 100 100 100 100 100 100 8 22 3 6 100 100 100 100 100 100 100 100 100 99
91 87 86 53 3 0 0 4 0 5 49 100 100 5 21 4 5 61 13 80 100 100 100 100 100 100 100 100 100 100 100 95 5 5 8 5 77 100 97 100 100 100 99 95 8
96 63 84 0 2 1 2 3 0 0 28 100 100 99 4 5 4 3 2 7 38 93 100 100 100 100 100 100 100 100 100 100 59 5 13 5 78 100 100 100 100 100 100 95 43
100 22 19 0 0 0 3 5 2 3 58 100 100 100 31 5 33 5 4 5 12 100 100 100 100 100 100 100 100 100 100 100 100 44 93 29 37 100 100 100 100 100 100 100 100
54 0 0 0 63 3 5 5 6 5 58 100 100 100 100 44 43 43 8 20 93 89 100 100 100 100 100 100 100 100 100 100 97 87 97 5 24 21 100 100 100 100 100 100 100
12 0 5 1 2 91 97 5 5 49 80 100 100 100 100 100 100 54 67 99 97 96 100 100 100 100 100 100 100 100 100 100 100 100 75 5 66 0 100 100 100 100 100 100 99
3 0 0 1 22 22 88 26 55 82 100 100 100 100 100 100 100 100 100 100 99 99 100 100 100 100 100 100 100 100 97 64 17 61 24 46 5 0 0 8 99 100 100 100 100
0 0 1 1 9 83 56 36 93 100 40 100 96 100 100 100 100 100 100 100 100 81 100 100 100 100 100 99 100 92 100 100 11 7 5 2 0 0 0 0 0 69 100 100 100
0 0 2 0 2 36 2 56 65 32 67 89 84 68 100 100 100 100 100 100 100 100 100 100 100 100 100 100 100 99 74 97 100 79 26 4 0 1 11 2 0 0 3 60 73
3 0 0 4 7 1 16 8 14 5 5 32 13 48 99 74 71 100 59 100 100 94 100 100 100 100 100 100 100 100 98 95 49 72 10 5 5 22 86 5 0 5 39 26 1
5 0 0 4 5 50 5 26 5 5 7 5 5 5 5 5 5 99 100 100 96 94 93 73 100 100 100 100 100 100 100 100 34 85 46 14 43 47 100 87 88 98 100 97 5
40 0 0 5 25 27 7 16 56 76 5 5 8 49 6 5 57 56 100 100 98 100 100 100 100 100 100 100 100 100 94 96 25 16 5 7 48 90 100 100 99 100 100 100 100
1 7 0 5 5 5 5 5 86 99 7 5 5 5 68 52 65 87 91 100 100 100 100 100 100 100 100 100 100 96 17 30 95 93 15 65 100 89 98 100 100 100 100 99 83
10 61 35 29 5 5 5 16 6 85 79 59 36 5 16 100 95 82 96 100 100 100 100 100 100 91 100 99 100 97 100 56 40 28 100 100 100 100 92 100 100 100 100 100 100
5 18 6 51 5 12 5 5 100 49 74 32 29 5 5 13 100 100 9 99 100 100 100 100 100 72 100 100 44 9 5 5 49 100 100 100 100 98 100 100 100 52 54 96 100
0 30 97 8 5 21 4 4 5 97 10 83 72 5 5 5 5 6 88 5 11 66 92 100 100 100 18 13 78 60 62 34 97 100 100 100 100 97 100 100 100 100 100 100 99

GFSSW_prec_cloud_081.txt.gz
Cloud_Cover
70 41 47 27 5 5 0 2 0 3 0 0 0 11 52 47 21 71 76 100 100 100 100 99 100 100 85 2 20 53 42 98 5 3 3 91 100 100 100 70 100 100 12 1 7
88 91 88 21 53 7 1 5 71 96 97 81 47 3 5 11 5 14 45 100 100 100 100 100 100 95 90 26 23 23 53 0 0 0 0 33 95 100 100 75 70 100 99 48 92
97 100 100 25 8 4 2 5 10 54 100 100 9 31 24 84 4 0 4 100 100 100 100 100 100 100 98 22 11 22 0 0 0 0 0 55 28 100 41 37 83 100 100 70 100
100 100 89 8 6 60 53 13 20 5 70 100 95 100 76 11 4 3 98 93 100 100 100 100 100 100 59 29 16 47 17 0 7 9 0 1 5 96 99 58 100 86 100 100 100
100 28 69 12 100 75 35 3 4 4 5 100 100 100 98 16 80 4 100 99 100 100 100 100 100 100 100 100 7 76 100 51 66 72 3 2 71 96 100 96 99 95 100 100 97
80 6 62 14 100 74 2 12 40 0 57 99 100 100 49 34 50 0 99 100 100 100 100 100 100 100 100 100 100 51 100 34 14 1 0 1 99 5 100 100 100 100 99 100 100
75 59 46 16 89 9 0 4 1 15 40 100 100 98 53 70 94 5 27 100 100 100 100 100 100 100 74 100 100 89 99 100 6 0 0 2 23 5 100 100 100 100 100 100 100
99 93 11 100 7 1 0 0 0 0 5 9 81 80 31 13 27 98 47 47 100 100 100 100 100 100 98 100 100 100 88 28 5 0 0 2 1 78 100 100 100 100 100 100 100
100 100 0 98 4 0 0 0 1 2 5 5 4 5 5 9 5 21 6 12 100 100 100 100 100 100 100 100 100 99 86 97 48 5 4 4 3 100 100 100 100 100 100 100 100
100 100 8 14 0 0 0 0 3 5 5 0 4 5 5 10 5 5 5 14 100 100 100 100 100 100 100 97 82 77 32 74 5 10 32 5 27 100 99 100 100 100 100 100 100
87 100 12 96 0 0 0 2 1 4 3 26 3 6 92 100 92 5 5 79 100 100 100 100 100 100 100 84 100 100 100 98 5 1 37 8 28 100 17 100 100 100 100 100 99
100 100 4 95 1 0 0 0 1 4 5 76 85 5 5 41 97 90 31 11 100 100 100 100 100 100 100 100 100 100 100 100 100 9 3 99 71 100 98 100 100 100 100 100 99
100 100 15 21 1 0 0 0 0 5 5 81 89 2 5 4 87 86 42 92 100 100 100 100 100 100 100 100 97 100 100 100 100 13 5 11 97 61 12 100 100 100 100 100 60
100 100 35 7 6 0 1 0 2 4 5 75 100 88 3 5 4 8 23 98 100 100 99 100 100 100 100 100 100 100 100 96 28 5 5 4 20 5 47 100 100 100 100 100 100
100 100 0 0 0 2 3 5 0 5 32 100 100 90 96 36 4 5 5 100 100 89 100 100 100 100 100 100 100 100 100 100 32 100 26 5 11 0 70 100 100 100 100 100 100
100 72 0 0 0 0 5 2 5 5 45 99 100 100 32 92 13 11 5 10 90 85 31 100 100 100 100 100 100 100 100 100 99 87 84 5 5 5 12 100 100 100 100 100 100
55 0 0 0 0 22 22 4 5 57 80 84 100 100 100 86 100 60 29 90 49 84 78 100 100 100 100 100 100 100 100 100 100 100 92 60 5 0 0 84 100 100 100 100 100
0 0 0 0 70 100 32 5 28 8 86 100 100 100 100 100 100 100 100 81 38 92 100 100 100 100 100 100 100 100 100 32 56 83 57 6 16 0 0 0 98 100 100 100 100
0 0 0 6 16 100 18 48 50 81 89 100 88 100 100 100 100 100 100 94 74 72 100 100 100 100 100 100 100 100 100 88 52 99 48 20 54 0 0 0 1 99 100 69 7
0 0 0 0 34 78 5 54 39 5 12 97 77 35 82 100 100 100 100 100 100 100 100 100 100 100 100 100 100 100 100 100 100 70 5 5 5 5 1 0 0 0 30 87 100
0 0 0 0 36 5 5 5 5 5 5 20 13 15 73 100 100 100 100 100 100 100 100 100 100 100 100 100 100 100 100 100 100 100 21 6 5 0 15 31 0 0 0 0 0
0 0 3 0 0 53 5 3 5 5 5 5 5 5 5 5 39 100 95 97 99 100 100 100 100 100 100 100 100 100 100 86 10 93 89 37 22 3 0 0 0 0 0 0 0
0 0 5 0 0 1 13 4 5 5 5 5 5 5 5 5 58 90 99 99 76 98 100 100 100 100 100 100 100 100 81 74 95 84 80 74 100 5 4 85 12 5 6 16 2
0 0 4 0 1 5 5 0 4 5 4 5 5 5 5 5 5 31 100 100 100 99 96 100 100 100 100 100 100 100 100 100 100 100 80 93 70 91 67 6 100 100 51 100 66
16 80 96 8 4 20 22 5 5 59 29 56 5 5 5 5 5 10 95 100 100 100 100 92 100 100 100 100 100 100 100 95 86 58 68 74 59 100 23 100 100 98 100 86 100
8 9 5 11 5 5 5 23 34 91 100 100 89 36 5 6 71 43 5 100 100 100 100 100 100 100 100 100 100 100 100 100 61 8 73 28 100 100 100 100 100 100 100 82 100
5 1 39 5 4 3 7 3 13 38 95 68 100 97 14 5 57 87 11 49 100 81 100 100 100 78 94 56 88 40 97 98 100 83 10 70 100 69 100 99 100 99 100 100 96

GFSSW_prec_cloud_084.txt.gz
Cloud_Cover
54 100 100 100 57 4 3 2 4 57 88 87 5 4 0 58 18 48 82 98 98 75 84 100 100 100 92 37 100 70 96 73 4 0 0 33 82 65 100 91 74 72 100 100 83
100 100 81 99 1 4 3 4 28 5 5 26 65 42 7 27 5 2 4 96 100 100 100 100 100 100 100 70 58 98 90 2 0 0 0 34 99 100 100 100 73 42 99 100 100
100 100 37 0 21 100 32 92 5 4 4 6 100 100 100 70 10 5 3 5 92 100 100 100 100 100 100 19 97 85 50 35 3 0 0 0 100 100 91 93 100 5 67 100 100
19 100 42 47 92 100 100 19 1 1 6 6 100 100 100 92 4 5 32 45 6 99 100 100 100 100 100 86 35 22 88 16 8 0 0 0 57 81 53 46 92 8 14 100 100
100 100 79 100 96 100 97 14 46 100 23 5 33 14 54 14 5 0 10 100 60 100 100 100 100 100 100 99 52 39 100 21 0 0 0 0 0 5 18 100 100 21 80 85 100
100 100 100 24 63 61 11 21 15 70 0 5 5 46 75 5 4 4 84 100 100 100 100 100 100 100 100 100 100 92 100 5 4 6 3 0 0 1 0 62 98 91 76 99 100
100 100 100 18 9 3 2 0 12 0 3 5 8 5 98 5 46 98 97 100 100 100 100 100 100 100 100 100 100 100 40 70 15 100 100 42 0 0 0 8 100 62 100 100 100
100 100 100 0 32 0 0 1 0 0 4 5 5 2 5 5 9 96 99 100 100 100 100 100 100 100 100 83 100 100 85 61 12 58 89 3 0 0 0 2 97 99 100 100 100
100 100 100 15 35 0 0 0 5 0 5 0 0 0 4 5 5 37 97 100 100 86 60 100 100 100 100 100 98 97 62 61 48 86 15 0 0 0 0 0 58 100 97 100 100
100 100 100 100 12 0 0 0 0 1 0 0 0 1 5 30 5 5 9 100 100 99 73 100 100 100 100 100 24 79 100 100 96 13 100 7 0 0 0 3 13 96 100 100 100
100 100 100 96 9 0 0 0 1 0 5 4 3 5 74 100 45 5 20 91 32 100 100 100 100 100 100 100 100 98 100 100 100 100 100 72 5 3 1 0 27 5 100 90 100
100 100 100 100 2 0 0 0 0 0 5 5 5 5 5 39 8 5 5 54 57 100 98 100 100 100 100 100 100 32 100 100 100 100 88 11 4 5 4 1 75 6 100 100 100
100 100 100 52 0 0 0 0 0 0 5 21 5 1 5 6 18 2 5 16 79 100 100 100 100 100 100 100 100 77 100 100 100 97 5 5 7 0 4 5 98 25 100 100 100
100 100 83 0 0 0 0 0 0 0 5 99 85 10 5 5 2 0 3 5 100 100 40 100 100 100 100 100 100 100 100 100 100 54 40 8 23 0 0 4 5 10 86 100 100
100 100 2 0 0 3 5 2 0 3 8 63 98 56 6 5 5 5 3 6 100 90 93 98 96 100 100 100 100 100 100 100 100 41 5 14 93 0 0 0 0 29 32 100 100
100 96 0 0 0 2 5 5 5 5 20 91 100 100 51 32 6 9 5 10 100 97 71 74 100 100 100 100 100 100 100 100 100 100 64 5 5 4 0 0 0 2 11 100 100
97 1 11 0 4 56 5 5 5 15 5 81 100 100 100 65 98 13 8 48 80 58 54 100 100 100 100 100 100 100 100 100 100 100 94 3 9 87 0 0 0 0 0 100 100
5 0 2 31 89 100 19 5 7 5 10 94 100 100 100 100 93 93 99 92 36 99 100 100 100 100 100 100 100 100 100 100 76 70 100 10 27 96 4 0 0 0 0 51 100
5 0 0 25 99 100 56 33 5 5 45 100 91 100 100 100 100 100 100 22 41 72 93 100 100 100 100 100 100 100 100 100 100 100 100 100 100 100 10 3 0 0 0 0 100
3 0 0 15 100 100 7 19 38 5 6 100 84 68 95 100 100 99 100 83 6 39 100 100 100 100 100 100 100 100 100 100 100 100 100 100 100 100 95 5 1 0 0 0 100
3 0 0 34 95 42 2 17 4 5 19 67 11 11 69 87 100 100 84 100 45 67 100 100 100 100 100 100 100 100 97 49 100 100 100 98 69 9 5 0 0 0 0 0 77
0 0 0 72 0 57 0 0 2 5 93 98 92 78 5 92 82 100 100 100 100 100 100 100 100 100 100 100 100 100 100 100 100 100 100 100 91 98 5 0 0 0 0 0 0
3 0 0 1 0 2 2 5 5 45 87 54 100 100 94 100 98 100 100 100 100 94 100 100 100 100 100 96 88 100 100 100 95 100 100 100 100 100 5 2 0 0 0 0 0
0 1 2 0 0 40 91 8 18 3 10 97 98 97 100 99 97 99 100 87 100 99 100 100 100 100 100 100 100 100 100 100 100 100 100 100 100 100 5 5 5 3 5 3 5
13 85 88 5 5 75 87 9 5 5 5 95 52 100 96 96 100 99 100 100 100 100 100 100 100 100 100 100 100 100 29 5 5 80 62 100 92 95 88 10 86 43 5 5 5
4 5 5 15 5 16 4 92 88 26 28 57 94 100 94 100 99 100 100 100 100 100 100 100 100 100 100 100 100 100 100 27 34 88 95 100 94 79 7 5 5 7 6 6 55
5 2 8 3 5 5 4 2 0 5 0 86 98 100 100 100 100 66 100 100 100 100 100 100 100 100 100 100 61 63 61 41 54 32 100 100 100 100 92 29 42 83 69 100 100

GFSSW_prec_cloud_087.txt.gz
Cloud_Cover
100 100 100 100 53 5 46 50 23 5 5 2 3 91 18 70 10 4 4 11 96 92 100 100 100 100 100 100 100 33 100 23 2 3 0 1 0 99 44 100 91 100 100 12 100
100 100 99 60 81 56 100 100 11 8 1 0 0 39 99 89 5 5 1 1 37 100 100 100 100 93 100 100 100 66 93 1 4 4 0 0 0 5 99 91 100 48 99 100 98
100 46 100 100 100 100 100 100 100 32 4 0 0 5 13 66 8 3 4 12 2 98 100 100 100 100 100 100 100 50 4 18 15 2 4 0 0 5 64 69 44 99 71 100 100
100 94 98 100 91 43 100 100 58 96 100 0 3 6 9 30 4 3 10 60 47 68 100 100 100 100 100 100 90 8 100 97 30 9 5 3 0 0 7 7 95 100 100 100 100
100 90 78 85 62 66 68 33 22 39 40 0 12 25 10 5 4 0 0 76 74 98 100 100 100 100 100 96 99 54 11 100 88 100 5 8 1 0 1 100 12 100 100 100 94
100 100 100 24 64 37 0 0 33 0 0 2 7 31 23 10 1 2 3 4 94 91 68 100 83 100 100 100 100 7 92 100 100 74 92 18 5 0 0 8 100 100 64 100 100
65 100 100 100 12 2 0 20 0 0 8 5 6 5 5 0 0 5 65 36 76 100 89 100 100 100 100 100 100 88 73 100 100 98 12 5 1 0 0 6 100 98 97 87 100
100 100 13 100 87 1 0 13 0 0 0 3 0 0 4 4 3 5 45 5 100 87 98 99 100 100 100 100 100 100 100 96 40 98 36 2 0 0 0 0 98 100 100 50 100
40 54 100 100 93 0 0 0 4 0 0 0 0 0 5 5 5 5 4 3 100 100 100 93 100 100 100 100 100 100 64 21 57 6 88 30 1 0 0 0 31 100 96 66 94
8 39 52 89 100 0 0 0 0 0 1 0 0 2 18 25 5 5 5 5 100 100 100 100 100 100 100 100 100 37 100 48 20 87 100 100 7 0 0 0 0 22 100 89 10
61 38 72 100 46 0 0 0 0 0 0 5 5 3 71 51 5 5 5 5 18 100 100 100 100 100 100 100 100 100 100 90 100 100 92 95 26 5 0 0 0 0 2 96 61
65 100 100 100 7 0 0 0 0 0 0 5 11 5 5 5 5 5 5 5 37 100 78 77 97 85 100 100 100 100 95 100 100 100 86 96 91 5 0 0 0 0 0 71 100
77 99 100 24 0 0 0 0 0 0 3 8 77 13 9 5 5 3 4 5 6 100 100 95 95 100 100 100 100 100 100 54 97 100 98 100 99 5 1 0 0 0 0 3 100
100 100 99 0 0 0 0 0 0 0 5 26 52 57 100 20 2 4 5 20 98 100 43 87 100 100 100 100 100 100 100 100 100 81 91 100 94 5 0 0 0 0 0 1 11
100 100 34 0 0 0 2 1 0 0 8 58 87 94 100 96 5 4 0 99 92 99 98 99 100 100 100 88 100 100 100 100 100 99 82 75 52 5 0 0 0 0 0 0 33
100 100 36 0 1 0 5 5 3 5 5 60 100 84 99 100 91 5 5 100 97 93 88 100 99 100 100 100 100 100 100 100 69 100 82 26 18 5 0 0 0 0 0 62 95
95 8 1 0 0 99 5 5 5 5 5 66 100 100 100 100 100 99 5 26 80 68 92 97 99 100 100 100 100 100 100 100 100 85 68 23 11 37 0 0 0 0 0 28 99
5 5 14 0 99 100 17 5 3 2 5 66 100 100 100 100 100 100 90 74 5 5 74 91 100 100 100 100 100 100 66 18 24 42 43 100 24 65 0 0 0 0 0 0 28
5 5 5 14 100 100 50 31 4 5 8 100 94 100 96 100 100 100 100 56 55 64 85 88 100 100 100 100 100 97 97 100 14 52 100 100 100 100 33 0 0 0 0 0 0
5 5 5 52 100 100 15 5 32 46 78 89 99 89 93 100 100 100 100 88 50 84 100 100 100 100 100 100 100 100 88 98 92 100 100 100 100 100 71 1 0 0 0 0 0
6 5 17 100 100 86 4 15 2 2 72 100 72 100 100 84 100 100 100 98 7 100 100 100 100 100 100 100 100 100 99 78 100 100 100 100 100 100 91 5 0 0 0 0 0
5 5 62 100 19 61 5 5 2 9 8 66 100 100 100 96 94 100 100 100 22 29 96 100 100 100 100 100 100 100 74 100 100 100 100 100 100 100 96 3 5 0 0 0 0
40 19 33 83 5 33 1 3 6 10 1 34 40 99 100 100 63 100 100 100 100 100 88 100 100 100 100 100 99 100 97 100 100 100 100 100 100 100 100 52 4 2 0 0 0
8 5 1 1 2 6 79 67 47 6 14 87 66 73 100 97 98 100 100 100 100 100 100 100 100 100 100 100 97 100 100 100 100 100 100 100 100 100 100 12 1 5 5 4 0
6 67 63 4 4 7 89 97 1 3 3 89 89 100 100 100 100 100 100 100 100 100 100 100 100 100 100 100 100 100 100 100 100 100 100 100 100 100 100 98 22 5 5 4 0
5 5 5 5 5 5 3 5 5 1 4 6 92 99 100 100 100 100 100 100 100 100 100 100 100 100 100 100 100 6 52 98 100 100 100 100 100 100 38 50 93 11 4 0 2
10 2 5 1 0 0 4 5 5 7 5 4 5 59 99 100 100 100 100 100 100 100 100 100 100 100 100 100 100 100 99 100 100 100 100 100 90 28 81 77 45 10 5 4 5

GFSSW_prec_cloud_090.txt.gz
Cloud_Cover
77 11 100 96 94 56 43 100 100 4 8 0 0 0 2 30 65 5 1 5 14 100 91 100 100 100 94 87 100 99 96 84 10 37 17 38 0 5 27 100 100 100 99 100 100
30 60 73 100 100 100 100 31 53 99 68 7 0 1 0 5 5 5 2 0 1 92 100 100 100 99 100 88 98 100 88 5 86 75 100 99 13 5 5 57 100 100 98 100 100
64 6 6 2 83 100 18 3 98 76 95 70 0 0 0 5 12 5 0 5 3 20 96 32 100 100 100 94 69 100 68 14 96 100 100 100 95 0 5 1 77 100 100 100 100
100 49 89 92 5 12 2 0 5 97 12 0 0 4 4 8 66 0 0 5 5 15 53 88 95 100 100 86 100 100 8 100 100 77 61 100 100 14 5 5 2 89 100 99 86
100 81 68 80 0 15 13 0 50 23 5 0 1 5 5 16 21 5 0 2 47 6 68 100 97 100 100 100 100 100 100 97 100 100 61 100 100 100 1 5 4 5 99 100 96
100 100 26 92 0 0 4 23 16 0 0 1 1 8 5 5 3 4 1 1 7 93 29 100 91 92 100 100 100 100 100 100 100 100 98 100 100 98 4 3 5 5 9 100 100
94 81 96 1 0 25 0 13 4 1 0 0 0 0 0 0 0 5 5 5 4 81 38 100 100 100 100 100 97 100 84 100 100 100 96 100 100 9 5 0 5 5 5 17 100
100 99 28 100 55 66 0 9 0 0 0 2 0 0 4 0 2 5 27 1 5 5 79 47 100 100 100 100 100 100 100 100 94 99 100 100 100 98 68 5 1 5 6 5 12
100 100 86 97 36 27 0 0 0 5 21 0 5 0 3 0 0 0 2 5 5 73 100 94 94 100 100 97 100 100 20 83 96 100 81 100 100 100 68 17 3 0 74 28 16
100 100 100 100 24 1 0 0 0 0 0 0 5 5 4 5 0 0 4 5 6 100 100 100 100 100 100 100 100 88 87 95 100 100 94 99 100 100 100 86 5 0 0 47 63
100 100 100 100 75 0 0 0 1 2 0 1 44 26 5 7 4 0 5 5 20 100 100 100 100 100 39 100 100 100 100 98 100 100 100 100 100 100 100 40 6 0 0 0 12
100 100 100 67 0 0 0 0 0 0 0 3 60 94 9 8 5 4 4 11 17 99 67 100 79 57 100 100 100 69 99 97 100 100 100 100 100 100 95 5 5 0 0 0 29
100 100 100 7 0 0 0 0 0 0 2 3 56 100 49 70 26 5 0 5 28 97 100 100 94 58 100 100 100 86 92 100 74 100 100 100 100 96 52 21 5 0 0 0 0
100 100 100 0 0 0 0 0 0 0 5 10 59 95 96 100 71 1 5 28 89 98 100 100 71 24 100 100 100 100 100 100 89 100 100 100 100 73 53 77 5 0 0 0 0
100 100 96 1 0 0 1 5 0 3 22 38 91 70 100 100 49 18 68 88 97 100 100 100 85 100 100 100 100 100 98 100 100 100 100 100 100 100 96 5 5 0 0 0 0
100 100 96 2 0 2 2 5 4 34 17 43 78 100 100 100 96 20 67 99 96 99 100 82 100 100 100 100 100 100 99 100 100 100 99 100 93 29 93 100 21 0 0 0 0
100 95 65 1 0 82 7 5 43 21 5 32 99 100 94 100 100 98 67 7 51 96 100 100 100 100 100 100 100 100 100 100 100 97 51 100 78 5 87 100 100 4 0 0 0
100 95 26 5 85 100 84 17 4 5 5 91 96 100 100 100 100 100 100 26 5 67 100 99 100 100 100 100 100 100 98 100 80 56 92 100 8 98 100 100 99 3 0 0 0
100 81 24 51 100 100 98 60 5 5 5 95 78 100 91 100 100 100 100 93 5 5 81 100 100 100 100 100 100 100 100 99 100 75 100 100 100 100 100 100 24 3 0 0 0
100 57 30 99 100 95 87 5 4 0 26 62 100 75 100 100 100 100 100 99 85 5 87 99 100 100 100 100 100 100 98 82 98 97 100 100 100 100 99 99 9 0 0 0 0
100 5 97 100 89 81 68 4 0 72 96 98 100 100 100 100 100 100 100 58 9 97 78 100 100 100 100 100 100 100 100 88 100 100 100 84 94 100 100 71 18 2 0 0 0
100 9 100 100 25 31 1 2 6 21 15 46 98 100 100 100 100 100 100 97 5 8 98 100 100 100 100 100 100 97 90 58 100 100 100 100 100 100 100 71 5 0 0 0 0
100 93 43 56 5 0 1 5 5 5 24 100 100 100 100 100 100 100 100 93 24 97 100 100 100 100 100 100 100 100 66 7 100 100 100 100 100 100 100 66 4 0 5 0 0
100 65 5 5 4 3 14 5 4 0 80 82 91 100 100 100 96 100 100 100 100 100 100 100 100 100 100 100 84 100 100 100 100 100 100 100 100 100 100 78 5 0 1 5 0
100 51 5 8 4 2 6 5 5 5 0 5 65 41 78 95 99 100 100 100 100 100 100 100 100 100 54 19 85 81 84 100 100 100 100 100 100 100 100 100 28 5 4 0 0
100 19 6 5 5 0 0 5 5 5 5 5 5 5 92 93 100 100 100 100 100 100 100 88 100 100 100 100 100 69 99 100 100 100 100 100 100 100 9 5 5 6 98 20 0
100 7 5 5 3 3 4 5 5 63 5 5 5 89 100 86 61 100 100 100 100 99 92 76 100 100 100 100 100 25 82 100 100 100 100 100 100 97 10 27 25 100 31 8 12

GFSSW_prec_cloud_093.txt.gz
Cloud_Cover
100 100 5 100 26 6 99 0 9 18 31 83 2 5 0 0 0 7 38 72 99 93 85 98 100 92 100 100 100 100 100 100 35 100 63 48 19 9 38 35 100 100 88 96 100
100 96 43 6 33 18 99 8 14 0 38 70 49 0 0 0 27 62 78 5 1 5 27 96 100 100 100 100 100 100 99 100 100 79 99 100 64 6 0 61 100 100 100 100 100
100 95 100 100 99 0 100 1 0 1 0 15 0 0 0 15 31 68 4 0 5 0 14 99 100 100 100 100 88 100 61 100 100 100 100 100 100 64 5 2 89 100 100 100 100
100 100 100 100 48 8 13 0 2 100 8 0 0 0 3 45 90 4 0 2 18 7 6 68 100 100 100 100 75 34 58 100 100 100 100 100 100 59 88 29 15 97 99 100 100
100 100 100 12 96 2 56 0 97 0 0 0 0 5 24 59 72 1 0 0 4 39 23 60 100 100 100 100 100 35 98 100 100 100 99 100 100 100 72 91 47 0 99 100 100
100 100 100 100 97 19 24 0 20 2 0 0 0 3 32 61 1 0 0 1 1 60 81 73 93 100 100 100 100 87 100 100 100 100 100 100 76 100 98 75 46 0 0 96 100
100 100 100 100 100 100 15 5 0 0 0 0 0 0 3 32 0 3 0 0 5 63 100 100 100 100 100 100 100 100 100 100 100 86 100 100 100 100 99 97 10 3 0 0 99
100 100 100 95 100 100 12 0 1 0 0 1 0 5 74 2 3 4 7 27 2 5 97 71 100 100 99 100 100 100 97 100 100 100 100 100 20 100 100 68 20 5 5 2 0
100 100 100 100 100 85 0 0 0 5 1 0 3 5 88 5 5 2 6 63 27 5 15 74 70 100 100 94 100 100 98 82 100 100 100 100 99 100 100 71 5 5 5 5 5
100 100 100 100 100 0 0 0 0 0 3 0 2 22 65 93 17 5 0 0 18 24 14 76 87 100 100 100 100 100 56 99 100 100 100 100 100 100 100 5 92 12 5 5 5
100 100 100 100 97 0 0 0 27 48 3 4 5 76 95 100 100 24 3 4 8 27 26 68 100 100 100 100 100 100 100 100 100 100 100 96 100 100 100 100 100 32 0 5 5
100 100 100 100 28 0 0 2 3 19 2 0 3 73 95 100 100 45 1 38 76 90 100 98 95 100 100 100 97 100 95 100 100 100 100 100 100 100 100 100 100 100 15 1 0
100 100 100 100 1 6 0 1 0 1 5 24 5 56 96 96 100 100 4 90 54 99 100 100 60 98 100 100 100 100 100 100 100 87 100 100 100 100 100 100 51 15 24 5 4
100 100 100 100 36 11 59 5 0 2 69 72 83 78 99 100 97 53 56 99 99 80 100 100 100 98 100 100 100 100 100 100 100 91 100 100 99 100 100 100 41 100 88 40 17
100 98 99 59 12 87 2 5 0 6 94 43 92 12 100 100 97 95 19 76 82 100 94 100 84 62 97 100 100 100 89 92 100 100 100 100 100 100 99 96 92 100 30 5 5
100 100 95 76 70 6 4 6 13 100 90 48 84 100 100 100 100 98 78 91 86 99 100 100 98 97 98 100 100 98 90 100 100 100 100 100 97 100 100 100 100 87 41 5 5
100 100 99 14 80 85 10 89 100 99 8 46 57 100 100 100 100 100 88 76 59 94 100 100 100 100 91 100 100 100 100 100 100 100 100 100 82 100 50 98 100 91 36 26 5
33 42 96 52 98 60 38 93 82 88 53 5 11 89 100 100 100 100 100 71 86 100 100 94 100 98 100 100 100 100 100 100 100 100 98 63 87 100 100 100 100 46 30 5 5
67 81 100 89 95 17 99 68 40 64 37 49 16 97 100 100 100 100 100 93 62 62 100 92 100 98 100 100 100 100 100 100 89 100 100 13 85 100 100 100 100 100 25 84 6
100 19 99 100 93 71 85 19 2 78 29 44 87 93 91 100 100 100 100 95 3 71 83 100 100 99 100 100 100 100 97 100 97 100 100 81 100 100 100 100 100 76 100 100 8
66 36 93 95 60 29 25 5 7 96 9 46 83 78 97 100 100 100 100 61 5 42 79 95 94 100 100 100 100 100 100 85 100 100 100 100 100 100 100 100 100 100 100 100 8
6 5 36 37 47 5 5 2 12 39 68 59 86 100 100 100 100 100 100 98 5 5 78 100 99 100 100 100 73 95 84 100 100 100 100 100 100 100 100 100 100 100 100 96 5
34 43 18 98 70 5 2 13 5 5 28 6 24 69 94 100 98 100 100 74 47 11 100 100 100 100 100 100 100 94 91 100 100 100 100 100 100 100 100 100 100 100 100 17 5
22 77 72 92 9 5 1 5 5 4 16 17 4 7 97 62 69 100 100 75 94 100 96 100 100 100 100 96 84 100 100 100 100 100 100 100 100 100 100 100 100 100 40 5 5
38 85 98 12 12 5 3 5 5 5 5 5 35 5 91 28 38 97 100 100 100 100 100 100 100 100 100 100 100 100 100 100 100 100 100 100 100 100 100 94 100 100 100 5 11
55 98 83 50 6 4 0 5 5 5 5 5 5 6 99 92 90 100 100 100 100 100 100 100 100 100 100 58 100 100 100 100 100 100 100 100 100 6 9 100 100 100 29 5 5
98 100 100 15 23 5 3 4 5 44 6 5 7 39 100 69 5 100 100 100 100 100 100 100 100 100 100 76 32 59 100 100 100 100 100 100 91 7 22 99 100 100 100 86 35

GFSSW_prec_cloud_096.txt.gz
Cloud_Cover
100 100 100 32 34 69 6 100 85 11 0 0 27 6 0 0 0 0 19 86 5 26 100 28 58 100 100 96 98 100 100 100 100 100 100 100 78 78 87 100 100 100 7 84 100
100 100 96 100 100 100 2 100 22 0 0 0 22 1 0 0 14 16 98 37 2 3 78 72 55 100 100 100 100 100 100 100 100 100 100 100 95 79 30 6 100 73 97 92 100
100 100 100 95 100 100 45 68 1 0 6 4 0 0 0 1 79 94 8 3 0 0 3 6 97 100 100 100 100 100 84 100 100 100 100 100 100 100 30 0 19 100 100 100 100
100 100 100 100 29 97 7 67 2 97 1 0 0 0 0 16 95 5 0 0 1 1 0 30 98 100 100 76 100 86 100 100 100 100 100 100 100 100 97 6 5 2 88 100 100
100 100 100 100 98 77 39 5 98 58 0 0 0 0 20 73 92 5 0 0 0 0 1 5 60 100 100 100 100 83 100 100 100 100 100 100 100 100 74 100 100 7 4 28 100
100 100 100 100 100 56 100 5 70 5 0 0 0 1 5 63 5 5 2 2 2 9 16 10 99 100 100 100 97 66 100 100 100 100 100 100 100 100 100 100 90 92 0 5 96
100 100 100 100 100 37 100 5 0 0 0 0 0 0 12 54 5 5 5 2 0 21 20 92 92 93 100 100 100 100 100 96 100 100 100 100 100 100 82 100 84 60 6 0 7
100 100 100 100 100 97 92 5 0 0 0 0 0 0 70 5 14 5 17 94 14 4 3 100 100 31 100 100 100 100 84 100 99 100 100 100 100 100 100 100 88 54 61 0 0
100 100 100 100 100 98 70 5 0 0 0 0 0 12 97 23 51 64 8 58 61 19 5 100 100 96 100 100 100 100 100 78 100 100 100 100 100 100 100 100 100 6 79 4 0
100 100 100 100 100 50 12 5 0 0 0 0 2 17 67 100 86 96 2 0 6 19 28 100 100 100 100 100 100 93 67 100 100 100 100 100 98 100 100 100 99 83 31 13 5
100 100 100 100 100 16 58 3 3 14 6 4 62 36 69 97 98 88 5 1 3 67 64 50 98 100 99 91 100 100 100 100 100 100 100 100 100 100 100 81 40 71 6 90 5
100 100 100 100 100 75 24 5 3 2 2 3 8 66 98 100 100 99 5 26 42 94 43 66 98 100 100 100 100 100 100 98 100 100 100 100 100 100 97 100 89 84 62 100 78
100 100 100 100 100 89 5 1 5 1 8 38 5 65 82 86 100 100 18 100 100 20 89 6 100 100 100 100 100 100 100 100 84 100 100 99 100 100 100 66 100 100 63 100 92
100 100 100 100 100 6 80 0 4 2 95 42 96 92 92 98 94 78 28 28 92 74 5 39 100 100 100 100 100 100 100 100 100 78 100 88 100 100 98 94 66 77 95 60 74
100 100 100 100 96 7 5 4 0 5 98 38 99 12 99 100 90 92 68 36 5 79 76 100 100 100 100 100 100 99 100 100 89 99 100 100 100 100 100 73 100 90 100 40 6
100 100 100 100 81 80 5 4 27 77 64 55 70 89 100 100 90 66 98 11 23 48 100 100 90 100 100 100 100 100 94 100 100 100 100 100 68 100 61 13 75 14 90 100 100
100 100 100 100 70 10 38 43 80 22 5 16 50 91 100 100 79 80 100 68 49 99 100 100 100 100 100 100 100 100 100 100 100 100 83 100 66 100 100 99 81 8 100 100 100
100 100 100 100 29 9 26 39 22 39 2 6 48 88 100 100 99 100 100 22 26 69 100 100 98 100 100 100 100 100 100 99 100 100 98 100 44 100 99 97 65 38 100 100 30
100 100 100 16 71 76 15 59 5 9 85 51 4 92 93 100 100 96 100 28 7 66 100 100 92 77 100 100 100 100 100 96 100 100 96 48 90 54 68 87 100 100 100 100 100
100 100 100 5 100 38 12 32 0 26 28 6 36 72 96 100 100 98 97 10 23 98 100 97 85 86 100 100 100 98 92 85 88 96 100 100 100 100 90 71 100 100 100 100 100
100 100 99 87 100 35 31 3 5 49 19 56 75 97 95 100 100 70 100 5 9 99 99 87 50 100 100 100 97 99 84 100 95 91 96 100 72 100 97 74 86 100 100 100 100
100 100 92 100 72 58 5 2 5 6 29 72 46 84 62 98 100 100 77 32 31 74 98 74 100 100 100 100 100 94 100 100 100 100 96 100 99 89 100 100 100 100 100 100 100
100 92 94 100 82 36 5 5 3 0 28 5 4 53 93 79 100 100 95 6 91 65 100 87 100 100 100 98 80 33 23 98 100 100 100 100 100 100 96 51 100 100 100 100 100
97 99 100 100 92 6 5 4 5 3 5 5 5 5 33 91 98 100 100 40 100 50 90 96 100 100 100 51 100 100 100 100 100 100 100 100 100 100 100 99 100 100 100 100 100
96 100 100 85 71 33 5 5 5 5 15 3 6 6 97 57 85 100 100 89 59 100 62 72 100 100 91 100 100 100 100 100 100 100 100 100 100 100 100 100 100 100 100 100 100
56 89 100 36 68 44 5 3 5 5 5 5 4 8 100 73 77 100 100 100 100 60 50 30 100 66 100 100 100 100 100 100 100 100 100 100 100 100 100 100 100 100 100 100 100
55 92 100 64 79 80 7 0 5 5 4 4 5 21 99 35 5 87 100 100 100 100 87 76 100 82 87 100 100 100 100 100 100 100 100 100 75 100 100 100 100 100 100 100 100

GFSSW_prec_cloud_099.txt.gz
Cloud_Cover
100 100 100 100 100 100 68 47 98 5 0 0 7 58 2 0 0 0 6 2 5 7 18 100 56 79 100 100 100 100 100 99 100 52 100 100 93 6 70 100 100 100 100 100 100
100 98 100 100 100 100 58 100 98 8 4 98 38 0 0 0 0 2 2 47 56 5 5 100 100 51 100 100 100 99 98 100 100 100 100 100 100 100 98 49 100 93 74 100 100
100 100 100 100 100 100 100 100 68 5 97 88 5 0 0 0 39 24 5 5 5 3 0 95 100 100 100 100 100 99 77 100 100 100 100 100 100 100 99 15 100 97 100 100 100
100 100 100 100 100 100 100 100 90 100 43 0 0 0 0 8 42 6 5 0 0 3 0 39 100 96 100 100 100 10 12 100 100 100 100 100 100 100 36 99 45 100 96 100 100
100 100 100 100 100 100 100 100 22 99 7 0 0 0 1 10 26 5 5 2 0 0 1 34 100 97 100 100 100 65 91 100 100 100 100 100 100 100 100 99 21 3 5 39 100
100 100 100 100 100 100 100 100 38 5 12 14 0 0 3 14 10 5 5 2 0 2 5 7 100 100 100 100 100 91 100 99 100 100 100 100 100 100 100 96 5 0 0 5 100
100 100 100 100 100 100 100 100 72 5 0 3 0 0 0 5 5 5 5 4 0 0 2 5 100 100 100 100 99 88 91 100 100 100 100 100 100 100 100 77 32 5 0 0 93
100 100 100 100 100 100 100 100 52 5 2 0 0 0 0 5 5 5 4 100 63 2 0 5 39 100 100 100 100 100 96 100 100 100 100 100 100 100 100 100 100 72 12 7 2
100 100 100 100 100 100 100 100 22 5 0 0 0 4 4 5 5 5 5 24 4 51 4 9 84 98 100 100 100 100 100 77 100 100 100 100 100 100 100 100 100 97 79 5 5
100 100 100 100 100 100 100 100 5 5 1 0 0 3 4 5 8 5 5 3 3 23 30 15 100 90 100 100 94 76 100 100 100 100 100 100 100 100 100 100 100 100 100 22 5
100 100 100 100 100 100 100 100 32 5 5 2 4 5 5 42 10 14 5 9 97 34 63 6 100 54 100 100 100 100 100 100 100 100 100 100 100 100 100 100 100 100 63 100 6
100 100 100 100 100 100 100 100 5 4 0 4 5 5 32 98 21 5 5 9 99 100 88 26 100 80 100 100 100 100 100 100 100 100 100 100 100 100 100 100 100 100 82 94 89
100 100 100 100 100 100 100 100 13 0 2 5 5 5 36 93 33 5 23 29 88 80 47 74 100 68 100 100 100 100 100 100 92 91 100 100 100 100 100 100 100 100 99 58 6
100 100 100 100 100 100 100 100 5 0 68 54 96 87 87 55 24 5 5 9 6 10 71 60 95 87 100 100 100 100 100 41 94 98 100 100 100 100 100 100 100 100 100 100 5
100 100 100 100 100 100 100 28 5 3 5 43 40 53 84 81 9 14 4 2 70 5 57 88 98 100 100 100 96 100 100 100 100 99 100 100 100 100 100 100 96 100 100 100 62
100 100 100 100 100 100 95 26 5 5 24 33 32 81 99 100 36 20 5 3 68 100 100 100 96 100 100 100 100 100 100 100 100 100 94 92 100 100 100 100 100 100 100 100 100
100 100 100 100 100 100 41 5 8 5 0 5 51 76 100 100 54 40 5 38 82 100 96 100 100 100 100 100 100 100 100 100 100 100 100 100 100 100 100 100 97 100 100 100 86
100 100 100 100 100 100 6 49 30 2 32 5 5 86 100 100 58 32 23 5 92 100 94 100 100 100 100 96 100 100 100 100 100 100 89 100 100 94 71 87 98 85 60 25 1
100 100 100 100 100 33 28 5 3 54 17 40 5 40 96 100 100 100 5 5 6 100 100 100 100 100 100 100 94 100 100 100 100 96 100 36 80 80 10 5 27 65 48 4 5
100 100 100 100 90 8 41 5 28 46 2 18 85 79 90 100 83 100 26 1 5 98 93 100 100 100 100 100 100 86 100 94 100 100 100 23 5 79 32 13 5 13 62 32 19
100 100 100 100 88 18 24 10 10 4 5 5 30 96 96 100 100 74 27 2 32 80 43 100 100 100 100 100 100 100 64 100 76 64 100 25 10 60 26 5 4 54 100 77 18
100 100 100 64 97 30 43 5 3 0 3 5 5 53 36 70 100 100 94 7 5 5 47 75 90 100 100 100 100 100 98 78 42 23 41 5 93 100 100 99 74 72 100 100 100
100 100 100 21 57 62 100 5 2 0 0 4 5 5 76 76 100 100 88 13 85 74 92 42 82 86 45 48 72 91 27 100 96 95 99 67 68 100 98 100 85 94 100 97 98
100 100 98 92 24 100 73 7 0 0 0 1 4 5 53 99 69 81 93 65 60 93 54 100 100 85 66 61 89 100 100 100 100 100 100 100 100 100 68 100 100 91 65 51 70
100 100 91 66 83 100 44 5 0 0 0 0 5 10 83 56 100 100 100 96 91 98 82 99 97 93 98 100 100 100 100 100 100 100 100 100 96 100 99 79 95 100 100 100 100
100 100 64 96 100 100 31 5 0 0 0 3 3 65 95 50 55 100 100 100 86 69 37 6 83 35 74 100 100 89 100 100 79 99 100 100 97 100 100 100 100 100 100 100 100
72 95 98 100 100 100 6 6 0 0 0 4 0 6 63 5 6 94 100 100 100 96 77 95 75 62 99 89 98 100 100 100 100 100 100 100 100 100 100 100 100 100 100 100 100

GFSSW_prec_cloud_102.txt.gz
Cloud_Cover
94 100 89 98 100 99 87 100 86 100 41 6 100 100 0 0 3 0 1 0 0 2 2 3 5 4 5 11 29 28 90 72 100 95 54 100 100 100 100 100 100 95 17 100 100
100 97 100 100 100 100 100 100 31 73 71 100 94 68 0 0 0 0 0 1 40 5 18 5 6 30 86 76 35 100 82 70 99 97 100 100 100 100 100 97 100 100 98 100 100
100 100 100 100 97 100 100 100 52 100 100 87 74 3 0 0 0 0 0 3 1 3 4 1 80 100 99 88 48 100 47 32 100 100 100 100 85 100 100 99 34 100 100 92 97
100 100 100 100 96 100 100 100 99 100 100 5 6 2 0 0 3 0 0 3 0 0 3 5 44 100 100 99 86 100 93 89 100 100 100 100 100 100 100 93 71 100 100 100 98
100 100 100 100 100 100 100 100 100 100 58 7 5 4 0 7 4 5 5 5 0 0 0 0 64 100 100 100 98 75 69 94 100 100 100 100 100 100 100 5 96 95 60 43 100
100 100 100 100 100 100 100 100 100 100 89 8 8 2 3 2 1 2 0 0 0 0 0 0 2 100 100 100 51 100 5 97 100 100 100 100 100 100 100 96 15 87 100 82 96
100 100 100 100 100 100 100 100 100 100 100 11 8 5 0 0 5 5 0 0 5 2 0 1 8 100 100 100 91 90 97 84 100 100 100 100 100 100 100 97 25 34 60 100 84
100 100 100 100 100 100 100 100 100 100 99 5 5 2 1 3 5 5 1 6 29 5 4 0 43 100 100 100 100 100 100 90 100 100 100 100 100 100 100 99 12 5 60 100 100
100 100 100 100 100 100 100 100 100 100 61 6 2 3 2 4 5 5 2 4 4 25 5 26 63 100 100 100 100 100 100 77 100 100 100 100 100 100 100 100 100 5 5 40 100
100 100 100 100 100 100 100 100 100 100 8 2 1 7 5 5 5 5 0 0 0 5 5 5 50 100 100 100 100 100 100 56 100 100 100 100 100 100 100 100 100 35 5 1 20
100 100 100 100 100 100 100 100 100 100 6 0 3 4 5 5 12 58 5 2 5 44 36 5 62 100 100 100 100 100 100 35 100 100 100 100 100 100 100 100 100 100 97 40 5
100 100 100 100 100 100 100 100 100 58 4 0 1 5 5 88 49 5 8 44 51 100 100 5 81 100 100 100 100 100 35 98 98 100 100 100 100 100 100 100 100 100 100 88 58
100 100 100 100 100 100 100 100 39 6 1 5 5 5 6 79 65 4 43 70 5 29 91 79 11 100 100 100 100 100 71 23 92 100 100 100 100 100 100 100 100 100 100 100 100
100 100 100 100 100 100 100 100 96 5 5 5 43 5 30 41 10 5 5 5 65 6 24 22 56 100 100 100 100 100 98 100 100 100 100 100 100 100 100 100 100 100 100 100 100
100 100 100 100 100 100 100 98 6 3 0 5 5 5 82 89 32 75 5 5 100 99 23 32 78 100 100 100 100 100 100 89 100 91 100 100 100 100 100 100 100 100 100 100 100
100 100 100 100 100 100 99 76 5 3 0 16 5 24 94 100 44 35 2 3 98 100 40 100 95 100 100 100 100 100 100 94 69 100 100 100 100 100 100 100 100 100 100 100 100
100 100 100 100 100 100 94 79 5 3 2 1 18 65 100 100 80 37 5 5 92 96 98 99 100 100 100 100 100 100 100 100 100 100 100 100 100 100 100 100 100 100 100 100 100
100 100 100 100 100 100 100 5 10 5 5 3 5 100 100 100 93 80 5 52 87 100 100 100 100 100 100 100 100 100 100 100 100 58 100 100 100 100 100 100 100 100 100 100 100
100 100 100 100 100 100 23 5 5 5 5 5 5 15 92 100 100 100 5 9 87 100 99 100 100 92 96 100 100 100 100 100 57 7 96 100 100 100 100 100 100 100 100 100 100
100 100 100 92 100 25 5 5 14 5 1 5 32 52 19 100 74 98 19 5 54 87 97 98 94 88 99 100 63 100 100 100 100 97 80 42 100 100 100 100 100 100 100 98 99
100 100 100 100 39 2 5 5 5 0 5 5 6 84 64 94 97 93 16 5 5 67 100 45 34 67 22 100 100 100 100 88 100 78 5 32 92 100 100 100 100 100 100 100 63
100 100 100 31 5 32 5 5 3 0 5 3 5 60 63 100 100 84 42 5 6 75 86 63 98 100 100 63 100 100 95 22 6 6 65 9 11 100 59 100 100 100 81 100 100
100 100 93 9 22 15 5 5 0 0 0 0 5 5 87 100 67 100 74 43 5 33 44 94 100 89 100 79 87 74 21 37 5 5 69 11 3 2 4 4 18 85 100 43 14
100 100 52 62 21 20 5 5 3 0 0 0 3 6 66 63 10 5 93 85 37 54 48 96 100 89 96 100 100 98 100 60 5 6 40 36 4 4 5 0 4 2 0 3 33
100 100 83 52 48 30 8 5 4 0 0 0 3 43 37 80 51 13 33 96 43 80 72 90 89 100 98 79 100 12 86 88 95 100 45 68 55 50 5 94 99 87 34 5 5
100 100 6 60 49 9 20 13 3 0 0 0 0 73 56 48 50 100 69 98 72 10 8 23 62 84 100 100 85 100 38 100 96 100 100 96 100 100 99 100 95 100 100 100 100
95 100 44 70 43 51 85 30 3 0 0 0 0 5 5 5 23 97 100 100 98 100 100 100 29 96 98 100 100 99 100 40 67 93 100 91 100 100 100 100 100 100 100 100 100

GFSSW_prec_cloud_105.txt.gz
Cloud_Cover
89 100 100 100 100 100 100 100 99 48 74 100 98 25 55 12 5 0 4 0 0 0 33 0 4 3 0 1 5 10 100 96 2 89 100 98 100 100 100 100 99 17 50 100 100
96 100 100 100 100 100 100 100 100 54 59 93 100 100 97 5 5 2 0 0 2 56 35 4 0 1 5 5 5 48 98 36 3 14 100 100 100 100 100 100 100 100 87 100 100
88 100 100 100 100 100 100 100 100 100 98 76 100 46 5 11 26 0 3 0 1 6 4 0 0 0 5 5 3 15 37 73 13 1 100 100 93 100 100 100 49 54 99 100 100
100 90 100 100 100 100 100 100 100 100 85 100 98 19 5 35 4 0 0 5 5 0 0 0 0 68 97 50 19 92 5 65 36 32 100 100 100 100 100 97 44 67 78 100 100
100 100 100 100 100 100 100 100 100 99 98 100 60 5 5 42 6 0 4 2 0 0 0 0 0 2 36 96 99 100 38 36 98 33 100 100 100 100 100 100 7 94 100 72 100
100 100 100 100 100 100 100 100 100 98 100 90 61 5 5 16 0 0 2 0 0 0 1 2 3 2 65 70 93 100 99 100 100 100 100 100 100 100 98 100 99 89 64 99 63
100 100 100 100 100 100 100 100 100 98 100 60 27 8 5 5 1 5 5 4 3 5 0 0 2 3 100 100 99 100 100 100 100 100 100 100 100 100 99 100 99 6 39 100 100
100 100 100 100 100 100 100 100 78 100 100 25 5 5 5 0 5 5 5 4 5 5 4 0 3 4 100 100 100 100 100 100 95 100 100 100 100 100 100 100 100 86 83 100 100
100 100 100 100 100 100 100 100 94 100 99 5 5 5 4 3 5 5 5 0 4 5 5 15 5 5 100 100 100 100 78 100 99 98 100 100 100 100 100 100 100 83 66 68 94
100 100 100 100 100 100 91 100 100 100 36 12 5 2 4 5 5 5 2 0 0 1 5 5 5 30 100 100 100 100 89 100 100 94 100 100 100 100 100 100 100 100 100 89 100
100 100 100 100 100 99 100 70 100 100 13 5 5 0 5 5 12 5 5 5 4 5 99 12 5 28 100 100 100 100 100 100 100 100 100 100 100 100 100 100 100 100 100 100 100
100 100 100 100 100 100 74 100 100 66 21 7 4 5 5 84 48 5 4 5 5 16 99 49 5 35 100 100 100 100 100 100 100 100 100 100 100 100 100 100 100 100 100 99 100
100 100 100 100 100 87 96 100 100 72 9 5 5 5 44 25 20 5 4 8 6 29 38 25 4 91 100 100 100 100 81 100 100 98 100 100 100 100 100 100 100 100 71 89 89
100 100 100 100 100 97 100 100 85 100 7 3 5 5 32 8 5 5 5 5 96 6 6 7 98 100 100 100 97 100 100 91 100 100 100 100 100 100 100 100 100 100 100 80 95
100 100 100 100 100 90 100 100 98 54 19 3 5 25 5 32 5 62 5 15 100 47 7 6 100 100 100 100 100 100 100 83 100 100 100 100 100 100 100 100 100 100 86 31 98
100 100 100 100 100 100 100 100 97 25 4 4 5 5 72 67 5 5 5 5 42 49 80 69 100 100 100 98 100 100 99 98 100 100 100 100 100 100 100 100 100 100 100 97 85
100 100 100 100 100 100 100 100 98 5 0 4 5 5 97 95 60 8 8 71 93 100 96 100 100 100 100 100 100 100 95 100 100 100 100 100 100 100 100 100 100 100 100 100 100
100 100 100 100 100 100 100 96 19 3 5 3 5 9 99 100 86 52 92 100 100 100 99 100 100 100 100 100 100 100 100 100 100 100 100 100 100 100 100 100 100 100 100 100 100
100 100 100 100 100 100 100 9 5 5 5 3 5 7 94 100 100 71 43 39 92 96 100 100 98 100 100 100 100 100 99 100 100 100 100 100 100 100 100 100 100 100 100 100 100
100 100 100 100 100 100 79 22 5 5 5 5 5 41 65 100 98 90 12 7 45 88 31 100 100 98 100 97 100 100 100 100 26 99 100 100 100 100 100 100 100 100 100 100 100
100 100 100 100 100 100 68 5 5 5 5 5 5 17 38 100 90 99 23 5 5 69 79 14 73 71 100 100 100 100 100 100 73 14 100 100 100 100 100 100 100 100 100 100 100
100 100 100 100 100 75 32 5 5 5 0 3 5 60 85 100 92 58 66 5 5 25 32 10 78 100 100 60 29 100 60 100 98 70 84 99 100 100 100 100 100 100 100 100 99
100 100 100 100 100 100 10 5 5 2 0 2 3 5 18 87 67 78 48 12 5 39 73 100 78 71 7 32 79 100 100 99 94 23 100 97 100 100 100 100 100 100 100 100 100
100 100 100 100 100 100 10 5 5 0 0 0 2 5 18 71 38 26 92 72 43 67 84 96 94 100 87 100 98 68 100 73 32 8 66 47 42 99 100 100 100 100 100 100 100
100 100 100 100 100 100 10 6 3 0 0 0 5 5 5 5 5 5 36 98 98 76 99 100 100 100 100 95 100 100 66 14 5 5 8 12 5 5 91 100 100 100 100 100 100
100 100 100 100 100 100 7 50 5 0 0 0 3 5 5 29 6 5 5 94 80 100 100 94 64 37 61 86 99 23 33 29 36 9 5 5 80 84 100 97 100 100 100 100 9
100 100 100 100 100 94 77 32 5 1 0 0 1 5 5 5 28 84 10 18 20 98 100 100 31 42 26 8 70 13 8 24 87 99 62 52 56 100 97 100 75 93 100 100 100

GFSSW_prec_cloud_108.txt.gz
Cloud_Cover
100 100 100 100 100 100 100 100 100 100 100 100 91 100 100 100 99 92 77 4 4 1 16 45 7 3 0 1 4 19 85 86 19 5 0 100 93 89 100 100 100 100 5 100 100
100 100 100 100 100 100 100 100 100 100 100 100 96 100 100 99 72 57 30 5 3 24 96 100 97 5 2 4 2 11 52 5 2 3 4 89 100 100 100 100 100 15 16 100 100
100 100 100 100 100 100 100 100 100 100 100 100 98 100 100 81 51 16 5 0 3 11 54 72 16 5 6 1 3 5 45 4 1 5 5 21 100 100 100 100 100 82 70 100 100
100 100 100 100 100 100 100 100 100 100 100 76 83 100 100 57 5 5 4 3 1 0 0 0 0 72 100 76 8 26 5 0 0 5 37 16 100 100 100 100 100 28 100 100 100
100 100 100 100 100 100 100 100 100 100 68 70 93 100 100 10 27 4 5 2 0 0 0 2 4 5 80 14 11 97 13 5 5 5 59 100 100 100 100 100 100 100 100 85 100
100 100 100 100 100 100 100 100 100 100 100 94 100 100 70 66 5 0 5 0 3 2 0 1 3 3 10 6 77 90 64 4 1 5 68 85 100 100 94 100 100 100 100 97 100
100 100 100 100 100 100 100 100 100 100 100 100 100 99 14 6 0 5 5 5 5 3 4 0 0 2 4 94 100 91 97 60 5 5 94 100 100 100 100 100 100 100 68 100 100
100 100 100 100 100 100 100 100 100 100 100 100 100 38 6 0 5 5 5 5 5 5 5 5 5 5 7 60 84 100 100 99 8 4 73 100 96 100 100 100 100 100 25 100 100
100 100 100 100 100 100 100 100 100 100 100 100 64 5 1 1 5 5 5 5 0 1 2 0 5 25 84 97 98 100 100 94 63 5 96 84 100 100 100 100 100 99 15 100 100
100 100 100 100 100 100 100 100 100 100 100 99 8 5 0 5 5 5 18 4 1 0 0 4 5 7 27 98 100 100 100 100 78 100 92 83 100 100 100 100 100 100 30 100 98
100 100 100 100 100 100 100 100 100 100 100 73 5 5 5 5 9 30 5 5 5 5 63 5 8 21 5 26 100 100 100 100 100 100 100 100 100 100 100 100 100 100 92 100 47
100 100 100 100 100 100 100 100 100 100 93 6 4 5 5 70 58 17 4 5 5 74 98 5 27 5 5 61 100 100 100 100 49 100 100 100 100 100 100 100 100 100 100 99 100
100 100 100 100 100 100 100 100 100 100 63 7 5 5 5 41 7 5 5 5 84 100 36 46 18 5 82 100 100 100 100 97 29 100 100 100 100 100 100 100 100 100 100 97 100
100 100 100 100 100 100 100 100 100 100 30 5 5 5 13 27 5 5 5 4 44 44 5 13 6 49 100 100 100 98 100 100 100 100 100 100 100 100 100 100 97 100 100 100 100
100 100 100 100 100 100 100 100 100 41 4 5 5 5 43 5 5 5 5 16 21 71 60 4 94 100 100 100 100 100 100 100 100 100 100 100 100 100 100 100 100 100 100 47 100
100 100 100 100 100 100 100 100 93 5 27 18 5 16 69 45 5 5 3 69 88 100 91 72 100 96 100 100 100 100 90 100 100 100 100 100 100 100 100 100 100 100 100 100 96
100 100 100 100 100 100 100 100 54 41 23 3 5 78 78 71 5 5 5 40 100 100 100 100 100 100 100 100 100 100 100 100 100 100 98 100 100 100 100 100 100 100 100 96 90
100 100 100 100 100 100 100 100 94 63 8 0 5 98 16 10 16 5 5 87 97 97 100 100 100 100 100 100 100 100 100 100 100 100 99 100 100 100 100 100 100 100 100 100 72
100 100 100 100 100 100 100 100 96 22 2 5 5 6 75 46 60 5 44 9 99 59 100 98 90 100 100 99 100 100 100 100 100 100 96 100 100 100 100 100 100 100 100 100 100
100 100 100 100 100 100 100 100 69 5 5 5 5 35 88 92 74 92 6 5 75 60 44 82 80 84 100 100 100 100 97 100 100 100 100 100 100 100 100 100 100 100 100 100 100
100 100 100 100 100 100 100 99 5 5 5 5 5 6 71 94 34 27 20 5 7 67 31 32 24 71 90 100 100 100 94 100 100 100 100 100 100 100 100 100 100 100 100 100 100
100 100 100 100 100 100 100 57 5 5 5 3 5 5 90 60 7 5 58 40 6 93 36 24 31 100 100 100 100 100 100 100 100 100 100 100 100 100 60 100 100 100 100 100 100
100 100 100 100 100 100 90 53 5 5 4 3 5 5 88 57 5 5 25 29 18 15 79 84 29 99 99 100 85 100 97 100 100 100 100 100 100 100 100 100 100 100 100 100 100
100 100 100 100 100 100 90 19 5 5 0 0 3 5 59 93 5 5 64 74 41 14 99 87 100 93 100 100 98 98 100 100 87 100 100 100 100 100 100 100 100 100 100 100 100
100 100 100 100 100 98 75 5 5 2 0 0 5 5 5 18 5 5 37 90 91 65 100 70 98 100 100 100 63 93 13 17 20 100 100 100 100 100 100 100 100 100 100 100 100
100 100 100 100 100 100 51 5 5 0 0 0 3 5 5 5 5 5 5 62 10 74 100 78 53 9 22 48 46 79 77 45 26 5 37 100 100 100 100 100 100 100 100 100 100
100 100 100 100 100 99 85 40 5 2 0 0 2 5 5 5 5 4 5 5 8 100 100 89 7 5 5 5 5 12 8 6 75 33 6 81 93 100 100 100 100 100 100 100 100

GFSSW_prec_cloud_111.txt.gz
Cloud_Cover
100 100 100 100 100 100 100 100 100 100 100 100 100 100 100 100 99 17 22 19 28 7 5 9 10 5 4 0 0 0 60 92 6 27 4 0 1 2 90 35 100 65 2 21 100
100 100 100 100 100 100 100 100 100 92 100 100 100 100 100 82 84 30 5 42 27 14 75 100 100 100 68 4 3 1 37 5 0 1 5 36 16 5 56 98 100 80 4 3 98
100 100 100 100 100 100 100 100 100 100 100 100 100 100 100 94 99 62 20 81 28 38 62 100 95 76 6 5 5 5 6 0 0 0 5 24 35 7 97 100 68 99 1 5 51
100 100 100 100 100 100 100 100 100 100 100 100 100 100 100 100 83 18 20 78 5 5 0 0 0 0 15 5 3 37 4 0 0 1 15 31 64 76 100 100 100 100 3 5 98
100 100 100 100 100 100 100 100 100 100 100 100 100 100 72 100 65 5 90 25 5 1 0 0 3 3 24 5 4 5 7 4 5 5 3 5 85 74 100 100 100 100 18 3 79
100 100 100 100 100 100 100 100 100 100 100 100 100 98 72 98 42 87 71 5 3 0 3 0 0 1 3 5 7 33 16 17 12 5 5 2 72 69 92 100 100 95 18 1 87
100 100 100 100 100 100 100 100 100 100 100 100 100 96 100 93 82 100 25 5 1 0 2 3 2 0 4 5 5 30 100 99 13 10 11 5 23 95 100 100 100 100 13 3 81
100 99 100 100 100 100 100 100 100 100 100 100 100 99 100 100 100 62 5 5 5 5 3 5 13 5 5 5 28 95 84 41 5 13 10 5 4 95 65 100 100 100 73 5 90
100 100 100 100 100 100 100 100 100 100 100 99 100 100 91 100 50 5 5 5 5 0 2 4 5 5 11 100 100 98 33 5 5 5 77 40 13 100 75 100 100 100 96 96 84
100 100 100 100 100 100 100 100 100 100 100 100 100 96 100 100 9 5 5 5 4 3 2 4 27 95 31 96 43 39 78 23 39 68 56 94 24 100 100 100 100 100 100 100 98
100 100 100 100 100 100 100 100 100 100 100 100 100 100 100 37 5 5 5 5 5 5 22 100 100 9 10 14 79 68 100 86 29 100 100 67 76 100 100 100 100 100 100 100 100
100 100 100 100 100 100 100 100 100 100 100 100 100 100 92 18 52 5 5 5 5 72 92 48 36 5 2 5 61 99 100 54 73 54 100 100 100 100 100 100 96 100 100 100 100
100 100 100 100 100 100 100 100 100 100 100 100 100 100 13 5 12 5 5 5 5 87 16 45 1 13 83 91 100 100 100 100 100 100 100 100 100 100 100 100 100 100 100 100 100
100 100 100 100 100 100 100 100 100 100 100 100 100 98 7 5 5 5 5 4 5 5 5 12 22 100 90 100 100 100 100 100 100 100 100 100 100 100 100 100 100 98 100 100 100
100 100 100 100 100 100 100 100 100 100 100 100 100 41 6 5 5 5 4 5 67 35 60 88 100 99 87 94 100 100 100 100 100 100 100 100 100 100 100 100 100 100 98 100 100
100 100 100 100 100 100 100 100 100 100 100 100 99 36 38 5 5 5 5 62 65 84 100 99 88 100 100 100 100 100 100 85 100 100 100 100 100 100 100 100 100 100 100 100 97
100 100 100 100 100 100 100 100 100 100 100 100 47 91 19 5 3 5 5 55 71 19 86 100 97 100 100 100 100 100 100 99 100 100 100 100 100 100 100 100 100 100 100 100 65
100 100 100 100 100 100 100 100 100 100 100 79 15 68 48 5 5 5 5 27 74 78 96 98 100 100 100 100 100 100 100 94 100 100 100 100 100 100 100 100 100 100 100 100 100
100 100 100 100 100 100 100 100 100 100 90 20 20 10 33 10 25 5 44 8 42 32 100 97 100 87 99 100 97 100 100 100 100 100 100 100 100 100 100 100 100 100 100 100 100
100 100 100 100 100 100 100 100 100 100 32 5 7 8 66 23 5 5 6 9 100 75 67 100 100 86 100 100 96 100 100 100 100 100 100 100 100 100 100 100 100 100 90 100 100
100 100 100 100 100 100 100 100 100 82 5 5 5 5 5 11 5 57 18 55 100 72 100 100 100 80 100 99 100 100 100 100 100 100 100 100 100 100 100 94 100 100 100 100 100
100 100 100 100 100 100 100 100 99 5 5 2 5 5 5 10 5 41 46 83 88 100 51 86 17 97 97 94 100 100 100 100 100 100 99 100 100 100 100 100 100 99 100 100 100
100 100 100 100 100 100 100 100 11 5 5 0 5 5 5 5 5 5 65 72 84 87 76 19 51 95 96 100 100 100 85 100 100 100 100 100 100 100 100 100 100 100 100 100 100
100 100 100 100 100 100 100 68 5 4 0 0 4 5 5 5 5 5 56 57 88 80 100 94 35 46 86 64 100 93 100 100 100 100 100 100 100 100 100 100 100 100 100 100 100
100 100 100 100 100 100 99 5 5 0 0 0 5 5 5 30 5 5 26 5 84 100 60 16 99 81 89 82 100 100 91 100 100 100 100 100 100 100 100 100 100 100 100 100 100
100 100 100 100 100 100 33 5 5 0 0 0 3 5 5 5 5 5 5 5 10 26 5 5 55 95 100 73 5 6 66 5 100 100 82 100 49 10 10 99 100 100 100 100 100
100 100 100 100 100 92 14 5 2 0 0 0 1 5 5 5 4 2 5 5 5 5 5 5 5 5 9 9 5 10 7 26 18 94 100 64 94 68 54 17 91 100 41 99 100

GFSSW_prec_cloud_114.txt.gz
Cloud_Cover
100 98 93 68 100 100 100 100 100 100 100 100 99 100 100 79 96 100 67 91 100 47 5 5 5 8 5 5 1 2 47 22 5 1 0 5 9 5 1 4 85 91 89 2 4
100 98 100 100 100 100 100 100 100 100 100 99 100 100 100 100 99 99 40 100 100 31 16 46 100 87 88 12 6 10 78 5 1 2 5 52 54 77 26 5 57 74 48 53 0
100 100 99 88 100 100 100 100 100 100 100 100 100 100 100 100 100 100 100 98 100 10 58 48 81 98 94 8 27 41 26 3 3 5 5 6 91 80 99 24 45 84 96 94 4
100 100 100 100 53 100 100 100 100 100 100 100 100 100 100 100 100 100 100 100 25 72 33 5 22 5 5 6 6 5 5 5 5 5 5 10 27 97 82 66 87 11 98 100 5
100 100 100 100 99 91 100 100 100 100 100 100 100 100 100 100 99 100 100 99 50 77 13 59 5 5 5 11 26 9 5 5 5 5 5 10 5 32 62 5 59 56 100 100 12
41 100 100 100 100 100 100 100 100 100 97 100 100 100 100 100 100 100 32 97 100 41 81 5 5 5 7 65 83 56 57 68 52 9 95 70 5 83 5 5 58 55 100 81 51
33 100 100 100 100 100 87 100 100 100 100 100 100 100 100 100 100 63 100 99 83 43 5 3 0 2 5 18 34 53 24 28 5 5 33 98 70 44 0 3 70 63 98 93 8
91 100 100 100 100 100 100 100 100 100 100 100 100 100 100 100 100 100 100 37 8 5 5 3 18 3 45 33 18 92 69 17 0 26 6 73 14 10 4 17 1 54 100 100 99
13 49 100 100 100 100 100 100 100 100 100 100 100 100 100 88 100 100 57 5 5 4 0 3 2 5 31 66 62 96 56 6 19 47 86 74 70 94 2 5 3 93 100 88 100
1 29 100 100 100 100 100 100 100 100 100 100 100 100 91 100 100 100 23 5 5 5 4 3 5 5 65 95 15 32 95 84 86 100 100 98 48 57 2 27 83 100 100 100 100
0 43 100 100 100 100 100 100 100 100 100 100 100 100 100 100 94 53 5 5 5 5 64 5 52 46 72 94 95 100 100 93 76 88 81 84 56 57 44 98 100 100 100 100 100
0 65 100 100 100 100 100 100 100 100 100 100 100 100 100 100 96 5 2 9 7 72 19 64 77 5 15 80 100 100 100 100 100 44 86 24 72 90 23 86 100 100 100 72 89
78 100 100 100 100 100 100 100 100 100 100 100 100 100 100 82 18 5 5 5 5 5 87 90 12 5 46 99 100 100 100 100 100 100 55 97 100 84 83 100 50 100 74 71 99
100 100 100 100 100 100 98 100 100 100 100 100 100 100 100 85 5 2 5 4 34 10 7 48 5 73 94 96 100 100 100 100 100 100 95 86 99 75 97 97 89 99 30 100 100
98 100 100 95 85 75 100 100 100 100 100 100 100 100 97 10 3 5 5 5 9 54 71 8 97 100 60 100 100 100 100 100 100 100 100 64 100 100 100 100 96 79 99 99 100
53 100 99 88 97 100 100 100 100 100 100 100 100 100 65 5 5 5 5 7 31 81 80 40 35 80 100 100 100 100 100 100 100 100 100 100 100 100 100 100 95 88 100 100 99
79 100 67 100 100 100 100 100 100 100 100 100 100 97 7 9 5 5 5 5 85 88 79 100 98 100 100 100 98 100 100 100 100 100 100 100 100 100 100 100 81 95 95 66 100
12 100 100 100 100 100 100 100 100 100 100 100 100 66 43 7 5 5 5 53 12 92 90 93 100 100 98 100 100 100 100 100 100 100 100 100 100 100 100 100 100 97 100 100 100
100 100 100 100 100 100 100 100 100 100 100 100 88 16 74 18 5 5 5 7 82 93 100 100 100 100 100 100 100 100 100 100 100 100 100 100 100 100 100 100 97 85 100 100 100
100 100 100 100 100 100 100 100 100 100 100 64 5 5 32 12 5 5 5 7 79 97 99 100 100 98 100 100 99 100 100 100 100 100 100 100 100 100 100 100 100 100 100 100 100
100 100 100 100 100 100 100 100 100 100 97 5 5 6 5 17 5 8 26 6 95 68 80 100 100 100 100 92 100 100 100 96 100 100 100 100 100 100 100 100 100 100 100 100 100
100 100 100 100 100 100 100 100 100 99 6 2 5 5 5 5 5 13 43 52 100 89 100 96 100 100 99 100 98 100 100 94 97 98 78 100 100 100 100 100 100 100 100 100 100
100 100 100 100 100 100 100 100 100 74 5 4 5 5 5 5 4 5 62 48 100 82 69 88 98 100 100 100 66 100 100 100 100 100 100 100 100 100 100 100 100 100 100 100 100
100 100 100 100 100 100 100 100 97 2 5 0 4 5 5 5 5 5 14 70 100 17 60 17 100 100 100 100 99 100 97 100 100 100 100 100 100 100 100 100 100 100 100 100 100
100 100 100 100 100 100 100 50 21 1 0 0 3 5 4 5 5 5 5 32 100 76 5 8 70 100 100 100 93 100 75 100 100 92 100 100 100 100 100 100 71 100 100 100 87
100 100 100 100 100 100 30 20 0 0 0 0 3 5 5 5 2 5 5 5 5 26 5 5 20 10 65 97 100 100 69 24 99 99 100 57 100 91 100 100 100 100 100 100 100
100 100 100 100 100 79 5 4 0 0 0 0 3 5 5 5 2 0 5 5 5 5 5 5 12 5 20 5 5 19 100 80 13 49 92 53 22 100 94 100 88 72 57 100 100

GFSSW_prec_cloud_117.txt.gz
Cloud_Cover
100 100 100 100 64 94 100 100 100 100 100 100 100 98 100 56 72 100 36 100 91 56 20 47 65 31 5 5 5 5 26 5 5 0 0 0 0 5 5 5 3 27 67 77 87
100 100 100 100 100 38 16 81 100 100 100 100 100 100 98 83 12 15 88 100 100 100 100 100 100 38 43 47 97 39 49 5 3 5 5 5 4 5 17 35 8 29 27 97 100
87 100 100 100 100 100 81 5 64 100 100 100 100 100 74 35 58 61 96 95 100 100 100 100 99 74 70 94 96 85 69 5 52 16 30 50 12 6 7 5 10 59 1 8 4
20 76 100 100 100 96 100 62 10 100 100 100 100 100 72 54 82 77 100 98 100 98 100 100 78 91 84 72 73 72 82 56 54 51 99 77 34 10 53 14 31 6 35 61 100
91 16 100 100 100 100 100 91 100 100 100 100 100 100 100 31 90 96 100 100 96 97 100 100 96 94 74 88 71 98 57 84 60 78 45 47 15 5 11 5 5 69 6 99 62
72 30 98 100 100 87 100 100 100 100 100 100 100 100 100 100 95 86 100 100 98 100 100 100 69 55 68 65 82 90 100 94 67 88 62 88 46 91 8 0 5 5 87 8 19
0 18 98 100 100 100 100 100 100 100 100 100 100 100 100 100 100 91 85 100 100 100 98 70 11 5 10 48 50 55 32 38 5 6 39 87 77 31 0 28 8 5 5 5 9
0 0 68 100 100 100 96 100 100 100 100 100 100 100 100 100 100 100 100 100 100 100 36 24 34 5 51 86 89 98 89 77 0 14 3 78 5 0 14 24 5 5 97 67 11
0 0 38 100 100 99 100 100 100 100 100 100 100 100 100 100 100 100 100 100 100 64 5 14 59 18 89 93 88 96 69 5 5 7 82 97 43 0 5 56 5 5 3 9 5
0 0 1 92 100 100 87 100 100 100 100 100 100 100 100 100 100 100 100 100 64 81 78 46 92 96 99 100 74 71 90 42 64 43 97 100 12 94 77 98 5 5 12 33 52
0 0 0 89 100 97 100 100 100 100 100 100 100 100 100 100 100 100 100 22 75 90 100 98 74 97 69 100 100 96 96 93 37 47 98 80 90 5 82 81 91 44 97 92 89
0 11 13 100 100 100 99 100 100 100 100 100 100 100 100 100 100 100 25 8 96 100 99 89 85 94 89 30 5 19 78 69 62 100 96 93 67 100 100 5 34 61 6 5 100
94 50 98 100 100 100 100 100 100 100 100 100 100 100 100 100 91 71 5 55 90 97 98 100 16 7 22 37 68 100 100 100 100 95 94 62 64 96 95 71 98 21 61 72 100
100 100 100 100 100 99 100 100 100 100 100 100 100 100 100 70 37 6 5 52 85 69 96 40 5 5 11 90 100 98 100 100 99 100 95 91 87 85 92 19 48 19 39 100 100
57 100 100 100 100 100 100 100 100 100 100 100 100 100 46 56 16 12 5 47 67 100 52 8 6 66 66 100 100 100 100 100 100 100 100 100 100 100 100 92 40 95 84 100 100
7 100 100 100 100 100 100 100 100 100 100 100 100 99 100 9 5 10 24 27 97 91 82 96 68 88 72 70 93 100 100 100 100 100 100 100 100 100 100 100 62 100 96 100 99
5 100 100 100 100 100 100 100 100 100 100 100 91 85 11 5 8 57 78 87 93 87 72 96 92 94 82 100 98 100 100 100 100 100 100 100 100 100 100 100 100 100 100 100 100
12 100 100 100 100 100 100 100 100 100 100 88 34 58 56 9 23 58 74 100 85 87 100 99 98 100 100 100 100 100 100 100 100 100 91 99 100 100 100 100 100 100 100 100 100
67 100 100 100 100 100 100 100 100 100 100 31 49 99 22 31 46 7 4 84 75 99 100 97 100 100 100 100 100 100 100 100 100 100 100 100 100 100 100 100 100 100 100 100 100
100 100 100 100 100 100 100 100 100 100 100 5 15 18 83 61 36 5 5 20 76 80 100 100 100 100 100 100 95 100 100 100 100 100 100 100 100 100 100 100 100 100 100 100 100
100 100 100 100 100 100 100 98 100 100 24 5 5 64 79 49 5 5 14 34 36 61 100 100 100 100 100 100 100 100 100 100 100 100 100 100 100 100 100 100 100 100 100 100 100
100 100 100 100 100 100 92 99 100 92 4 5 5 15 79 38 5 6 36 13 100 97 100 100 98 100 97 100 100 100 100 100 100 100 100 100 100 100 100 100 100 100 100 100 100
100 100 100 100 100 90 99 48 5 3 5 5 9 21 8 5 21 5 23 8 93 100 100 100 100 100 95 100 100 100 94 92 100 100 100 100 100 100 100 100 100 100 100 100 100
100 100 100 100 100 99 47 5 5 0 5 2 5 5 5 5 5 14 42 5 91 57 26 100 100 100 100 100 100 100 96 100 100 98 100 100 100 100 99 100 100 100 100 100 100
100 100 100 100 100 27 5 5 0 0 3 2 5 22 11 5 5 5 5 14 5 5 78 100 100 100 100 100 100 100 93 100 100 100 100 100 100 100 100 100 100 100 100 100 100
94 87 98 100 63 5 3 0 0 0 1 3 7 10 5 5 5 5 5 5 10 44 19 8 91 47 100 100 96 96 100 100 100 100 100 94 100 100 100 100 100 100 100 100 100
92 99 100 69 54 14 2 0 0 0 0 2 5 5 5 5 4 4 5 5 5 9 19 42 65 92 31 5 8 62 94 100 71 82 100 72 90 100 100 95 100 100 100 100 100

GFSSW_prec_cloud_120.txt.gz
Cloud_Cover
49 100 100 100 100 100 99 5 21 85 83 19 6 64 100 100 99 98 92 88 70 91 100 100 100 76 100 96 16 5 19 5 5 1 0 0 0 0 0 0 0 0 0 4 85
27 57 100 100 100 100 74 100 88 65 66 100 24 86 100 100 100 99 100 100 27 6 64 31 100 90 56 43 32 64 8 5 5 3 4 3 3 0 0 0 0 0 0 0 5
100 59 38 99 100 86 68 100 99 82 66 92 100 100 100 99 93 90 95 70 6 5 51 100 100 98 27 25 92 52 21 54 8 44 76 67 5 5 0 0 0 2 0 0 5
100 100 65 77 100 100 97 56 98 68 90 66 100 98 100 100 89 100 100 78 21 13 85 100 98 72 66 51 46 12 26 8 5 31 83 7 5 5 5 0 0 2 4 1 5
100 100 99 9 87 96 84 95 28 97 64 91 97 100 100 100 100 100 100 98 67 80 84 72 69 58 38 5 19 98 52 65 92 6 5 5 2 0 0 0 0 1 2 0 4
86 36 8 1 94 100 98 42 78 45 100 91 93 99 99 79 99 100 77 98 90 100 100 89 97 41 66 61 62 27 43 64 31 5 18 81 63 22 10 2 0 0 0 0 0
94 50 5 61 100 100 100 100 97 78 74 100 100 96 100 100 100 85 97 100 100 100 59 95 99 100 36 66 61 97 63 6 5 2 5 5 31 0 0 0 0 0 0 0 1
5 0 0 0 73 100 100 100 99 100 99 100 100 100 100 100 100 100 100 100 100 99 100 100 100 81 67 71 75 10 5 5 2 2 19 50 19 0 0 0 0 0 0 0 0
5 0 0 2 13 100 100 100 100 100 100 100 100 100 97 100 100 100 100 98 100 100 100 100 98 96 58 36 17 5 17 5 5 0 73 37 91 44 0 0 2 4 1 0 0
68 2 0 0 20 100 100 100 100 89 100 99 100 100 100 100 100 100 100 100 100 100 100 25 52 14 5 63 62 5 5 6 1 0 1 1 13 0 7 3 27 5 5 1 0
20 1 0 0 0 100 100 100 100 100 100 88 100 100 100 100 100 100 100 100 100 100 47 26 70 34 5 18 15 60 26 5 4 0 94 1 0 0 26 13 12 90 74 62 1
56 32 0 9 13 100 100 100 100 98 99 100 100 100 100 100 100 100 100 99 41 82 69 97 58 5 8 91 75 5 5 85 58 72 99 44 6 57 71 28 3 10 100 85 11
28 100 97 100 100 100 100 100 100 97 100 100 100 100 100 100 100 100 70 5 67 97 100 95 4 30 60 5 5 5 70 27 85 95 64 78 8 0 0 6 63 53 43 53 80
22 100 100 100 94 100 100 100 97 100 100 100 100 100 100 100 95 32 5 35 100 84 100 15 4 4 14 50 96 50 100 100 100 100 90 89 95 94 21 1 11 100 100 62 8
5 100 100 100 100 100 100 100 100 100 100 100 100 100 89 32 7 16 5 54 68 89 65 62 6 57 61 53 94 20 87 100 100 100 100 96 100 93 57 5 51 66 100 99 13
5 100 100 100 100 100 100 100 100 100 100 100 84 73 100 10 9 27 70 57 81 98 59 96 5 68 33 73 100 100 100 100 100 100 100 100 100 100 100 100 91 48 100 40 86
5 88 100 100 100 100 100 100 100 100 100 48 95 70 34 6 24 31 98 99 96 91 51 34 28 74 100 100 97 100 100 99 100 99 100 100 100 100 100 100 100 90 100 96 93
5 43 100 100 100 100 100 100 100 100 100 96 48 98 36 5 13 83 68 98 96 95 81 45 98 100 100 100 100 100 100 100 100 100 100 100 100 100 100 100 100 100 100 100 96
25 100 100 100 100 100 100 100 100 100 3 6 88 84 5 12 5 5 11 64 98 75 78 100 100 100 100 100 100 100 100 100 100 98 100 100 100 100 100 100 100 100 100 100 100
100 100 100 100 100 100 93 98 100 100 5 5 21 44 9 5 5 5 26 76 100 100 100 100 100 100 100 100 100 100 100 100 100 100 100 100 100 100 100 100 100 100 100 100 100
100 100 100 100 100 74 81 100 95 3 5 56 83 12 8 4 5 5 26 90 100 100 100 100 100 100 100 100 100 100 100 100 100 100 100 100 100 100 100 100 100 100 100 100 100
100 100 100 100 95 98 51 100 94 3 2 5 6 5 5 5 5 7 33 50 100 100 89 100 100 100 100 100 100 100 100 100 100 100 100 100 100 100 100 100 100 100 100 100 100
100 100 100 92 76 78 97 72 7 11 46 4 5 5 4 5 7 5 7 56 98 94 87 83 77 98 100 100 100 80 100 100 100 100 100 100 100 100 100 100 100 100 100 100 100
100 100 100 100 77 97 7 0 3 2 32 4 4 5 5 5 2 4 51 40 10 60 65 100 100 97 100 100 100 100 100 100 100 100 100 100 100 100 100 100 100 100 100 100 100
95 75 92 100 100 54 3 1 5 1 5 0 2 5 5 5 5 5 2 6 5 78 100 100 100 100 100 100 99 100 94 100 100 100 100 100 100 100 100 100 100 100 100 100 100
100 73 86 86 62 5 0 0 2 0 3 0 5 5 0 5 5 5 1 5 5 79 97 100 100 100 100 100 88 55 89 100 100 100 100 100 100 100 100 100 100 100 100 100 100
96 97 99 63 9 5 5 0 0 0 0 0 5 5 5 5 2 1 0 1 5 5 12 5 19 72 11 4 18 57 97 95 91 94 83 51 98 100 100 100 100 100 100 100 100

GFSSW_prec_cloud_123.txt.gz
Cloud_Cover
1 100 34 100 100 97 100 76 95 37 5 5 11 30 5 2 1 5 5 63 94 100 56 28 37 54 63 100 78 21 30 5 5 0 0 0 0 0 0 0 0 0 0 3 0
80 100 94 100 100 100 98 100 100 33 12 27 63 5 5 23 5 6 5 96 98 100 87 94 49 96 74 99 100 100 96 5 92 11 0 0 0 0 0 0 0 2 0 0 0
100 94 58 89 65 100 89 85 100 59 5 5 5 19 5 5 18 57 15 100 100 100 97 79 67 100 100 100 93 50 19 81 54 5 1 3 0 0 2 0 0 2 3 0 0
82 100 100 100 99 98 100 100 44 17 39 42 5 46 99 10 6 65 100 100 97 96 100 59 80 100 100 80 69 16 5 5 5 5 2 4 5 5 0 0 0 0 0 0 0
100 100 100 94 52 16 93 100 63 55 100 56 78 45 93 34 9 100 100 97 95 100 95 100 98 87 99 99 31 6 13 7 65 53 20 5 0 0 0 0 0 0 0 0 0
100 100 100 100 100 21 94 100 99 92 26 59 22 33 96 55 71 100 100 100 100 100 87 88 100 94 100 100 60 5 5 5 5 5 5 3 0 0 0 0 0 0 0 0 0
100 100 100 100 100 100 99 100 100 70 51 92 50 100 100 62 5 80 99 100 100 100 94 75 96 100 32 11 6 5 5 5 5 34 5 3 0 0 1 0 0 0 0 0 0
100 100 100 100 90 92 100 100 100 100 100 100 80 99 100 100 89 100 100 99 90 93 100 93 90 53 81 5 62 5 5 5 71 5 0 35 2 0 0 0 1 0 0 0 0
100 100 95 9 3 2 100 100 100 100 100 97 12 45 100 100 100 100 100 98 100 96 100 90 79 72 30 5 7 5 37 5 4 0 0 0 0 0 0 0 0 0 0 0 0
100 95 82 5 0 56 100 100 100 100 100 100 100 98 98 100 100 100 100 100 100 100 88 81 87 85 84 64 45 6 5 4 0 0 0 0 0 0 0 0 0 0 0 0 0
5 10 12 0 0 23 100 100 98 100 100 63 100 100 100 100 100 100 100 100 100 100 100 87 72 82 5 4 5 5 5 5 0 52 3 0 0 0 0 0 0 0 0 0 0
99 87 5 3 2 59 100 100 95 94 58 51 100 100 100 95 100 100 100 100 100 100 97 41 28 2 31 5 11 58 32 2 0 5 18 1 1 0 0 0 0 0 0 3 6
100 61 83 100 2 92 98 100 68 84 99 100 100 100 100 100 100 100 100 100 86 7 14 32 2 5 11 8 51 15 6 5 9 1 3 5 9 0 0 0 0 0 0 3 5
100 97 100 100 92 100 100 100 100 100 100 100 100 100 100 100 100 100 36 2 5 40 73 23 2 4 5 5 65 5 7 5 7 93 90 34 64 5 10 4 0 0 1 5 8
100 100 100 100 100 100 100 100 100 100 100 100 100 100 99 19 39 26 4 6 8 50 50 4 3 5 5 6 82 16 72 89 100 100 100 42 100 5 30 13 0 0 0 75 8
97 100 100 100 100 100 100 100 100 100 100 100 100 100 58 7 9 16 10 78 48 97 66 5 5 34 39 97 88 94 61 95 100 100 96 100 88 21 91 100 100 49 5 8 89
100 100 100 100 100 100 100 100 100 100 100 100 100 100 89 5 16 36 56 88 92 85 5 5 9 86 100 94 35 84 100 50 87 88 95 100 100 68 98 100 100 90 24 40 99
63 87 100 100 100 100 100 84 100 100 100 100 58 99 5 5 46 89 100 97 98 98 50 79 99 95 76 99 100 99 100 100 96 100 100 100 100 100 100 100 100 100 100 17 44
94 100 100 100 100 90 100 100 100 100 96 98 92 5 69 31 4 9 37 100 100 100 100 100 100 80 99 88 100 94 100 100 100 100 100 100 100 100 100 100 100 100 100 70 98
68 69 100 100 96 98 100 100 100 100 6 34 28 5 6 5 10 42 70 100 100 100 100 100 100 96 83 98 82 100 100 98 100 100 100 100 100 100 100 100 100 100 100 100 100
100 100 100 100 100 100 100 100 100 5 29 87 97 17 24 5 5 10 50 100 100 100 100 100 96 100 100 100 100 100 100 100 100 100 97 100 100 100 100 100 100 100 100 100 100
99 100 48 84 98 95 100 100 76 0 5 79 13 5 2 1 5 53 43 15 97 86 100 100 100 100 100 100 100 97 100 100 100 100 82 100 100 100 100 100 100 100 100 100 100
100 100 94 81 92 79 87 64 0 5 5 5 5 0 1 3 5 5 73 79 80 88 100 100 100 100 98 97 98 100 100 100 100 100 100 100 100 100 100 100 100 100 100 100 100
61 100 94 88 44 88 22 0 0 5 4 5 3 0 0 2 5 5 42 69 71 95 100 98 100 99 100 100 100 100 99 100 100 100 100 100 100 100 100 100 100 100 100 100 100
5 47 22 85 5 4 0 1 0 0 0 5 2 0 0 2 5 4 5 5 18 100 92 100 100 76 94 100 100 100 100 97 100 100 100 100 100 100 100 100 100 100 100 100 100
5 8 5 29 5 1 0 0 0 2 3 5 5 0 0 5 4 5 5 7 5 99 99 53 88 26 18 100 100 100 100 91 100 100 100 100 100 100 100 100 100 100 100 100 100
5 5 4 5 4 5 5 0 0 0 0 4 5 0 2 0 2 3 0 1 5 5 5 5 5 5 18 93 86 98 96 100 100 100 100 100 100 100 100 100 100 100 100 100 100